Wetterdaten: Dienstag, 18.02.2025
Datum Zeit Temp. I. Temp. A. Feuchte I. Feuchte A. Luftdruck Regen Wind Richtung Richtung Sonnenschein Solar Taupunkt Windchill Windböen
18.02.2025 00:00 22,7 °C -9,0 °C 45 % 88 % 1028,0 hPa 0,0 l/m² 0,0 km/h (0 Bft) NW 315 ° 0 min 0 W/m² -10,6 °C -9,0 °C 0,0 km/h (0 Bft)
18.02.2025 00:01 22,7 °C -9,0 °C 45 % 88 % 1028,0 hPa 0,0 l/m² 0,0 km/h (0 Bft) NW 315 ° 0 min 0 W/m² -10,6 °C -9,0 °C 0,0 km/h (0 Bft)
18.02.2025 00:02 22,7 °C -9,0 °C 45 % 88 % 1028,0 hPa 0,0 l/m² 0,0 km/h (0 Bft) NW 315 ° 0 min 0 W/m² -10,6 °C -9,0 °C 0,0 km/h (0 Bft)
18.02.2025 00:03 22,8 °C -8,9 °C 45 % 88 % 1027,9 hPa 0,0 l/m² 0,0 km/h (0 Bft) NW 315 ° 0 min 0 W/m² -10,5 °C -8,9 °C 0,0 km/h (0 Bft)
18.02.2025 00:04 22,8 °C -8,9 °C 45 % 88 % 1028,0 hPa 0,0 l/m² 0,0 km/h (0 Bft) NW 315 ° 0 min 0 W/m² -10,5 °C -8,9 °C 0,0 km/h (0 Bft)
18.02.2025 00:05 22,8 °C -8,9 °C 45 % 88 % 1028,0 hPa 0,0 l/m² 0,0 km/h (0 Bft) NW 315 ° 0 min 0 W/m² -10,5 °C -8,9 °C 0,0 km/h (0 Bft)
18.02.2025 00:06 22,8 °C -8,8 °C 45 % 88 % 1028,1 hPa 0,0 l/m² 0,0 km/h (0 Bft) NW 315 ° 0 min 0 W/m² -10,4 °C -8,8 °C 0,0 km/h (0 Bft)
18.02.2025 00:08 22,8 °C -8,8 °C 45 % 89 % 1028,1 hPa 0,0 l/m² 0,0 km/h (0 Bft) NW 315 ° 0 min 0 W/m² -10,3 °C -8,8 °C 0,0 km/h (0 Bft)
18.02.2025 00:09 22,8 °C -8,8 °C 45 % 89 % 1028,1 hPa 0,0 l/m² 0,0 km/h (0 Bft) NW 315 ° 0 min 0 W/m² -10,3 °C -8,8 °C 0,0 km/h (0 Bft)
18.02.2025 00:11 22,8 °C -8,8 °C 45 % 88 % 1028,1 hPa 0,0 l/m² 0,0 km/h (0 Bft) NW 315 ° 0 min 0 W/m² -10,4 °C -8,8 °C 0,0 km/h (0 Bft)
18.02.2025 00:12 22,8 °C -8,9 °C 45 % 88 % 1028,1 hPa 0,0 l/m² 0,0 km/h (0 Bft) NW 315 ° 0 min 0 W/m² -10,5 °C -8,9 °C 0,0 km/h (0 Bft)
18.02.2025 00:14 22,7 °C -8,9 °C 45 % 88 % 1028,0 hPa 0,0 l/m² 0,0 km/h (0 Bft) NW 315 ° 0 min 0 W/m² -10,5 °C -8,9 °C 0,0 km/h (0 Bft)
18.02.2025 00:15 22,7 °C -8,9 °C 45 % 89 % 1028,1 hPa 0,0 l/m² 0,0 km/h (0 Bft) NW 315 ° 0 min 0 W/m² -10,4 °C -8,9 °C 0,0 km/h (0 Bft)
18.02.2025 00:16 22,8 °C -8,8 °C 45 % 88 % 1028,2 hPa 0,0 l/m² 0,0 km/h (0 Bft) NW 315 ° 0 min 0 W/m² -10,4 °C -8,8 °C 0,0 km/h (0 Bft)
18.02.2025 00:18 22,7 °C -8,9 °C 45 % 89 % 1028,2 hPa 0,0 l/m² 0,0 km/h (0 Bft) NW 315 ° 0 min 0 W/m² -10,4 °C -8,9 °C 0,0 km/h (0 Bft)
18.02.2025 00:20 22,7 °C -8,8 °C 45 % 88 % 1028,1 hPa 0,0 l/m² 0,0 km/h (0 Bft) NW 315 ° 0 min 0 W/m² -10,4 °C -8,8 °C 0,0 km/h (0 Bft)
18.02.2025 00:22 22,8 °C -8,8 °C 44 % 89 % 1028,2 hPa 0,0 l/m² 0,0 km/h (0 Bft) NW 315 ° 0 min 0 W/m² -10,3 °C -8,8 °C 0,0 km/h (0 Bft)
18.02.2025 00:23 22,8 °C -8,8 °C 44 % 89 % 1028,2 hPa 0,0 l/m² 0,0 km/h (0 Bft) NW 315 ° 0 min 0 W/m² -10,3 °C -8,8 °C 0,0 km/h (0 Bft)
18.02.2025 00:24 22,7 °C -8,8 °C 45 % 89 % 1028,2 hPa 0,0 l/m² 0,0 km/h (0 Bft) NW 315 ° 0 min 0 W/m² -10,3 °C -8,8 °C 0,0 km/h (0 Bft)
18.02.2025 00:26 22,8 °C -8,9 °C 44 % 88 % 1028,2 hPa 0,0 l/m² 0,0 km/h (0 Bft) NW 315 ° 0 min 0 W/m² -10,5 °C -8,9 °C 0,0 km/h (0 Bft)
18.02.2025 00:28 22,7 °C -8,9 °C 44 % 88 % 1028,3 hPa 0,0 l/m² 0,0 km/h (0 Bft) NW 315 ° 0 min 0 W/m² -10,5 °C -8,9 °C 0,0 km/h (0 Bft)
18.02.2025 00:30 22,8 °C -9,0 °C 44 % 88 % 1028,2 hPa 0,0 l/m² 0,0 km/h (0 Bft) NW 315 ° 0 min 0 W/m² -10,6 °C -9,0 °C 0,0 km/h (0 Bft)
18.02.2025 00:32 22,8 °C -9,0 °C 44 % 88 % 1028,3 hPa 0,0 l/m² 0,0 km/h (0 Bft) NW 315 ° 0 min 0 W/m² -10,6 °C -9,0 °C 0,0 km/h (0 Bft)
18.02.2025 00:33 22,8 °C -9,0 °C 44 % 88 % 1028,3 hPa 0,0 l/m² 0,0 km/h (0 Bft) NW 315 ° 0 min 0 W/m² -10,6 °C -9,0 °C 0,0 km/h (0 Bft)
18.02.2025 00:34 22,8 °C -9,1 °C 44 % 88 % 1028,2 hPa 0,0 l/m² 0,0 km/h (0 Bft) NW 315 ° 0 min 0 W/m² -10,7 °C -9,1 °C 0,0 km/h (0 Bft)
18.02.2025 00:36 22,7 °C -9,1 °C 44 % 88 % 1028,2 hPa 0,0 l/m² 0,0 km/h (0 Bft) NW 315 ° 0 min 0 W/m² -10,7 °C -9,1 °C 0,0 km/h (0 Bft)
18.02.2025 00:38 22,7 °C -9,1 °C 44 % 88 % 1028,2 hPa 0,0 l/m² 0,0 km/h (0 Bft) NW 315 ° 0 min 0 W/m² -10,7 °C -9,1 °C 0,0 km/h (0 Bft)
18.02.2025 00:40 22,7 °C -9,1 °C 44 % 88 % 1028,3 hPa 0,0 l/m² 0,0 km/h (0 Bft) NW 315 ° 0 min 0 W/m² -10,7 °C -9,1 °C 0,0 km/h (0 Bft)
18.02.2025 00:42 22,8 °C -9,1 °C 44 % 88 % 1028,4 hPa 0,0 l/m² 0,0 km/h (0 Bft) NW 315 ° 0 min 0 W/m² -10,7 °C -9,1 °C 0,0 km/h (0 Bft)
18.02.2025 00:43 22,8 °C -9,0 °C 44 % 88 % 1028,4 hPa 0,0 l/m² 0,0 km/h (0 Bft) NW 315 ° 0 min 0 W/m² -10,6 °C -9,0 °C 0,0 km/h (0 Bft)
18.02.2025 00:46 22,8 °C -9,1 °C 44 % 88 % 1028,3 hPa 0,0 l/m² 0,2 km/h (0 Bft) NW 315 ° 0 min 0 W/m² -10,7 °C -9,1 °C 1,6 km/h (1 Bft)
18.02.2025 00:48 22,7 °C -9,1 °C 44 % 88 % 1028,4 hPa 0,0 l/m² 0,0 km/h (0 Bft) NW 315 ° 0 min 0 W/m² -10,7 °C -9,1 °C 0,0 km/h (0 Bft)
18.02.2025 00:50 22,8 °C -9,2 °C 44 % 88 % 1028,4 hPa 0,0 l/m² 0,0 km/h (0 Bft) NW 315 ° 0 min 0 W/m² -10,8 °C -9,2 °C 0,0 km/h (0 Bft)
18.02.2025 00:52 22,8 °C -9,3 °C 44 % 88 % 1028,3 hPa 0,0 l/m² 0,0 km/h (0 Bft) NW 315 ° 0 min 0 W/m² -10,9 °C -9,3 °C 0,0 km/h (0 Bft)
18.02.2025 00:53 22,7 °C -9,3 °C 44 % 88 % 1028,4 hPa 0,0 l/m² 0,0 km/h (0 Bft) NW 315 ° 0 min 0 W/m² -10,9 °C -9,3 °C 0,0 km/h (0 Bft)
18.02.2025 00:54 22,7 °C -9,4 °C 44 % 88 % 1028,4 hPa 0,0 l/m² 0,0 km/h (0 Bft) NW 315 ° 0 min 0 W/m² -11,0 °C -9,4 °C 0,0 km/h (0 Bft)
18.02.2025 00:56 22,8 °C -9,4 °C 44 % 88 % 1028,3 hPa 0,0 l/m² 0,0 km/h (0 Bft) NW 315 ° 0 min 0 W/m² -11,0 °C -9,4 °C 0,0 km/h (0 Bft)
18.02.2025 00:58 22,8 °C -9,4 °C 44 % 88 % 1028,3 hPa 0,0 l/m² 0,0 km/h (0 Bft) NW 315 ° 0 min 0 W/m² -11,0 °C -9,4 °C 0,0 km/h (0 Bft)
18.02.2025 01:00 22,7 °C -9,3 °C 44 % 88 % 1028,3 hPa 0,0 l/m² 0,0 km/h (0 Bft) NW 315 ° 0 min 0 W/m² -10,9 °C -9,3 °C 0,0 km/h (0 Bft)
18.02.2025 01:02 22,8 °C -9,3 °C 44 % 88 % 1028,2 hPa 0,0 l/m² 0,0 km/h (0 Bft) NW 315 ° 0 min 0 W/m² -10,9 °C -9,3 °C 1,6 km/h (1 Bft)
18.02.2025 01:03 22,8 °C -9,2 °C 44 % 88 % 1028,3 hPa 0,0 l/m² 0,0 km/h (0 Bft) NW 315 ° 0 min 0 W/m² -10,8 °C -9,2 °C 0,0 km/h (0 Bft)
18.02.2025 01:04 22,7 °C -9,2 °C 44 % 88 % 1028,3 hPa 0,0 l/m² 0,0 km/h (0 Bft) NW 315 ° 0 min 0 W/m² -10,8 °C -9,2 °C 0,0 km/h (0 Bft)
18.02.2025 01:06 22,7 °C -9,2 °C 44 % 89 % 1028,3 hPa 0,0 l/m² 0,9 km/h (0 Bft) NW 313 ° 0 min 0 W/m² -10,7 °C -9,2 °C 3,2 km/h (1 Bft)
18.02.2025 01:08 22,7 °C -9,2 °C 44 % 88 % 1028,3 hPa 0,0 l/m² 1,7 km/h (1 Bft) NW 313 ° 0 min 0 W/m² -10,8 °C -9,2 °C 3,2 km/h (1 Bft)
18.02.2025 01:10 22,7 °C -9,1 °C 44 % 89 % 1028,4 hPa 0,0 l/m² 0,4 km/h (0 Bft) NW 313 ° 0 min 0 W/m² -10,6 °C -9,1 °C 1,6 km/h (1 Bft)
18.02.2025 01:12 22,7 °C -9,1 °C 44 % 89 % 1028,3 hPa 0,0 l/m² 0,0 km/h (0 Bft) NW 313 ° 0 min 0 W/m² -10,6 °C -9,1 °C 0,0 km/h (0 Bft)
18.02.2025 01:13 22,7 °C -9,1 °C 44 % 89 % 1028,3 hPa 0,0 l/m² 0,0 km/h (0 Bft) NW 313 ° 0 min 0 W/m² -10,6 °C -9,1 °C 0,0 km/h (0 Bft)
18.02.2025 01:14 22,7 °C -9,1 °C 44 % 88 % 1028,4 hPa 0,0 l/m² 0,0 km/h (0 Bft) NW 313 ° 0 min 0 W/m² -10,7 °C -9,1 °C 0,0 km/h (0 Bft)
18.02.2025 01:16 22,7 °C -9,2 °C 44 % 88 % 1028,4 hPa 0,0 l/m² 0,0 km/h (0 Bft) NW 313 ° 0 min 0 W/m² -10,8 °C -9,2 °C 0,0 km/h (0 Bft)
18.02.2025 01:18 22,7 °C -9,2 °C 44 % 88 % 1028,4 hPa 0,0 l/m² 0,0 km/h (0 Bft) NW 313 ° 0 min 0 W/m² -10,8 °C -9,2 °C 0,0 km/h (0 Bft)
18.02.2025 01:20 22,7 °C -9,4 °C 44 % 88 % 1028,4 hPa 0,0 l/m² 0,0 km/h (0 Bft) NW 313 ° 0 min 0 W/m² -11,0 °C -9,4 °C 0,0 km/h (0 Bft)
18.02.2025 01:22 22,7 °C -9,7 °C 44 % 87 % 1028,4 hPa 0,0 l/m² 0,0 km/h (0 Bft) NW 313 ° 0 min 0 W/m² -11,4 °C -9,7 °C 0,0 km/h (0 Bft)
18.02.2025 01:23 22,7 °C -9,8 °C 44 % 87 % 1028,5 hPa 0,0 l/m² 0,0 km/h (0 Bft) NW 313 ° 0 min 0 W/m² -11,5 °C -9,8 °C 0,0 km/h (0 Bft)
18.02.2025 01:24 22,7 °C -9,8 °C 44 % 87 % 1028,3 hPa 0,0 l/m² 2,3 km/h (1 Bft) W 271 ° 0 min 0 W/m² -11,5 °C -9,8 °C 3,2 km/h (1 Bft)
18.02.2025 01:26 22,7 °C -9,8 °C 44 % 88 % 1028,4 hPa 0,0 l/m² 2,5 km/h (1 Bft) W-SW 248 ° 0 min 0 W/m² -11,4 °C -9,8 °C 4,8 km/h (1 Bft)
18.02.2025 01:28 22,7 °C -9,8 °C 44 % 88 % 1028,5 hPa 0,0 l/m² 1,8 km/h (1 Bft) W-SW 249 ° 0 min 0 W/m² -11,4 °C -9,8 °C 3,2 km/h (1 Bft)
18.02.2025 01:30 22,7 °C -9,6 °C 44 % 88 % 1028,6 hPa 0,0 l/m² 0,1 km/h (0 Bft) W-SW 249 ° 0 min 0 W/m² -11,2 °C -9,6 °C 1,6 km/h (1 Bft)
18.02.2025 01:32 22,7 °C -9,5 °C 44 % 89 % 1028,6 hPa 0,0 l/m² 0,0 km/h (0 Bft) W-SW 249 ° 0 min 0 W/m² -11,0 °C -9,5 °C 0,0 km/h (0 Bft)
18.02.2025 01:33 22,7 °C -9,4 °C 44 % 89 % 1028,6 hPa 0,0 l/m² 0,0 km/h (0 Bft) W-SW 249 ° 0 min 0 W/m² -10,9 °C -9,4 °C 0,0 km/h (0 Bft)
18.02.2025 01:34 22,7 °C -9,5 °C 44 % 89 % 1028,6 hPa 0,0 l/m² 0,0 km/h (0 Bft) W-SW 249 ° 0 min 0 W/m² -11,0 °C -9,5 °C 0,0 km/h (0 Bft)
18.02.2025 01:36 22,7 °C -9,6 °C 44 % 88 % 1028,6 hPa 0,0 l/m² 0,0 km/h (0 Bft) W-SW 249 ° 0 min 0 W/m² -11,2 °C -9,6 °C 0,0 km/h (0 Bft)
18.02.2025 01:38 22,7 °C -9,6 °C 44 % 88 % 1028,6 hPa 0,0 l/m² 0,0 km/h (0 Bft) W-SW 249 ° 0 min 0 W/m² -11,2 °C -9,6 °C 0,0 km/h (0 Bft)
18.02.2025 01:40 22,7 °C -9,6 °C 44 % 88 % 1028,6 hPa 0,0 l/m² 0,0 km/h (0 Bft) W-SW 249 ° 0 min 0 W/m² -11,2 °C -9,6 °C 0,0 km/h (0 Bft)
18.02.2025 01:42 22,7 °C -9,6 °C 44 % 88 % 1028,8 hPa 0,0 l/m² 0,0 km/h (0 Bft) W-SW 249 ° 0 min 0 W/m² -11,2 °C -9,6 °C 0,0 km/h (0 Bft)
18.02.2025 01:43 22,7 °C -9,6 °C 44 % 88 % 1028,6 hPa 0,0 l/m² 0,0 km/h (0 Bft) W-SW 249 ° 0 min 0 W/m² -11,2 °C -9,6 °C 0,0 km/h (0 Bft)
18.02.2025 01:44 22,7 °C -9,6 °C 44 % 88 % 1028,6 hPa 0,0 l/m² 0,0 km/h (0 Bft) W-SW 249 ° 0 min 0 W/m² -11,2 °C -9,6 °C 0,0 km/h (0 Bft)
18.02.2025 01:46 22,7 °C -9,5 °C 44 % 88 % 1028,6 hPa 0,0 l/m² 0,0 km/h (0 Bft) W-SW 249 ° 0 min 0 W/m² -11,1 °C -9,5 °C 0,0 km/h (0 Bft)
18.02.2025 01:48 22,7 °C -9,5 °C 44 % 89 % 1028,7 hPa 0,0 l/m² 0,0 km/h (0 Bft) W-SW 249 ° 0 min 0 W/m² -11,0 °C -9,5 °C 0,0 km/h (0 Bft)
18.02.2025 01:50 22,7 °C -9,4 °C 44 % 89 % 1028,6 hPa 0,0 l/m² 0,0 km/h (0 Bft) W-SW 249 ° 0 min 0 W/m² -10,9 °C -9,4 °C 0,0 km/h (0 Bft)
18.02.2025 01:52 22,7 °C -9,3 °C 44 % 88 % 1028,6 hPa 0,0 l/m² 0,0 km/h (0 Bft) W-SW 249 ° 0 min 0 W/m² -10,9 °C -9,3 °C 0,0 km/h (0 Bft)
18.02.2025 01:53 22,7 °C -9,3 °C 44 % 88 % 1028,8 hPa 0,0 l/m² 0,0 km/h (0 Bft) W-SW 249 ° 0 min 0 W/m² -10,9 °C -9,3 °C 0,0 km/h (0 Bft)
18.02.2025 01:54 22,7 °C -9,3 °C 44 % 88 % 1028,8 hPa 0,0 l/m² 0,0 km/h (0 Bft) W-SW 249 ° 0 min 0 W/m² -10,9 °C -9,3 °C 0,0 km/h (0 Bft)
18.02.2025 01:56 22,7 °C -9,2 °C 44 % 88 % 1028,8 hPa 0,0 l/m² 0,0 km/h (0 Bft) W-SW 249 ° 0 min 0 W/m² -10,8 °C -9,2 °C 0,0 km/h (0 Bft)
18.02.2025 01:58 22,7 °C -9,2 °C 44 % 89 % 1028,8 hPa 0,0 l/m² 0,0 km/h (0 Bft) W-SW 249 ° 0 min 0 W/m² -10,7 °C -9,2 °C 0,0 km/h (0 Bft)
18.02.2025 02:00 22,7 °C -9,2 °C 44 % 89 % 1028,8 hPa 0,0 l/m² 0,0 km/h (0 Bft) W-SW 249 ° 0 min 0 W/m² -10,7 °C -9,2 °C 0,0 km/h (0 Bft)
18.02.2025 02:02 22,7 °C -9,2 °C 44 % 88 % 1028,7 hPa 0,0 l/m² 0,0 km/h (0 Bft) W-SW 249 ° 0 min 0 W/m² -10,8 °C -9,2 °C 0,0 km/h (0 Bft)
18.02.2025 02:03 22,7 °C -9,1 °C 44 % 88 % 1028,8 hPa 0,0 l/m² 0,0 km/h (0 Bft) W-SW 249 ° 0 min 0 W/m² -10,7 °C -9,1 °C 0,0 km/h (0 Bft)
18.02.2025 02:04 22,7 °C -9,1 °C 44 % 89 % 1028,8 hPa 0,0 l/m² 0,0 km/h (0 Bft) W-SW 249 ° 0 min 0 W/m² -10,6 °C -9,1 °C 0,0 km/h (0 Bft)
18.02.2025 02:06 22,7 °C -9,0 °C 44 % 89 % 1028,8 hPa 0,0 l/m² 0,0 km/h (0 Bft) W-SW 249 ° 0 min 0 W/m² -10,5 °C -9,0 °C 0,0 km/h (0 Bft)
18.02.2025 02:08 22,7 °C -9,1 °C 44 % 88 % 1028,8 hPa 0,0 l/m² 0,0 km/h (0 Bft) W-SW 249 ° 0 min 0 W/m² -10,7 °C -9,1 °C 0,0 km/h (0 Bft)
18.02.2025 02:10 22,7 °C -9,1 °C 44 % 88 % 1028,8 hPa 0,0 l/m² 0,0 km/h (0 Bft) W-SW 249 ° 0 min 0 W/m² -10,7 °C -9,1 °C 0,0 km/h (0 Bft)
18.02.2025 02:12 22,7 °C -9,1 °C 44 % 88 % 1028,8 hPa 0,0 l/m² 0,0 km/h (0 Bft) W-SW 249 ° 0 min 0 W/m² -10,7 °C -9,1 °C 0,0 km/h (0 Bft)
18.02.2025 02:13 22,7 °C -9,1 °C 44 % 88 % 1028,9 hPa 0,0 l/m² 0,0 km/h (0 Bft) W-SW 249 ° 0 min 0 W/m² -10,7 °C -9,1 °C 0,0 km/h (0 Bft)
18.02.2025 02:14 22,7 °C -9,2 °C 44 % 88 % 1028,8 hPa 0,0 l/m² 0,0 km/h (0 Bft) W-SW 249 ° 0 min 0 W/m² -10,8 °C -9,2 °C 0,0 km/h (0 Bft)
18.02.2025 02:16 22,7 °C -9,2 °C 44 % 88 % 1028,9 hPa 0,0 l/m² 0,0 km/h (0 Bft) W-SW 249 ° 0 min 0 W/m² -10,8 °C -9,2 °C 0,0 km/h (0 Bft)
18.02.2025 02:18 22,7 °C -9,3 °C 44 % 88 % 1028,9 hPa 0,0 l/m² 0,0 km/h (0 Bft) W-SW 249 ° 0 min 0 W/m² -10,9 °C -9,3 °C 0,0 km/h (0 Bft)
18.02.2025 02:20 22,7 °C -9,3 °C 44 % 88 % 1028,8 hPa 0,0 l/m² 0,0 km/h (0 Bft) W-SW 249 ° 0 min 0 W/m² -10,9 °C -9,3 °C 0,0 km/h (0 Bft)
18.02.2025 02:22 22,7 °C -9,3 °C 44 % 88 % 1029,0 hPa 0,0 l/m² 0,0 km/h (0 Bft) W-SW 249 ° 0 min 0 W/m² -10,9 °C -9,3 °C 0,0 km/h (0 Bft)
18.02.2025 02:23 22,7 °C -9,2 °C 44 % 88 % 1028,8 hPa 0,0 l/m² 0,0 km/h (0 Bft) W-SW 249 ° 0 min 0 W/m² -10,8 °C -9,2 °C 0,0 km/h (0 Bft)
18.02.2025 02:24 22,7 °C -9,3 °C 44 % 88 % 1028,9 hPa 0,0 l/m² 0,0 km/h (0 Bft) W-SW 249 ° 0 min 0 W/m² -10,9 °C -9,3 °C 0,0 km/h (0 Bft)
18.02.2025 02:26 22,6 °C -9,4 °C 44 % 88 % 1029,0 hPa 0,0 l/m² 0,0 km/h (0 Bft) W-SW 249 ° 0 min 0 W/m² -11,0 °C -9,4 °C 0,0 km/h (0 Bft)
18.02.2025 02:28 22,7 °C -9,5 °C 44 % 88 % 1029,0 hPa 0,0 l/m² 0,0 km/h (0 Bft) W-SW 249 ° 0 min 0 W/m² -11,1 °C -9,5 °C 0,0 km/h (0 Bft)
18.02.2025 02:30 22,7 °C -9,6 °C 44 % 88 % 1028,9 hPa 0,0 l/m² 0,0 km/h (0 Bft) W-SW 249 ° 0 min 0 W/m² -11,2 °C -9,6 °C 0,0 km/h (0 Bft)
18.02.2025 02:32 22,7 °C -9,7 °C 44 % 88 % 1028,9 hPa 0,0 l/m² 0,0 km/h (0 Bft) W-SW 249 ° 0 min 0 W/m² -11,3 °C -9,7 °C 0,0 km/h (0 Bft)
18.02.2025 02:33 22,7 °C -9,7 °C 44 % 88 % 1028,9 hPa 0,0 l/m² 0,0 km/h (0 Bft) W-SW 249 ° 0 min 0 W/m² -11,3 °C -9,7 °C 0,0 km/h (0 Bft)
18.02.2025 02:34 22,7 °C -9,7 °C 44 % 88 % 1028,9 hPa 0,0 l/m² 0,0 km/h (0 Bft) W-SW 249 ° 0 min 0 W/m² -11,3 °C -9,7 °C 0,0 km/h (0 Bft)
18.02.2025 02:36 22,7 °C -9,6 °C 44 % 88 % 1029,0 hPa 0,0 l/m² 0,7 km/h (0 Bft) W-SW 249 ° 0 min 0 W/m² -11,2 °C -9,6 °C 3,2 km/h (1 Bft)
18.02.2025 02:37 22,7 °C -9,5 °C 44 % 89 % 1028,9 hPa 0,0 l/m² 0,3 km/h (0 Bft) W-SW 249 ° 0 min 0 W/m² -11,0 °C -9,5 °C 3,2 km/h (1 Bft)
18.02.2025 02:39 22,7 °C -9,4 °C 44 % 89 % 1029,0 hPa 0,0 l/m² 1,1 km/h (1 Bft) W-SW 249 ° 0 min 0 W/m² -10,9 °C -9,4 °C 3,2 km/h (1 Bft)
18.02.2025 02:41 22,7 °C -9,3 °C 44 % 88 % 1029,0 hPa 0,0 l/m² 1,4 km/h (1 Bft) W-SW 250 ° 0 min 0 W/m² -10,9 °C -9,3 °C 3,2 km/h (1 Bft)
18.02.2025 02:43 22,7 °C -9,2 °C 44 % 89 % 1028,9 hPa 0,0 l/m² 0,2 km/h (0 Bft) W-SW 250 ° 0 min 0 W/m² -10,7 °C -9,2 °C 1,6 km/h (1 Bft)
18.02.2025 02:44 22,7 °C -9,2 °C 44 % 89 % 1028,9 hPa 0,0 l/m² 0,0 km/h (0 Bft) W-SW 250 ° 0 min 0 W/m² -10,7 °C -9,2 °C 0,0 km/h (0 Bft)
18.02.2025 02:45 22,6 °C -9,2 °C 44 % 89 % 1028,9 hPa 0,0 l/m² 0,0 km/h (0 Bft) W-SW 250 ° 0 min 0 W/m² -10,7 °C -9,2 °C 0,0 km/h (0 Bft)
18.02.2025 02:47 22,7 °C -9,1 °C 44 % 89 % 1028,9 hPa 0,0 l/m² 0,1 km/h (0 Bft) W 270 ° 0 min 0 W/m² -10,6 °C -9,1 °C 3,2 km/h (1 Bft)
18.02.2025 02:49 22,6 °C -9,0 °C 44 % 88 % 1028,9 hPa 0,0 l/m² 0,0 km/h (0 Bft) W 270 ° 0 min 0 W/m² -10,6 °C -9,0 °C 0,0 km/h (0 Bft)
18.02.2025 02:51 22,7 °C -9,1 °C 44 % 88 % 1028,9 hPa 0,0 l/m² 0,0 km/h (0 Bft) W 270 ° 0 min 0 W/m² -10,7 °C -9,1 °C 0,0 km/h (0 Bft)
18.02.2025 02:52 22,6 °C -9,1 °C 44 % 88 % 1028,9 hPa 0,0 l/m² 0,0 km/h (0 Bft) W 270 ° 0 min 0 W/m² -10,7 °C -9,1 °C 0,0 km/h (0 Bft)
18.02.2025 02:53 22,7 °C -9,2 °C 44 % 88 % 1029,0 hPa 0,0 l/m² 0,0 km/h (0 Bft) W 270 ° 0 min 0 W/m² -10,8 °C -9,2 °C 0,0 km/h (0 Bft)
18.02.2025 02:55 22,7 °C -9,3 °C 44 % 88 % 1029,0 hPa 0,0 l/m² 0,0 km/h (0 Bft) W 270 ° 0 min 0 W/m² -10,9 °C -9,3 °C 0,0 km/h (0 Bft)
18.02.2025 02:57 22,7 °C -9,3 °C 44 % 88 % 1028,9 hPa 0,0 l/m² 0,0 km/h (0 Bft) W 270 ° 0 min 0 W/m² -10,9 °C -9,3 °C 0,0 km/h (0 Bft)
18.02.2025 02:59 22,7 °C -9,4 °C 44 % 88 % 1028,9 hPa 0,0 l/m² 0,0 km/h (0 Bft) W 270 ° 0 min 0 W/m² -11,0 °C -9,4 °C 0,0 km/h (0 Bft)
18.02.2025 03:00 22,7 °C -9,4 °C 44 % 88 % 1028,9 hPa 0,0 l/m² 0,0 km/h (0 Bft) N 0 ° 0 min 0 W/m² -11,0 °C -9,4 °C 0,0 km/h (0 Bft)
18.02.2025 03:01 22,7 °C -9,4 °C 45 % 88 % 1028,9 hPa 0,0 l/m² 0,0 km/h (0 Bft) N 0 ° 0 min 0 W/m² -11,0 °C -9,4 °C 0,0 km/h (0 Bft)
18.02.2025 03:09 22,7 °C -9,2 °C 44 % 88 % 1028,9 hPa 0,0 l/m² 0,9 km/h (0 Bft) W 265 ° 0 min 0 W/m² -10,8 °C -9,2 °C 1,6 km/h (1 Bft)
18.02.2025 03:11 22,7 °C -9,2 °C 44 % 88 % 1028,9 hPa 0,0 l/m² 1,3 km/h (1 Bft) W 265 ° 0 min 0 W/m² -10,8 °C -9,2 °C 1,6 km/h (1 Bft)
18.02.2025 03:12 22,7 °C -9,2 °C 44 % 88 % 1028,9 hPa 0,0 l/m² 0,8 km/h (0 Bft) W 265 ° 0 min 0 W/m² -10,8 °C -9,2 °C 1,6 km/h (1 Bft)
18.02.2025 03:13 22,7 °C -9,1 °C 44 % 88 % 1028,8 hPa 0,0 l/m² 0,0 km/h (0 Bft) W 265 ° 0 min 0 W/m² -10,7 °C -9,1 °C 0,0 km/h (0 Bft)
18.02.2025 03:15 22,7 °C -9,1 °C 44 % 88 % 1028,9 hPa 0,0 l/m² 0,0 km/h (0 Bft) W 265 ° 0 min 0 W/m² -10,7 °C -9,1 °C 0,0 km/h (0 Bft)
18.02.2025 03:17 22,7 °C -9,2 °C 45 % 88 % 1028,8 hPa 0,0 l/m² 0,0 km/h (0 Bft) W 265 ° 0 min 0 W/m² -10,8 °C -9,2 °C 0,0 km/h (0 Bft)
18.02.2025 03:18 22,7 °C -9,2 °C 45 % 88 % 1028,8 hPa 0,0 l/m² 0,0 km/h (0 Bft) W 265 ° 0 min 0 W/m² -10,8 °C -9,2 °C 0,0 km/h (0 Bft)
18.02.2025 03:20 22,7 °C -9,3 °C 44 % 88 % 1028,8 hPa 0,0 l/m² 0,0 km/h (0 Bft) W 265 ° 0 min 0 W/m² -10,9 °C -9,3 °C 0,0 km/h (0 Bft)
18.02.2025 03:21 22,7 °C -9,3 °C 45 % 88 % 1028,7 hPa 0,0 l/m² 0,0 km/h (0 Bft) W 265 ° 0 min 0 W/m² -10,9 °C -9,3 °C 0,0 km/h (0 Bft)
18.02.2025 03:23 22,7 °C -9,5 °C 45 % 87 % 1028,7 hPa 0,0 l/m² 0,0 km/h (0 Bft) W 265 ° 0 min 0 W/m² -11,2 °C -9,5 °C 0,0 km/h (0 Bft)
18.02.2025 03:24 22,7 °C -9,6 °C 45 % 87 % 1028,7 hPa 0,0 l/m² 0,0 km/h (0 Bft) W 265 ° 0 min 0 W/m² -11,3 °C -9,6 °C 0,0 km/h (0 Bft)
18.02.2025 03:25 22,7 °C -9,7 °C 45 % 87 % 1028,8 hPa 0,0 l/m² 0,0 km/h (0 Bft) W 265 ° 0 min 0 W/m² -11,4 °C -9,7 °C 0,0 km/h (0 Bft)
18.02.2025 03:27 22,7 °C -9,8 °C 45 % 87 % 1028,8 hPa 0,0 l/m² 0,0 km/h (0 Bft) W 265 ° 0 min 0 W/m² -11,5 °C -9,8 °C 0,0 km/h (0 Bft)
18.02.2025 03:29 22,7 °C -9,9 °C 45 % 87 % 1028,8 hPa 0,0 l/m² 0,0 km/h (0 Bft) W 265 ° 0 min 0 W/m² -11,6 °C -9,9 °C 0,0 km/h (0 Bft)
18.02.2025 03:30 22,7 °C -9,9 °C 44 % 88 % 1028,8 hPa 0,0 l/m² 0,0 km/h (0 Bft) W 265 ° 0 min 0 W/m² -11,5 °C -9,9 °C 0,0 km/h (0 Bft)
18.02.2025 03:32 22,7 °C -9,9 °C 44 % 88 % 1028,8 hPa 0,0 l/m² 0,4 km/h (0 Bft) W 265 ° 0 min 0 W/m² -11,5 °C -9,9 °C 1,6 km/h (1 Bft)
18.02.2025 03:33 22,7 °C -9,9 °C 44 % 88 % 1028,8 hPa 0,0 l/m² 0,2 km/h (0 Bft) W 265 ° 0 min 0 W/m² -11,5 °C -9,9 °C 1,6 km/h (1 Bft)
18.02.2025 03:35 22,7 °C -9,8 °C 44 % 88 % 1028,7 hPa 0,0 l/m² 0,3 km/h (0 Bft) W 265 ° 0 min 0 W/m² -11,4 °C -9,8 °C 1,6 km/h (1 Bft)
18.02.2025 03:36 22,7 °C -9,8 °C 44 % 88 % 1028,8 hPa 0,0 l/m² 1,0 km/h (0 Bft) W 265 ° 0 min 0 W/m² -11,4 °C -9,8 °C 3,2 km/h (1 Bft)
18.02.2025 03:38 22,7 °C -9,7 °C 45 % 88 % 1028,7 hPa 0,0 l/m² 2,2 km/h (1 Bft) W 266 ° 0 min 0 W/m² -11,3 °C -9,7 °C 4,8 km/h (1 Bft)
18.02.2025 03:40 22,7 °C -9,7 °C 45 % 88 % 1028,8 hPa 0,0 l/m² 2,7 km/h (1 Bft) W 267 ° 0 min 0 W/m² -11,3 °C -9,7 °C 4,8 km/h (1 Bft)
18.02.2025 03:41 22,7 °C -9,7 °C 45 % 88 % 1028,8 hPa 0,0 l/m² 3,7 km/h (1 Bft) W 269 ° 0 min 0 W/m² -11,3 °C -9,7 °C 4,8 km/h (1 Bft)
18.02.2025 03:43 22,7 °C -9,7 °C 45 % 88 % 1028,9 hPa 0,0 l/m² 2,7 km/h (1 Bft) W 271 ° 0 min 0 W/m² -11,3 °C -9,7 °C 3,2 km/h (1 Bft)
18.02.2025 03:44 22,7 °C -9,6 °C 45 % 88 % 1028,8 hPa 0,0 l/m² 2,3 km/h (1 Bft) W 271 ° 0 min 0 W/m² -11,2 °C -9,6 °C 3,2 km/h (1 Bft)
18.02.2025 03:46 22,7 °C -9,6 °C 45 % 88 % 1028,8 hPa 0,0 l/m² 0,7 km/h (0 Bft) W 271 ° 0 min 0 W/m² -11,2 °C -9,6 °C 3,2 km/h (1 Bft)
18.02.2025 03:48 22,7 °C -9,5 °C 45 % 88 % 1028,8 hPa 0,0 l/m² 3,1 km/h (1 Bft) W 271 ° 0 min 0 W/m² -11,1 °C -9,5 °C 4,8 km/h (1 Bft)
18.02.2025 03:50 22,7 °C -9,5 °C 45 % 88 % 1028,9 hPa 0,0 l/m² 3,6 km/h (1 Bft) W 271 ° 0 min 0 W/m² -11,1 °C -9,5 °C 4,8 km/h (1 Bft)
18.02.2025 03:51 22,7 °C -9,6 °C 45 % 88 % 1028,8 hPa 0,0 l/m² 4,1 km/h (1 Bft) W 271 ° 0 min 0 W/m² -11,2 °C -9,6 °C 6,4 km/h (2 Bft)
18.02.2025 03:53 22,7 °C -9,5 °C 45 % 88 % 1028,9 hPa 0,0 l/m² 4,1 km/h (1 Bft) W 271 ° 0 min 0 W/m² -11,1 °C -9,5 °C 6,4 km/h (2 Bft)
18.02.2025 03:54 22,7 °C -9,6 °C 44 % 88 % 1028,9 hPa 0,0 l/m² 4,5 km/h (1 Bft) W 271 ° 0 min 0 W/m² -11,2 °C -9,6 °C 6,4 km/h (2 Bft)
18.02.2025 03:55 22,7 °C -9,5 °C 45 % 88 % 1028,9 hPa 0,0 l/m² 3,6 km/h (1 Bft) W 271 ° 0 min 0 W/m² -11,1 °C -9,5 °C 4,8 km/h (1 Bft)
18.02.2025 03:57 22,7 °C -9,5 °C 45 % 88 % 1028,9 hPa 0,0 l/m² 4,0 km/h (1 Bft) W 271 ° 0 min 0 W/m² -11,1 °C -9,5 °C 6,4 km/h (2 Bft)
18.02.2025 03:59 22,7 °C -9,6 °C 45 % 88 % 1028,8 hPa 0,0 l/m² 4,3 km/h (1 Bft) W 271 ° 0 min 0 W/m² -11,2 °C -9,6 °C 6,4 km/h (2 Bft)
18.02.2025 04:01 22,7 °C -9,5 °C 45 % 88 % 1028,9 hPa 0,0 l/m² 4,5 km/h (1 Bft) W 271 ° 0 min 0 W/m² -11,1 °C -9,5 °C 6,4 km/h (2 Bft)
18.02.2025 04:02 22,7 °C -9,5 °C 45 % 88 % 1028,9 hPa 0,0 l/m² 2,7 km/h (1 Bft) W 271 ° 0 min 0 W/m² -11,1 °C -9,5 °C 4,8 km/h (1 Bft)
18.02.2025 04:03 22,7 °C -9,5 °C 45 % 88 % 1028,9 hPa 0,0 l/m² 3,0 km/h (1 Bft) W 271 ° 0 min 0 W/m² -11,1 °C -9,5 °C 4,8 km/h (1 Bft)
18.02.2025 04:04 22,7 °C -9,4 °C 45 % 88 % 1028,8 hPa 0,0 l/m² 3,6 km/h (1 Bft) W 271 ° 0 min 0 W/m² -11,0 °C -9,4 °C 4,8 km/h (1 Bft)
18.02.2025 04:06 22,7 °C -9,5 °C 44 % 88 % 1028,9 hPa 0,0 l/m² 3,4 km/h (1 Bft) W 271 ° 0 min 0 W/m² -11,1 °C -9,5 °C 4,8 km/h (1 Bft)
18.02.2025 04:08 22,7 °C -9,4 °C 44 % 88 % 1028,9 hPa 0,0 l/m² 3,9 km/h (1 Bft) W 271 ° 0 min 0 W/m² -11,0 °C -9,4 °C 4,8 km/h (1 Bft)
18.02.2025 04:10 22,7 °C -9,5 °C 44 % 88 % 1029,0 hPa 0,0 l/m² 3,6 km/h (1 Bft) W 271 ° 0 min 0 W/m² -11,1 °C -9,5 °C 4,8 km/h (1 Bft)
18.02.2025 04:11 22,7 °C -9,4 °C 44 % 88 % 1029,0 hPa 0,0 l/m² 3,4 km/h (1 Bft) W 271 ° 0 min 0 W/m² -11,0 °C -9,4 °C 4,8 km/h (1 Bft)
18.02.2025 04:13 22,7 °C -9,4 °C 45 % 88 % 1029,0 hPa 0,0 l/m² 2,4 km/h (1 Bft) W 271 ° 0 min 0 W/m² -11,0 °C -9,4 °C 4,8 km/h (1 Bft)
18.02.2025 04:14 22,7 °C -9,4 °C 44 % 88 % 1028,9 hPa 0,0 l/m² 1,7 km/h (1 Bft) W 271 ° 0 min 0 W/m² -11,0 °C -9,4 °C 3,2 km/h (1 Bft)
18.02.2025 04:16 22,7 °C -9,4 °C 45 % 88 % 1028,9 hPa 0,0 l/m² 2,1 km/h (1 Bft) W 271 ° 0 min 0 W/m² -11,0 °C -9,4 °C 4,8 km/h (1 Bft)
18.02.2025 04:18 22,7 °C -9,4 °C 44 % 88 % 1028,9 hPa 0,0 l/m² 2,0 km/h (1 Bft) W 271 ° 0 min 0 W/m² -11,0 °C -9,4 °C 3,2 km/h (1 Bft)
18.02.2025 04:20 22,7 °C -9,4 °C 44 % 88 % 1028,9 hPa 0,0 l/m² 1,5 km/h (1 Bft) W 271 ° 0 min 0 W/m² -11,0 °C -9,4 °C 3,2 km/h (1 Bft)
18.02.2025 04:21 22,7 °C -9,4 °C 44 % 88 % 1029,0 hPa 0,0 l/m² 2,5 km/h (1 Bft) W 271 ° 0 min 0 W/m² -11,0 °C -9,4 °C 3,2 km/h (1 Bft)
18.02.2025 04:23 22,7 °C -9,4 °C 44 % 88 % 1029,0 hPa 0,0 l/m² 1,2 km/h (1 Bft) W 271 ° 0 min 0 W/m² -11,0 °C -9,4 °C 3,2 km/h (1 Bft)
18.02.2025 04:24 22,7 °C -9,4 °C 45 % 88 % 1029,0 hPa 0,0 l/m² 1,6 km/h (1 Bft) W 271 ° 0 min 0 W/m² -11,0 °C -9,4 °C 4,8 km/h (1 Bft)
18.02.2025 04:26 22,7 °C -9,5 °C 44 % 88 % 1029,0 hPa 0,0 l/m² 2,7 km/h (1 Bft) W 271 ° 0 min 0 W/m² -11,1 °C -9,5 °C 4,8 km/h (1 Bft)
18.02.2025 04:28 22,7 °C -9,6 °C 44 % 88 % 1029,1 hPa 0,0 l/m² 3,1 km/h (1 Bft) W 271 ° 0 min 0 W/m² -11,2 °C -9,6 °C 4,8 km/h (1 Bft)
18.02.2025 04:30 22,7 °C -9,6 °C 44 % 88 % 1029,0 hPa 0,0 l/m² 2,5 km/h (1 Bft) W 271 ° 0 min 0 W/m² -11,2 °C -9,6 °C 4,8 km/h (1 Bft)
18.02.2025 04:31 22,6 °C -9,6 °C 44 % 88 % 1029,1 hPa 0,0 l/m² 3,8 km/h (1 Bft) W 271 ° 0 min 0 W/m² -11,2 °C -9,6 °C 4,8 km/h (1 Bft)
18.02.2025 04:33 22,6 °C -9,6 °C 44 % 88 % 1029,1 hPa 0,0 l/m² 3,4 km/h (1 Bft) W 271 ° 0 min 0 W/m² -11,2 °C -9,6 °C 4,8 km/h (1 Bft)
18.02.2025 04:34 22,7 °C -9,5 °C 44 % 88 % 1029,2 hPa 0,0 l/m² 4,2 km/h (1 Bft) W 271 ° 0 min 0 W/m² -11,1 °C -9,5 °C 6,4 km/h (2 Bft)
18.02.2025 04:36 22,7 °C -9,5 °C 44 % 88 % 1029,2 hPa 0,0 l/m² 2,6 km/h (1 Bft) W 271 ° 0 min 0 W/m² -11,1 °C -9,5 °C 4,8 km/h (1 Bft)
18.02.2025 04:38 22,6 °C -9,5 °C 44 % 88 % 1029,2 hPa 0,0 l/m² 2,4 km/h (1 Bft) W 271 ° 0 min 0 W/m² -11,1 °C -9,5 °C 4,8 km/h (1 Bft)
18.02.2025 04:39 22,6 °C -9,5 °C 44 % 88 % 1029,1 hPa 0,0 l/m² 1,9 km/h (1 Bft) W 271 ° 0 min 0 W/m² -11,1 °C -9,5 °C 3,2 km/h (1 Bft)
18.02.2025 04:41 22,6 °C -9,4 °C 44 % 88 % 1029,1 hPa 0,0 l/m² 2,6 km/h (1 Bft) W 271 ° 0 min 0 W/m² -11,0 °C -9,4 °C 3,2 km/h (1 Bft)
18.02.2025 04:42 22,6 °C -9,4 °C 44 % 88 % 1029,2 hPa 0,0 l/m² 2,6 km/h (1 Bft) W 271 ° 0 min 0 W/m² -11,0 °C -9,4 °C 4,8 km/h (1 Bft)
18.02.2025 04:43 22,6 °C -9,4 °C 44 % 88 % 1029,2 hPa 0,0 l/m² 2,9 km/h (1 Bft) W 271 ° 0 min 0 W/m² -11,0 °C -9,4 °C 4,8 km/h (1 Bft)
18.02.2025 04:44 22,6 °C -9,4 °C 44 % 88 % 1029,1 hPa 0,0 l/m² 2,2 km/h (1 Bft) W 271 ° 0 min 0 W/m² -11,0 °C -9,4 °C 3,2 km/h (1 Bft)
18.02.2025 04:46 22,6 °C -9,4 °C 44 % 88 % 1029,2 hPa 0,0 l/m² 3,7 km/h (1 Bft) W 271 ° 0 min 0 W/m² -11,0 °C -9,4 °C 4,8 km/h (1 Bft)
18.02.2025 04:48 22,6 °C -9,4 °C 45 % 88 % 1029,1 hPa 0,0 l/m² 3,8 km/h (1 Bft) W 271 ° 0 min 0 W/m² -11,0 °C -9,4 °C 6,4 km/h (2 Bft)
18.02.2025 04:50 22,6 °C -9,4 °C 45 % 88 % 1029,3 hPa 0,0 l/m² 3,7 km/h (1 Bft) W 271 ° 0 min 0 W/m² -11,0 °C -9,4 °C 6,4 km/h (2 Bft)
18.02.2025 04:51 22,7 °C -9,4 °C 45 % 88 % 1029,3 hPa 0,0 l/m² 3,6 km/h (1 Bft) W 271 ° 0 min 0 W/m² -11,0 °C -9,4 °C 4,8 km/h (1 Bft)
18.02.2025 04:53 22,7 °C -9,4 °C 45 % 88 % 1029,3 hPa 0,0 l/m² 1,3 km/h (1 Bft) W 271 ° 0 min 0 W/m² -11,0 °C -9,4 °C 4,8 km/h (1 Bft)
18.02.2025 04:54 22,7 °C -9,4 °C 45 % 88 % 1029,3 hPa 0,0 l/m² 0,0 km/h (0 Bft) W 271 ° 0 min 0 W/m² -11,0 °C -9,4 °C 0,0 km/h (0 Bft)
18.02.2025 04:55 22,6 °C -9,3 °C 45 % 88 % 1029,2 hPa 0,0 l/m² 0,4 km/h (0 Bft) W 271 ° 0 min 0 W/m² -10,9 °C -9,3 °C 1,6 km/h (1 Bft)
18.02.2025 04:57 22,7 °C -9,3 °C 45 % 88 % 1029,2 hPa 0,0 l/m² 0,7 km/h (0 Bft) W 271 ° 0 min 0 W/m² -10,9 °C -9,3 °C 3,2 km/h (1 Bft)
18.02.2025 04:59 22,6 °C -9,4 °C 45 % 88 % 1029,3 hPa 0,0 l/m² 0,1 km/h (0 Bft) W 271 ° 0 min 0 W/m² -11,0 °C -9,4 °C 1,6 km/h (1 Bft)
18.02.2025 05:00 22,7 °C -9,4 °C 45 % 88 % 1029,3 hPa 0,0 l/m² 0,0 km/h (0 Bft) W 271 ° 0 min 0 W/m² -11,0 °C -9,4 °C 0,0 km/h (0 Bft)
18.02.2025 05:02 22,6 °C -9,7 °C 45 % 87 % 1029,3 hPa 0,0 l/m² 0,0 km/h (0 Bft) W 271 ° 0 min 0 W/m² -11,4 °C -9,7 °C 0,0 km/h (0 Bft)
18.02.2025 05:03 22,6 °C -9,8 °C 45 % 87 % 1029,3 hPa 0,0 l/m² 0,0 km/h (0 Bft) W 271 ° 0 min 0 W/m² -11,5 °C -9,8 °C 0,0 km/h (0 Bft)
18.02.2025 05:04 22,6 °C -9,8 °C 45 % 87 % 1029,4 hPa 0,0 l/m² 0,0 km/h (0 Bft) W 271 ° 0 min 0 W/m² -11,5 °C -9,8 °C 0,0 km/h (0 Bft)
18.02.2025 05:06 22,7 °C -10,1 °C 45 % 87 % 1029,3 hPa 0,0 l/m² 0,0 km/h (0 Bft) W 271 ° 0 min 0 W/m² -11,8 °C -10,1 °C 0,0 km/h (0 Bft)
18.02.2025 05:08 22,6 °C -10,2 °C 45 % 87 % 1029,5 hPa 0,0 l/m² 0,0 km/h (0 Bft) W 271 ° 0 min 0 W/m² -11,9 °C -10,2 °C 0,0 km/h (0 Bft)
18.02.2025 05:10 22,6 °C -10,2 °C 45 % 87 % 1029,4 hPa 0,0 l/m² 0,0 km/h (0 Bft) W 271 ° 0 min 0 W/m² -11,9 °C -10,2 °C 0,0 km/h (0 Bft)
18.02.2025 05:11 22,7 °C -10,2 °C 45 % 87 % 1029,5 hPa 0,0 l/m² 0,0 km/h (0 Bft) W 271 ° 0 min 0 W/m² -11,9 °C -10,2 °C 0,0 km/h (0 Bft)
18.02.2025 05:13 22,6 °C -10,1 °C 44 % 88 % 1029,4 hPa 0,0 l/m² 0,0 km/h (0 Bft) W 271 ° 0 min 0 W/m² -11,7 °C -10,1 °C 0,0 km/h (0 Bft)
18.02.2025 05:14 22,6 °C -10,1 °C 44 % 88 % 1029,4 hPa 0,0 l/m² 0,0 km/h (0 Bft) W 271 ° 0 min 0 W/m² -11,7 °C -10,1 °C 0,0 km/h (0 Bft)
18.02.2025 05:16 22,6 °C -10,0 °C 44 % 88 % 1029,4 hPa 0,0 l/m² 0,0 km/h (0 Bft) W 271 ° 0 min 0 W/m² -11,6 °C -10,0 °C 0,0 km/h (0 Bft)
18.02.2025 05:18 22,6 °C -10,0 °C 44 % 88 % 1029,4 hPa 0,0 l/m² 0,0 km/h (0 Bft) W 271 ° 0 min 0 W/m² -11,6 °C -10,0 °C 0,0 km/h (0 Bft)
18.02.2025 05:20 22,6 °C -9,9 °C 44 % 88 % 1029,3 hPa 0,0 l/m² 0,0 km/h (0 Bft) W 271 ° 0 min 0 W/m² -11,5 °C -9,9 °C 0,0 km/h (0 Bft)
18.02.2025 05:21 22,6 °C -9,9 °C 44 % 88 % 1029,4 hPa 0,0 l/m² 0,0 km/h (0 Bft) W 271 ° 0 min 0 W/m² -11,5 °C -9,9 °C 0,0 km/h (0 Bft)
18.02.2025 05:23 22,6 °C -9,9 °C 44 % 88 % 1029,4 hPa 0,0 l/m² 0,0 km/h (0 Bft) W 271 ° 0 min 0 W/m² -11,5 °C -9,9 °C 0,0 km/h (0 Bft)
18.02.2025 05:24 22,6 °C -9,9 °C 44 % 88 % 1029,4 hPa 0,0 l/m² 0,0 km/h (0 Bft) W 271 ° 0 min 0 W/m² -11,5 °C -9,9 °C 0,0 km/h (0 Bft)
18.02.2025 05:26 22,6 °C -10,1 °C 44 % 88 % 1029,5 hPa 0,0 l/m² 0,0 km/h (0 Bft) W 271 ° 0 min 0 W/m² -11,7 °C -10,1 °C 0,0 km/h (0 Bft)
18.02.2025 05:28 22,6 °C -10,1 °C 44 % 87 % 1029,5 hPa 0,0 l/m² 0,0 km/h (0 Bft) W 271 ° 0 min 0 W/m² -11,8 °C -10,1 °C 0,0 km/h (0 Bft)
18.02.2025 05:30 22,6 °C -10,0 °C 44 % 88 % 1029,5 hPa 0,0 l/m² 0,0 km/h (0 Bft) W 271 ° 0 min 0 W/m² -11,6 °C -10,0 °C 0,0 km/h (0 Bft)
18.02.2025 05:31 22,6 °C -10,0 °C 44 % 88 % 1029,4 hPa 0,0 l/m² 0,0 km/h (0 Bft) W 271 ° 0 min 0 W/m² -11,6 °C -10,0 °C 0,0 km/h (0 Bft)
18.02.2025 05:33 22,6 °C -9,9 °C 44 % 88 % 1029,4 hPa 0,0 l/m² 0,0 km/h (0 Bft) W 271 ° 0 min 0 W/m² -11,5 °C -9,9 °C 0,0 km/h (0 Bft)
18.02.2025 05:34 22,6 °C -9,9 °C 44 % 88 % 1029,4 hPa 0,0 l/m² 0,0 km/h (0 Bft) W 271 ° 0 min 0 W/m² -11,5 °C -9,9 °C 0,0 km/h (0 Bft)
18.02.2025 05:36 22,6 °C -9,9 °C 44 % 88 % 1029,4 hPa 0,0 l/m² 0,0 km/h (0 Bft) W 271 ° 0 min 0 W/m² -11,5 °C -9,9 °C 0,0 km/h (0 Bft)
18.02.2025 05:38 22,6 °C -9,9 °C 44 % 88 % 1029,3 hPa 0,0 l/m² 0,0 km/h (0 Bft) W 271 ° 0 min 0 W/m² -11,5 °C -9,9 °C 0,0 km/h (0 Bft)
18.02.2025 05:40 22,6 °C -10,0 °C 44 % 88 % 1029,3 hPa 0,0 l/m² 0,0 km/h (0 Bft) W 271 ° 0 min 0 W/m² -11,6 °C -10,0 °C 0,0 km/h (0 Bft)
18.02.2025 05:41 22,6 °C -10,1 °C 44 % 88 % 1029,4 hPa 0,0 l/m² 0,0 km/h (0 Bft) W 271 ° 0 min 0 W/m² -11,7 °C -10,1 °C 0,0 km/h (0 Bft)
18.02.2025 05:43 22,6 °C -10,2 °C 44 % 87 % 1029,4 hPa 0,0 l/m² 0,0 km/h (0 Bft) W 271 ° 0 min 0 W/m² -11,9 °C -10,2 °C 0,0 km/h (0 Bft)
18.02.2025 05:44 22,6 °C -10,2 °C 44 % 87 % 1029,4 hPa 0,0 l/m² 0,0 km/h (0 Bft) W 271 ° 0 min 0 W/m² -11,9 °C -10,2 °C 0,0 km/h (0 Bft)
18.02.2025 05:46 22,6 °C -10,2 °C 44 % 88 % 1029,4 hPa 0,0 l/m² 0,0 km/h (0 Bft) W 271 ° 0 min 0 W/m² -11,8 °C -10,2 °C 0,0 km/h (0 Bft)
18.02.2025 05:48 22,6 °C -10,2 °C 44 % 88 % 1029,4 hPa 0,0 l/m² 0,0 km/h (0 Bft) W 271 ° 0 min 0 W/m² -11,8 °C -10,2 °C 0,0 km/h (0 Bft)
18.02.2025 05:50 22,6 °C -10,2 °C 44 % 88 % 1029,5 hPa 0,0 l/m² 0,1 km/h (0 Bft) W 271 ° 0 min 0 W/m² -11,8 °C -10,2 °C 1,6 km/h (1 Bft)
18.02.2025 05:51 22,6 °C -10,2 °C 44 % 88 % 1029,5 hPa 0,0 l/m² 0,0 km/h (0 Bft) W 271 ° 0 min 0 W/m² -11,8 °C -10,2 °C 0,0 km/h (0 Bft)
18.02.2025 05:53 22,6 °C -10,1 °C 44 % 88 % 1029,5 hPa 0,0 l/m² 0,0 km/h (0 Bft) W 271 ° 0 min 0 W/m² -11,7 °C -10,1 °C 0,0 km/h (0 Bft)
18.02.2025 05:54 22,6 °C -10,1 °C 44 % 88 % 1029,5 hPa 0,0 l/m² 0,0 km/h (0 Bft) W 271 ° 0 min 0 W/m² -11,7 °C -10,1 °C 0,0 km/h (0 Bft)
18.02.2025 05:56 22,6 °C -9,9 °C 44 % 88 % 1029,5 hPa 0,0 l/m² 0,0 km/h (0 Bft) W 271 ° 0 min 0 W/m² -11,5 °C -9,9 °C 0,0 km/h (0 Bft)
18.02.2025 05:58 22,6 °C -9,9 °C 44 % 88 % 1029,6 hPa 0,0 l/m² 0,0 km/h (0 Bft) W 271 ° 0 min 0 W/m² -11,5 °C -9,9 °C 1,6 km/h (1 Bft)
18.02.2025 06:00 22,6 °C -10,0 °C 44 % 88 % 1029,6 hPa 0,0 l/m² 0,1 km/h (0 Bft) W 271 ° 0 min 0 W/m² -11,6 °C -10,0 °C 1,6 km/h (1 Bft)
18.02.2025 06:01 22,6 °C -10,2 °C 44 % 88 % 1029,6 hPa 0,0 l/m² 0,5 km/h (0 Bft) W 271 ° 0 min 0 W/m² -11,8 °C -10,2 °C 1,6 km/h (1 Bft)
18.02.2025 06:03 22,6 °C -10,3 °C 44 % 87 % 1029,7 hPa 0,0 l/m² 0,2 km/h (0 Bft) W 271 ° 0 min 0 W/m² -12,0 °C -10,3 °C 1,6 km/h (1 Bft)
18.02.2025 06:04 22,6 °C -10,3 °C 44 % 88 % 1029,7 hPa 0,0 l/m² 0,7 km/h (0 Bft) W 271 ° 0 min 0 W/m² -11,9 °C -10,3 °C 3,2 km/h (1 Bft)
18.02.2025 06:06 22,6 °C -10,4 °C 44 % 87 % 1029,6 hPa 0,0 l/m² 0,4 km/h (0 Bft) W 271 ° 0 min 0 W/m² -12,1 °C -10,4 °C 1,6 km/h (1 Bft)
18.02.2025 06:08 22,6 °C -10,5 °C 44 % 88 % 1029,7 hPa 0,0 l/m² 1,0 km/h (0 Bft) W 271 ° 0 min 0 W/m² -12,1 °C -10,5 °C 3,2 km/h (1 Bft)
18.02.2025 06:10 22,6 °C -10,4 °C 44 % 88 % 1029,6 hPa 0,0 l/m² 0,6 km/h (0 Bft) W 271 ° 0 min 0 W/m² -12,0 °C -10,4 °C 1,6 km/h (1 Bft)
18.02.2025 06:11 22,6 °C -10,4 °C 44 % 88 % 1029,6 hPa 0,0 l/m² 0,4 km/h (0 Bft) W 271 ° 0 min 0 W/m² -12,0 °C -10,4 °C 1,6 km/h (1 Bft)
18.02.2025 06:13 22,6 °C -10,2 °C 44 % 88 % 1029,6 hPa 0,0 l/m² 1,8 km/h (1 Bft) W 271 ° 0 min 0 W/m² -11,8 °C -10,2 °C 3,2 km/h (1 Bft)
18.02.2025 06:14 22,6 °C -10,2 °C 44 % 88 % 1029,6 hPa 0,0 l/m² 1,1 km/h (1 Bft) W 271 ° 0 min 0 W/m² -11,8 °C -10,2 °C 1,6 km/h (1 Bft)
18.02.2025 06:16 22,6 °C -10,1 °C 44 % 88 % 1029,6 hPa 0,0 l/m² 0,8 km/h (0 Bft) W 271 ° 0 min 0 W/m² -11,7 °C -10,1 °C 1,6 km/h (1 Bft)
18.02.2025 06:18 22,6 °C -10,1 °C 44 % 88 % 1029,7 hPa 0,0 l/m² 1,8 km/h (1 Bft) W 271 ° 0 min 0 W/m² -11,7 °C -10,1 °C 3,2 km/h (1 Bft)
18.02.2025 06:19 22,6 °C -10,1 °C 44 % 88 % 1029,6 hPa 0,0 l/m² 1,4 km/h (1 Bft) W 271 ° 0 min 0 W/m² -11,7 °C -10,1 °C 3,2 km/h (1 Bft)
18.02.2025 06:21 22,6 °C -10,1 °C 44 % 88 % 1029,7 hPa 0,0 l/m² 1,4 km/h (1 Bft) W 271 ° 0 min 0 W/m² -11,7 °C -10,1 °C 3,2 km/h (1 Bft)
18.02.2025 06:22 22,6 °C -10,1 °C 44 % 88 % 1029,7 hPa 0,0 l/m² 2,0 km/h (1 Bft) W 271 ° 0 min 0 W/m² -11,7 °C -10,1 °C 3,2 km/h (1 Bft)
18.02.2025 06:23 22,6 °C -10,1 °C 44 % 88 % 1029,7 hPa 0,0 l/m² 1,9 km/h (1 Bft) W 271 ° 0 min 0 W/m² -11,7 °C -10,1 °C 3,2 km/h (1 Bft)
18.02.2025 06:24 22,6 °C -10,1 °C 44 % 88 % 1029,7 hPa 0,0 l/m² 0,6 km/h (0 Bft) W 271 ° 0 min 0 W/m² -11,7 °C -10,1 °C 1,6 km/h (1 Bft)
18.02.2025 06:26 22,6 °C -10,1 °C 44 % 88 % 1029,7 hPa 0,0 l/m² 0,4 km/h (0 Bft) W 271 ° 0 min 0 W/m² -11,7 °C -10,1 °C 3,2 km/h (1 Bft)
18.02.2025 06:28 22,6 °C -10,1 °C 44 % 88 % 1029,6 hPa 0,0 l/m² 3,4 km/h (1 Bft) W 271 ° 0 min 0 W/m² -11,7 °C -10,1 °C 4,8 km/h (1 Bft)
18.02.2025 06:30 22,6 °C -10,1 °C 44 % 88 % 1029,6 hPa 0,0 l/m² 2,5 km/h (1 Bft) W 271 ° 0 min 0 W/m² -11,7 °C -10,1 °C 4,8 km/h (1 Bft)
18.02.2025 06:31 22,6 °C -10,2 °C 44 % 88 % 1029,7 hPa 0,0 l/m² 0,2 km/h (0 Bft) W 271 ° 0 min 0 W/m² -11,8 °C -10,2 °C 1,6 km/h (1 Bft)
18.02.2025 06:33 22,6 °C -10,2 °C 44 % 88 % 1029,7 hPa 0,0 l/m² 0,0 km/h (0 Bft) W 271 ° 0 min 0 W/m² -11,8 °C -10,2 °C 0,0 km/h (0 Bft)
18.02.2025 06:34 22,6 °C -10,2 °C 44 % 88 % 1029,7 hPa 0,0 l/m² 0,0 km/h (0 Bft) W 271 ° 0 min 0 W/m² -11,8 °C -10,2 °C 0,0 km/h (0 Bft)
18.02.2025 06:36 22,6 °C -10,2 °C 44 % 88 % 1029,6 hPa 0,0 l/m² 0,0 km/h (0 Bft) W 271 ° 0 min 0 W/m² -11,8 °C -10,2 °C 0,0 km/h (0 Bft)
18.02.2025 06:38 22,6 °C -10,3 °C 44 % 88 % 1029,6 hPa 0,0 l/m² 0,0 km/h (0 Bft) W 271 ° 0 min 0 W/m² -11,9 °C -10,3 °C 0,0 km/h (0 Bft)
18.02.2025 06:40 22,6 °C -10,3 °C 44 % 88 % 1029,6 hPa 0,0 l/m² 0,0 km/h (0 Bft) W 271 ° 0 min 0 W/m² -11,9 °C -10,3 °C 0,0 km/h (0 Bft)
18.02.2025 06:41 22,6 °C -10,4 °C 43 % 88 % 1029,6 hPa 0,0 l/m² 0,0 km/h (0 Bft) W 271 ° 0 min 0 W/m² -12,0 °C -10,4 °C 0,0 km/h (0 Bft)
18.02.2025 06:43 22,6 °C -10,4 °C 43 % 88 % 1029,6 hPa 0,0 l/m² 0,0 km/h (0 Bft) W 271 ° 0 min 0 W/m² -12,0 °C -10,4 °C 0,0 km/h (0 Bft)
18.02.2025 06:44 22,6 °C -10,4 °C 43 % 88 % 1029,7 hPa 0,0 l/m² 0,0 km/h (0 Bft) W 271 ° 0 min 0 W/m² -12,0 °C -10,4 °C 0,0 km/h (0 Bft)
18.02.2025 06:46 22,6 °C -10,4 °C 43 % 88 % 1029,6 hPa 0,0 l/m² 0,0 km/h (0 Bft) W 271 ° 0 min 0 W/m² -12,0 °C -10,4 °C 0,0 km/h (0 Bft)
18.02.2025 06:48 22,6 °C -10,5 °C 43 % 88 % 1029,6 hPa 0,0 l/m² 0,0 km/h (0 Bft) W 271 ° 0 min 0 W/m² -12,1 °C -10,5 °C 0,0 km/h (0 Bft)
18.02.2025 06:50 22,6 °C -10,4 °C 43 % 88 % 1029,7 hPa 0,0 l/m² 0,0 km/h (0 Bft) W 271 ° 0 min 0 W/m² -12,0 °C -10,4 °C 0,0 km/h (0 Bft)
18.02.2025 06:51 22,6 °C -10,4 °C 39 % 88 % 1029,6 hPa 0,0 l/m² 0,0 km/h (0 Bft) W 271 ° 0 min 0 W/m² -12,0 °C -10,4 °C 0,0 km/h (0 Bft)
18.02.2025 06:53 22,5 °C -10,4 °C 38 % 88 % 1029,6 hPa 0,0 l/m² 0,0 km/h (0 Bft) W 271 ° 0 min 0 W/m² -12,0 °C -10,4 °C 0,0 km/h (0 Bft)
18.02.2025 06:54 22,4 °C -10,4 °C 36 % 88 % 1029,6 hPa 0,0 l/m² 0,0 km/h (0 Bft) W 271 ° 0 min 0 W/m² -12,0 °C -10,4 °C 0,0 km/h (0 Bft)
18.02.2025 06:55 22,4 °C -10,4 °C 36 % 88 % 1029,5 hPa 0,0 l/m² 0,0 km/h (0 Bft) W 271 ° 0 min 0 W/m² -12,0 °C -10,4 °C 0,0 km/h (0 Bft)
18.02.2025 06:57 22,4 °C -10,4 °C 37 % 88 % 1029,6 hPa 0,0 l/m² 0,0 km/h (0 Bft) W 271 ° 0 min 0 W/m² -12,0 °C -10,4 °C 0,0 km/h (0 Bft)
18.02.2025 06:58 22,3 °C -10,4 °C 37 % 88 % 1029,6 hPa 0,0 l/m² 0,0 km/h (0 Bft) W 271 ° 0 min 0 W/m² -12,0 °C -10,4 °C 0,0 km/h (0 Bft)
18.02.2025 07:00 22,4 °C -10,4 °C 37 % 88 % 1029,6 hPa 0,0 l/m² 0,0 km/h (0 Bft) W 271 ° 0 min 0 W/m² -12,0 °C -10,4 °C 0,0 km/h (0 Bft)
18.02.2025 07:01 22,3 °C -10,5 °C 38 % 88 % 1029,6 hPa 0,0 l/m² 1,0 km/h (0 Bft) W 271 ° 0 min 0 W/m² -12,1 °C -10,5 °C 3,2 km/h (1 Bft)
18.02.2025 07:03 22,3 °C -10,4 °C 38 % 88 % 1029,6 hPa 0,0 l/m² 0,6 km/h (0 Bft) W 271 ° 0 min 0 W/m² -12,0 °C -10,4 °C 1,6 km/h (1 Bft)
18.02.2025 07:04 22,3 °C -10,5 °C 38 % 88 % 1029,7 hPa 0,0 l/m² 2,6 km/h (1 Bft) W 271 ° 0 min 0 W/m² -12,1 °C -10,5 °C 3,2 km/h (1 Bft)
18.02.2025 07:06 22,3 °C -10,6 °C 38 % 88 % 1029,7 hPa 0,0 l/m² 3,0 km/h (1 Bft) W 271 ° 0 min 0 W/m² -12,2 °C -10,6 °C 4,8 km/h (1 Bft)
18.02.2025 07:08 22,3 °C -10,6 °C 38 % 88 % 1029,7 hPa 0,0 l/m² 1,8 km/h (1 Bft) W 271 ° 0 min 0 W/m² -12,2 °C -10,6 °C 3,2 km/h (1 Bft)
18.02.2025 07:10 22,3 °C -10,6 °C 38 % 88 % 1029,8 hPa 0,0 l/m² 1,6 km/h (1 Bft) W 271 ° 0 min 0 W/m² -12,2 °C -10,6 °C 3,2 km/h (1 Bft)
18.02.2025 07:11 22,3 °C -10,6 °C 38 % 88 % 1029,9 hPa 0,0 l/m² 0,8 km/h (0 Bft) W 271 ° 0 min 0 W/m² -12,2 °C -10,6 °C 3,2 km/h (1 Bft)
18.02.2025 07:13 22,3 °C -10,6 °C 38 % 88 % 1029,9 hPa 0,0 l/m² 1,2 km/h (1 Bft) W 271 ° 0 min 0 W/m² -12,2 °C -10,6 °C 3,2 km/h (1 Bft)
18.02.2025 07:14 22,3 °C -10,6 °C 38 % 88 % 1029,8 hPa 0,0 l/m² 1,3 km/h (1 Bft) W 271 ° 0 min 0 W/m² -12,2 °C -10,6 °C 1,6 km/h (1 Bft)
18.02.2025 07:15 22,3 °C -10,6 °C 39 % 88 % 1029,8 hPa 0,0 l/m² 0,1 km/h (0 Bft) W 271 ° 0 min 0 W/m² -12,2 °C -10,6 °C 1,6 km/h (1 Bft)
18.02.2025 07:17 22,3 °C -10,6 °C 39 % 88 % 1029,9 hPa 0,0 l/m² 0,0 km/h (0 Bft) W 271 ° 0 min 0 W/m² -12,2 °C -10,6 °C 1,6 km/h (1 Bft)
18.02.2025 07:19 22,3 °C -10,6 °C 39 % 88 % 1029,8 hPa 0,0 l/m² 0,2 km/h (0 Bft) W 271 ° 0 min 5 W/m² -12,2 °C -10,6 °C 1,6 km/h (1 Bft)
18.02.2025 07:21 22,2 °C -10,6 °C 38 % 88 % 1030,0 hPa 0,0 l/m² 0,0 km/h (0 Bft) W 271 ° 0 min 5 W/m² -12,2 °C -10,6 °C 1,6 km/h (1 Bft)
18.02.2025 07:22 22,2 °C -10,6 °C 38 % 88 % 1029,9 hPa 0,0 l/m² 0,0 km/h (0 Bft) W 271 ° 0 min 5 W/m² -12,2 °C -10,6 °C 0,0 km/h (0 Bft)
18.02.2025 07:23 22,3 °C -10,7 °C 38 % 88 % 1029,9 hPa 0,0 l/m² 0,0 km/h (0 Bft) W 271 ° 0 min 5 W/m² -12,3 °C -10,7 °C 0,0 km/h (0 Bft)
18.02.2025 07:24 22,2 °C -10,7 °C 38 % 88 % 1029,9 hPa 0,0 l/m² 0,0 km/h (0 Bft) W 271 ° 0 min 5 W/m² -12,3 °C -10,7 °C 0,0 km/h (0 Bft)
18.02.2025 07:26 22,3 °C -10,7 °C 39 % 88 % 1029,9 hPa 0,0 l/m² 0,0 km/h (0 Bft) W 271 ° 0 min 7 W/m² -12,3 °C -10,7 °C 0,0 km/h (0 Bft)
18.02.2025 07:28 22,2 °C -10,7 °C 39 % 88 % 1029,9 hPa 0,0 l/m² 0,0 km/h (0 Bft) W 271 ° 0 min 7 W/m² -12,3 °C -10,7 °C 0,0 km/h (0 Bft)
18.02.2025 07:30 22,2 °C -10,7 °C 39 % 88 % 1030,0 hPa 0,0 l/m² 0,1 km/h (0 Bft) W 271 ° 0 min 9 W/m² -12,3 °C -10,7 °C 1,6 km/h (1 Bft)
18.02.2025 07:31 22,2 °C -10,7 °C 39 % 88 % 1030,0 hPa 0,0 l/m² 0,0 km/h (0 Bft) W 271 ° 0 min 9 W/m² -12,3 °C -10,7 °C 0,0 km/h (0 Bft)
18.02.2025 07:33 22,2 °C -10,7 °C 39 % 88 % 1030,0 hPa 0,0 l/m² 0,0 km/h (0 Bft) W 271 ° 0 min 9 W/m² -12,3 °C -10,7 °C 0,0 km/h (0 Bft)
18.02.2025 07:34 22,2 °C -10,7 °C 39 % 88 % 1030,0 hPa 0,0 l/m² 0,0 km/h (0 Bft) W 271 ° 0 min 11 W/m² -12,3 °C -10,7 °C 0,0 km/h (0 Bft)
18.02.2025 07:36 22,2 °C -10,7 °C 39 % 88 % 1030,1 hPa 0,0 l/m² 0,0 km/h (0 Bft) W 271 ° 0 min 11 W/m² -12,3 °C -10,7 °C 0,0 km/h (0 Bft)
18.02.2025 07:38 22,2 °C -10,7 °C 39 % 88 % 1030,1 hPa 0,0 l/m² 0,0 km/h (0 Bft) W 271 ° 0 min 12 W/m² -12,3 °C -10,7 °C 0,0 km/h (0 Bft)
18.02.2025 07:39 22,3 °C -10,7 °C 39 % 88 % 1030,1 hPa 0,0 l/m² 0,0 km/h (0 Bft) W 271 ° 0 min 12 W/m² -12,3 °C -10,7 °C 0,0 km/h (0 Bft)
18.02.2025 07:41 22,2 °C -10,7 °C 39 % 88 % 1030,2 hPa 0,0 l/m² 0,0 km/h (0 Bft) W 271 ° 0 min 14 W/m² -12,3 °C -10,7 °C 0,0 km/h (0 Bft)
18.02.2025 07:42 22,2 °C -10,7 °C 39 % 88 % 1030,2 hPa 0,0 l/m² 0,0 km/h (0 Bft) W 271 ° 0 min 16 W/m² -12,3 °C -10,7 °C 0,0 km/h (0 Bft)
18.02.2025 07:43 22,3 °C -10,7 °C 39 % 88 % 1030,2 hPa 0,0 l/m² 0,0 km/h (0 Bft) W 271 ° 0 min 16 W/m² -12,3 °C -10,7 °C 0,0 km/h (0 Bft)
18.02.2025 07:44 22,3 °C -10,7 °C 39 % 88 % 1030,2 hPa 0,0 l/m² 0,0 km/h (0 Bft) W 271 ° 0 min 18 W/m² -12,3 °C -10,7 °C 0,0 km/h (0 Bft)
18.02.2025 07:46 22,3 °C -10,7 °C 39 % 88 % 1030,3 hPa 0,0 l/m² 0,0 km/h (0 Bft) W 271 ° 0 min 19 W/m² -12,3 °C -10,7 °C 0,0 km/h (0 Bft)
18.02.2025 07:48 22,3 °C -10,7 °C 39 % 88 % 1030,3 hPa 0,0 l/m² 0,0 km/h (0 Bft) W 271 ° 0 min 21 W/m² -12,3 °C -10,7 °C 0,0 km/h (0 Bft)
18.02.2025 07:50 22,3 °C -10,7 °C 39 % 88 % 1030,3 hPa 0,0 l/m² 0,0 km/h (0 Bft) W 271 ° 0 min 23 W/m² -12,3 °C -10,7 °C 0,0 km/h (0 Bft)
18.02.2025 07:51 22,3 °C -10,7 °C 39 % 88 % 1030,3 hPa 0,0 l/m² 0,0 km/h (0 Bft) W 271 ° 0 min 25 W/m² -12,3 °C -10,7 °C 0,0 km/h (0 Bft)
18.02.2025 07:53 22,3 °C -10,7 °C 39 % 88 % 1030,3 hPa 0,0 l/m² 0,0 km/h (0 Bft) W 271 ° 0 min 25 W/m² -12,3 °C -10,7 °C 0,0 km/h (0 Bft)
18.02.2025 07:54 22,3 °C -10,7 °C 39 % 88 % 1030,3 hPa 0,0 l/m² 0,0 km/h (0 Bft) W 271 ° 0 min 26 W/m² -12,3 °C -10,7 °C 0,0 km/h (0 Bft)
18.02.2025 07:56 22,3 °C -10,6 °C 39 % 88 % 1030,4 hPa 0,0 l/m² 0,0 km/h (0 Bft) W 271 ° 0 min 26 W/m² -12,2 °C -10,6 °C 0,0 km/h (0 Bft)
18.02.2025 07:58 22,3 °C -10,4 °C 39 % 88 % 1030,4 hPa 0,0 l/m² 0,0 km/h (0 Bft) W 271 ° 0 min 30 W/m² -12,0 °C -10,4 °C 0,0 km/h (0 Bft)
18.02.2025 08:00 22,3 °C -10,4 °C 39 % 88 % 1030,3 hPa 0,0 l/m² 0,0 km/h (0 Bft) W 271 ° 0 min 32 W/m² -12,0 °C -10,4 °C 0,0 km/h (0 Bft)
18.02.2025 08:01 22,3 °C -10,3 °C 39 % 88 % 1030,4 hPa 0,0 l/m² 0,0 km/h (0 Bft) W 271 ° 0 min 32 W/m² -11,9 °C -10,3 °C 0,0 km/h (0 Bft)
18.02.2025 08:03 22,3 °C -10,1 °C 39 % 89 % 1030,4 hPa 0,0 l/m² 0,0 km/h (0 Bft) W 271 ° 0 min 33 W/m² -11,6 °C -10,1 °C 0,0 km/h (0 Bft)
18.02.2025 08:04 22,3 °C -9,9 °C 39 % 89 % 1030,4 hPa 0,0 l/m² 0,1 km/h (0 Bft) W 271 ° 0 min 35 W/m² -11,4 °C -9,9 °C 1,6 km/h (1 Bft)
18.02.2025 08:06 22,3 °C -9,8 °C 39 % 89 % 1030,4 hPa 0,0 l/m² 0,9 km/h (0 Bft) W 271 ° 0 min 37 W/m² -11,3 °C -9,8 °C 3,2 km/h (1 Bft)
18.02.2025 08:08 22,3 °C -9,7 °C 39 % 89 % 1030,4 hPa 0,0 l/m² 0,7 km/h (0 Bft) W 271 ° 0 min 39 W/m² -11,2 °C -9,7 °C 3,2 km/h (1 Bft)
18.02.2025 08:10 22,3 °C -9,6 °C 39 % 89 % 1030,6 hPa 0,0 l/m² 0,0 km/h (0 Bft) W 271 ° 0 min 40 W/m² -11,1 °C -9,6 °C 0,0 km/h (0 Bft)
18.02.2025 08:11 22,3 °C -9,4 °C 39 % 89 % 1030,6 hPa 0,0 l/m² 0,0 km/h (0 Bft) W 271 ° 0 min 42 W/m² -10,9 °C -9,4 °C 0,0 km/h (0 Bft)
18.02.2025 08:12 22,3 °C -9,4 °C 39 % 89 % 1030,6 hPa 0,0 l/m² 1,2 km/h (1 Bft) W 271 ° 0 min 42 W/m² -10,9 °C -9,4 °C 3,2 km/h (1 Bft)
18.02.2025 08:13 22,3 °C -9,3 °C 39 % 89 % 1030,6 hPa 0,0 l/m² 1,7 km/h (1 Bft) W 271 ° 0 min 44 W/m² -10,8 °C -9,3 °C 3,2 km/h (1 Bft)
18.02.2025 08:15 22,3 °C -9,3 °C 40 % 88 % 1030,6 hPa 0,0 l/m² 1,6 km/h (1 Bft) W 271 ° 0 min 47 W/m² -10,9 °C -9,3 °C 3,2 km/h (1 Bft)
18.02.2025 08:17 22,3 °C -9,2 °C 40 % 89 % 1030,6 hPa 0,0 l/m² 0,2 km/h (0 Bft) W 271 ° 0 min 49 W/m² -10,7 °C -9,2 °C 1,6 km/h (1 Bft)
18.02.2025 08:18 22,3 °C -9,1 °C 40 % 89 % 1030,6 hPa 0,0 l/m² 0,0 km/h (0 Bft) W 271 ° 0 min 51 W/m² -10,6 °C -9,1 °C 0,0 km/h (0 Bft)
18.02.2025 08:20 22,3 °C -9,0 °C 40 % 88 % 1030,7 hPa 0,0 l/m² 0,1 km/h (0 Bft) W 271 ° 2 min 53 W/m² -10,6 °C -9,0 °C 1,6 km/h (1 Bft)
18.02.2025 08:21 22,4 °C -8,9 °C 40 % 88 % 1030,7 hPa 0,0 l/m² 0,2 km/h (0 Bft) W 271 ° 1 min 56 W/m² -10,5 °C -8,9 °C 1,6 km/h (1 Bft)
18.02.2025 08:22 22,4 °C -8,9 °C 40 % 89 % 1030,7 hPa 0,0 l/m² 0,0 km/h (0 Bft) W 271 ° 1 min 58 W/m² -10,4 °C -8,9 °C 0,0 km/h (0 Bft)
18.02.2025 08:23 22,3 °C -8,9 °C 40 % 88 % 1030,7 hPa 0,0 l/m² 0,0 km/h (0 Bft) W 271 ° 1 min 58 W/m² -10,5 °C -8,9 °C 0,0 km/h (0 Bft)
18.02.2025 08:25 22,3 °C -8,9 °C 40 % 88 % 1030,6 hPa 0,0 l/m² 0,0 km/h (0 Bft) W 271 ° 2 min 62 W/m² -10,5 °C -8,9 °C 0,0 km/h (0 Bft)
18.02.2025 08:27 22,4 °C -8,9 °C 40 % 88 % 1030,7 hPa 0,0 l/m² 0,0 km/h (0 Bft) W 271 ° 2 min 67 W/m² -10,5 °C -8,9 °C 0,0 km/h (0 Bft)
18.02.2025 08:29 22,4 °C -8,9 °C 40 % 88 % 1030,7 hPa 0,0 l/m² 0,0 km/h (0 Bft) W 271 ° 2 min 70 W/m² -10,5 °C -8,9 °C 0,0 km/h (0 Bft)
18.02.2025 08:30 22,4 °C -8,8 °C 40 % 89 % 1030,7 hPa 0,0 l/m² 0,0 km/h (0 Bft) W 271 ° 1 min 72 W/m² -10,3 °C -8,8 °C 0,0 km/h (0 Bft)
18.02.2025 08:32 22,4 °C -8,7 °C 40 % 89 % 1030,7 hPa 0,0 l/m² 0,0 km/h (0 Bft) W 271 ° 2 min 76 W/m² -10,2 °C -8,7 °C 0,0 km/h (0 Bft)
18.02.2025 08:33 22,4 °C -8,6 °C 40 % 89 % 1030,7 hPa 0,0 l/m² 0,1 km/h (0 Bft) W 271 ° 1 min 77 W/m² -10,1 °C -8,6 °C 1,6 km/h (1 Bft)
18.02.2025 08:35 22,4 °C -8,5 °C 40 % 89 % 1030,8 hPa 0,0 l/m² 0,0 km/h (0 Bft) W 271 ° 2 min 84 W/m² -10,0 °C -8,5 °C 0,0 km/h (0 Bft)
18.02.2025 08:37 22,4 °C -8,3 °C 40 % 89 % 1030,9 hPa 0,0 l/m² 0,3 km/h (0 Bft) W 271 ° 2 min 88 W/m² -9,8 °C -8,3 °C 1,6 km/h (1 Bft)
18.02.2025 08:39 22,4 °C -8,2 °C 40 % 89 % 1030,9 hPa 0,0 l/m² 1,9 km/h (1 Bft) SW 234 ° 2 min 95 W/m² -9,7 °C -8,2 °C 3,2 km/h (1 Bft)
18.02.2025 08:40 22,4 °C -8,2 °C 40 % 89 % 1031,0 hPa 0,0 l/m² 0,8 km/h (0 Bft) SW 234 ° 1 min 97 W/m² -9,7 °C -8,2 °C 1,6 km/h (1 Bft)
18.02.2025 08:42 22,4 °C -8,1 °C 40 % 89 % 1030,9 hPa 0,0 l/m² 0,6 km/h (0 Bft) SW 234 ° 2 min 100 W/m² -9,6 °C -8,1 °C 3,2 km/h (1 Bft)
18.02.2025 08:43 22,5 °C -7,9 °C 40 % 89 % 1031,0 hPa 0,0 l/m² 0,0 km/h (0 Bft) SW 234 ° 1 min 104 W/m² -9,4 °C -7,9 °C 0,0 km/h (0 Bft)
18.02.2025 08:45 22,5 °C -7,8 °C 40 % 89 % 1031,0 hPa 0,0 l/m² 0,0 km/h (0 Bft) SW 234 ° 2 min 121 W/m² -9,3 °C -7,8 °C 1,6 km/h (1 Bft)
18.02.2025 08:47 22,5 °C -7,6 °C 40 % 89 % 1031,1 hPa 0,0 l/m² 0,0 km/h (0 Bft) SW 234 ° 2 min 130 W/m² -9,1 °C -7,6 °C 0,0 km/h (0 Bft)
18.02.2025 08:49 22,6 °C -7,6 °C 40 % 89 % 1031,0 hPa 0,0 l/m² 0,0 km/h (0 Bft) SW 234 ° 2 min 134 W/m² -9,1 °C -7,6 °C 0,0 km/h (0 Bft)
18.02.2025 08:50 22,6 °C -7,4 °C 40 % 88 % 1031,1 hPa 0,0 l/m² 0,0 km/h (0 Bft) SW 234 ° 1 min 142 W/m² -9,0 °C -7,4 °C 0,0 km/h (0 Bft)
18.02.2025 08:52 22,6 °C -7,3 °C 40 % 89 % 1031,1 hPa 0,0 l/m² 0,0 km/h (0 Bft) SW 234 ° 2 min 162 W/m² -8,8 °C -7,3 °C 0,0 km/h (0 Bft)
18.02.2025 08:53 22,6 °C -7,3 °C 40 % 89 % 1031,1 hPa 0,0 l/m² 0,0 km/h (0 Bft) SW 234 ° 1 min 171 W/m² -8,8 °C -7,3 °C 0,0 km/h (0 Bft)
18.02.2025 08:55 22,6 °C -7,2 °C 40 % 88 % 1031,1 hPa 0,0 l/m² 0,0 km/h (0 Bft) SW 234 ° 2 min 190 W/m² -8,8 °C -7,2 °C 0,0 km/h (0 Bft)
18.02.2025 08:57 22,6 °C -7,2 °C 40 % 88 % 1031,1 hPa 0,0 l/m² 0,0 km/h (0 Bft) SW 234 ° 2 min 209 W/m² -8,8 °C -7,2 °C 0,0 km/h (0 Bft)
18.02.2025 08:59 22,7 °C -7,1 °C 40 % 88 % 1031,0 hPa 0,0 l/m² 0,0 km/h (0 Bft) SW 234 ° 2 min 216 W/m² -8,7 °C -7,1 °C 0,0 km/h (0 Bft)
18.02.2025 09:01 22,7 °C -6,9 °C 40 % 88 % 1031,0 hPa 0,0 l/m² 1,0 km/h (0 Bft) SW 235 ° 2 min 221 W/m² -8,5 °C -6,9 °C 3,2 km/h (1 Bft)
18.02.2025 09:02 22,7 °C -6,9 °C 40 % 88 % 1031,0 hPa 0,0 l/m² 2,6 km/h (1 Bft) W-SW 243 ° 1 min 227 W/m² -8,5 °C -6,9 °C 4,8 km/h (1 Bft)
18.02.2025 09:03 22,7 °C -6,8 °C 40 % 88 % 1031,0 hPa 0,0 l/m² 1,6 km/h (1 Bft) W-SW 243 ° 1 min 230 W/m² -8,4 °C -6,8 °C 3,2 km/h (1 Bft)
18.02.2025 09:04 22,7 °C -6,9 °C 40 % 88 % 1031,0 hPa 0,0 l/m² 2,1 km/h (1 Bft) W-SW 244 ° 1 min 234 W/m² -8,5 °C -6,9 °C 3,2 km/h (1 Bft)
18.02.2025 09:05 22,7 °C -6,8 °C 40 % 88 % 1030,9 hPa 0,0 l/m² 2,7 km/h (1 Bft) W-SW 244 ° 1 min 237 W/m² -8,4 °C -6,8 °C 3,2 km/h (1 Bft)
18.02.2025 09:07 22,8 °C -6,8 °C 40 % 88 % 1030,9 hPa 0,0 l/m² 2,9 km/h (1 Bft) W-SW 244 ° 2 min 241 W/m² -8,4 °C -6,8 °C 4,8 km/h (1 Bft)
18.02.2025 09:09 22,8 °C -6,8 °C 40 % 88 % 1030,8 hPa 0,0 l/m² 2,3 km/h (1 Bft) W-SW 245 ° 2 min 248 W/m² -8,4 °C -6,8 °C 4,8 km/h (1 Bft)
18.02.2025 09:10 22,8 °C -6,8 °C 40 % 88 % 1030,9 hPa 0,0 l/m² 1,5 km/h (1 Bft) W-SW 245 ° 1 min 250 W/m² -8,4 °C -6,8 °C 1,6 km/h (1 Bft)
18.02.2025 09:12 22,8 °C -6,7 °C 40 % 88 % 1030,9 hPa 0,0 l/m² 0,0 km/h (0 Bft) W-SW 245 ° 2 min 255 W/m² -8,3 °C -6,7 °C 0,0 km/h (0 Bft)
18.02.2025 09:13 22,8 °C -6,6 °C 40 % 88 % 1030,9 hPa 0,0 l/m² 0,0 km/h (0 Bft) W-SW 245 ° 1 min 257 W/m² -8,2 °C -6,6 °C 0,0 km/h (0 Bft)
18.02.2025 09:15 22,8 °C -6,6 °C 40 % 87 % 1030,9 hPa 0,0 l/m² 0,1 km/h (0 Bft) W-SW 244 ° 2 min 265 W/m² -8,4 °C -6,6 °C 1,6 km/h (1 Bft)
18.02.2025 09:17 22,9 °C -6,6 °C 40 % 88 % 1030,9 hPa 0,0 l/m² 0,4 km/h (0 Bft) W-SW 244 ° 2 min 269 W/m² -8,2 °C -6,6 °C 3,2 km/h (1 Bft)
18.02.2025 09:19 22,9 °C -6,5 °C 40 % 88 % 1031,0 hPa 0,0 l/m² 1,6 km/h (1 Bft) SW 219 ° 2 min 274 W/m² -8,1 °C -6,5 °C 4,8 km/h (1 Bft)
18.02.2025 09:20 22,9 °C -6,5 °C 40 % 88 % 1031,0 hPa 0,0 l/m² 0,3 km/h (0 Bft) SW 219 ° 1 min 276 W/m² -8,1 °C -6,5 °C 1,6 km/h (1 Bft)
18.02.2025 09:22 22,9 °C -6,4 °C 40 % 88 % 1031,0 hPa 0,0 l/m² 1,5 km/h (1 Bft) SW 219 ° 2 min 279 W/m² -8,1 °C -6,4 °C 3,2 km/h (1 Bft)
18.02.2025 09:23 22,9 °C -6,3 °C 40 % 88 % 1031,0 hPa 0,0 l/m² 0,0 km/h (0 Bft) SW 219 ° 1 min 281 W/m² -8,0 °C -6,3 °C 0,0 km/h (0 Bft)
18.02.2025 09:25 22,9 °C -6,3 °C 40 % 88 % 1031,1 hPa 0,0 l/m² 0,0 km/h (0 Bft) SW 219 ° 2 min 285 W/m² -8,0 °C -6,3 °C 0,0 km/h (0 Bft)
18.02.2025 09:27 23,0 °C -6,3 °C 40 % 88 % 1031,0 hPa 0,0 l/m² 0,0 km/h (0 Bft) SW 219 ° 2 min 290 W/m² -8,0 °C -6,3 °C 0,0 km/h (0 Bft)
18.02.2025 09:29 23,0 °C -6,3 °C 40 % 88 % 1031,0 hPa 0,0 l/m² 0,2 km/h (0 Bft) SW 218 ° 2 min 295 W/m² -8,0 °C -6,3 °C 1,6 km/h (1 Bft)
18.02.2025 09:30 23,0 °C -6,2 °C 40 % 88 % 1030,9 hPa 0,0 l/m² 0,0 km/h (0 Bft) SW 218 ° 1 min 297 W/m² -7,9 °C -6,2 °C 0,0 km/h (0 Bft)
18.02.2025 09:32 23,1 °C -6,2 °C 40 % 88 % 1031,0 hPa 0,0 l/m² 0,0 km/h (0 Bft) SW 218 ° 2 min 302 W/m² -7,9 °C -6,2 °C 0,0 km/h (0 Bft)
18.02.2025 09:33 23,1 °C -6,2 °C 40 % 88 % 1031,0 hPa 0,0 l/m² 2,2 km/h (1 Bft) SW 218 ° 1 min 302 W/m² -7,9 °C -6,2 °C 3,2 km/h (1 Bft)
18.02.2025 09:35 23,1 °C -6,1 °C 40 % 88 % 1031,0 hPa 0,0 l/m² 2,4 km/h (1 Bft) SW 218 ° 2 min 306 W/m² -7,8 °C -6,1 °C 3,2 km/h (1 Bft)
18.02.2025 09:37 23,1 °C -6,0 °C 40 % 88 % 1031,0 hPa 0,0 l/m² 0,5 km/h (0 Bft) SW 218 ° 2 min 313 W/m² -7,7 °C -6,0 °C 3,2 km/h (1 Bft)
18.02.2025 09:39 23,2 °C -6,0 °C 40 % 88 % 1031,0 hPa 0,0 l/m² 2,8 km/h (1 Bft) SW 218 ° 2 min 316 W/m² -7,7 °C -6,0 °C 4,8 km/h (1 Bft)
18.02.2025 09:40 23,2 °C -6,0 °C 40 % 88 % 1031,0 hPa 0,0 l/m² 2,2 km/h (1 Bft) SW 218 ° 1 min 316 W/m² -7,7 °C -6,0 °C 4,8 km/h (1 Bft)
18.02.2025 09:42 23,2 °C -5,9 °C 40 % 88 % 1031,0 hPa 0,0 l/m² 1,3 km/h (1 Bft) SW 218 ° 2 min 322 W/m² -7,6 °C -5,9 °C 3,2 km/h (1 Bft)
18.02.2025 09:43 23,2 °C -5,9 °C 40 % 88 % 1031,0 hPa 0,0 l/m² 1,3 km/h (1 Bft) SW 218 ° 1 min 325 W/m² -7,6 °C -5,9 °C 3,2 km/h (1 Bft)
18.02.2025 09:45 23,2 °C -5,7 °C 40 % 89 % 1031,0 hPa 0,0 l/m² 1,6 km/h (1 Bft) SW 218 ° 2 min 329 W/m² -7,2 °C -5,7 °C 4,8 km/h (1 Bft)
18.02.2025 09:47 23,2 °C -5,6 °C 40 % 88 % 1031,1 hPa 0,0 l/m² 1,7 km/h (1 Bft) SW 234 ° 2 min 330 W/m² -7,3 °C -5,6 °C 4,8 km/h (1 Bft)
18.02.2025 09:49 23,3 °C -5,7 °C 40 % 88 % 1031,2 hPa 0,0 l/m² 1,0 km/h (0 Bft) N 360 ° 2 min 334 W/m² -7,4 °C -5,7 °C 3,2 km/h (1 Bft)
18.02.2025 09:50 23,3 °C -5,7 °C 40 % 87 % 1031,2 hPa 0,0 l/m² 2,5 km/h (1 Bft) SW 229 ° 1 min 334 W/m² -7,5 °C -5,7 °C 3,2 km/h (1 Bft)
18.02.2025 09:52 23,3 °C -5,7 °C 40 % 87 % 1031,2 hPa 0,0 l/m² 0,8 km/h (0 Bft) SW 229 ° 2 min 336 W/m² -7,5 °C -5,7 °C 3,2 km/h (1 Bft)
18.02.2025 09:53 23,3 °C -5,7 °C 40 % 88 % 1031,2 hPa 0,0 l/m² 0,7 km/h (0 Bft) SW 229 ° 1 min 338 W/m² -7,4 °C -5,7 °C 1,6 km/h (1 Bft)
18.02.2025 09:55 23,3 °C -5,7 °C 40 % 88 % 1031,2 hPa 0,0 l/m² 0,0 km/h (0 Bft) SW 229 ° 2 min 345 W/m² -7,4 °C -5,7 °C 0,0 km/h (0 Bft)
18.02.2025 09:57 23,4 °C -5,6 °C 40 % 88 % 1031,2 hPa 0,0 l/m² 0,1 km/h (0 Bft) SW 229 ° 2 min 352 W/m² -7,3 °C -5,6 °C 1,6 km/h (1 Bft)
18.02.2025 09:59 23,4 °C -5,4 °C 40 % 87 % 1031,2 hPa 0,0 l/m² 0,0 km/h (0 Bft) SW 229 ° 2 min 352 W/m² -7,2 °C -5,4 °C 1,6 km/h (1 Bft)
18.02.2025 10:00 23,4 °C -5,4 °C 40 % 87 % 1031,1 hPa 0,0 l/m² 0,0 km/h (0 Bft) SW 229 ° 1 min 353 W/m² -7,2 °C -5,4 °C 0,0 km/h (0 Bft)
18.02.2025 10:02 23,4 °C -5,4 °C 40 % 87 % 1031,2 hPa 0,0 l/m² 0,0 km/h (0 Bft) SW 229 ° 2 min 350 W/m² -7,2 °C -5,4 °C 0,0 km/h (0 Bft)
18.02.2025 10:03 23,4 °C -5,3 °C 40 % 87 % 1031,2 hPa 0,0 l/m² 0,1 km/h (0 Bft) SW 229 ° 1 min 350 W/m² -7,1 °C -5,3 °C 1,6 km/h (1 Bft)
18.02.2025 10:05 23,4 °C -5,2 °C 40 % 87 % 1031,2 hPa 0,0 l/m² 0,0 km/h (0 Bft) SW 229 ° 2 min 350 W/m² -7,0 °C -5,2 °C 0,0 km/h (0 Bft)
18.02.2025 10:07 23,5 °C -5,2 °C 40 % 86 % 1031,2 hPa 0,0 l/m² 0,0 km/h (0 Bft) SW 229 ° 2 min 352 W/m² -7,2 °C -5,2 °C 0,0 km/h (0 Bft)
18.02.2025 10:09 23,6 °C -5,1 °C 40 % 87 % 1031,2 hPa 0,0 l/m² 0,0 km/h (0 Bft) SW 229 ° 2 min 353 W/m² -6,9 °C -5,1 °C 0,0 km/h (0 Bft)
18.02.2025 10:10 23,6 °C -5,1 °C 40 % 86 % 1031,2 hPa 0,0 l/m² 0,1 km/h (0 Bft) SW 229 ° 1 min 357 W/m² -7,1 °C -5,1 °C 1,6 km/h (1 Bft)
18.02.2025 10:12 23,6 °C -5,1 °C 40 % 86 % 1031,3 hPa 0,0 l/m² 0,0 km/h (0 Bft) SW 229 ° 2 min 360 W/m² -7,1 °C -5,1 °C 0,0 km/h (0 Bft)
18.02.2025 10:13 23,6 °C -5,0 °C 40 % 86 % 1031,2 hPa 0,0 l/m² 0,0 km/h (0 Bft) SW 229 ° 1 min 366 W/m² -7,0 °C -5,0 °C 0,0 km/h (0 Bft)
18.02.2025 10:15 23,6 °C -4,8 °C 40 % 87 % 1031,2 hPa 0,0 l/m² 0,3 km/h (0 Bft) SW 229 ° 2 min 373 W/m² -6,6 °C -4,8 °C 3,2 km/h (1 Bft)
18.02.2025 10:17 23,6 °C -4,7 °C 40 % 87 % 1031,2 hPa 0,0 l/m² 0,4 km/h (0 Bft) SW 229 ° 2 min 371 W/m² -6,5 °C -4,7 °C 3,2 km/h (1 Bft)
18.02.2025 10:19 23,7 °C -4,6 °C 40 % 87 % 1031,2 hPa 0,0 l/m² 0,5 km/h (0 Bft) SW 229 ° 2 min 376 W/m² -6,4 °C -4,6 °C 1,6 km/h (1 Bft)
18.02.2025 10:20 23,7 °C -4,6 °C 40 % 87 % 1031,2 hPa 0,0 l/m² 0,0 km/h (0 Bft) SW 229 ° 1 min 378 W/m² -6,4 °C -4,6 °C 0,0 km/h (0 Bft)
18.02.2025 10:22 23,7 °C -4,6 °C 40 % 86 % 1031,2 hPa 0,0 l/m² 0,0 km/h (0 Bft) SW 229 ° 2 min 381 W/m² -6,6 °C -4,6 °C 0,0 km/h (0 Bft)
18.02.2025 10:23 23,7 °C -4,7 °C 40 % 86 % 1031,2 hPa 0,0 l/m² 0,0 km/h (0 Bft) SW 229 ° 1 min 381 W/m² -6,7 °C -4,7 °C 0,0 km/h (0 Bft)
18.02.2025 10:25 23,7 °C -4,6 °C 40 % 86 % 1031,3 hPa 0,0 l/m² 0,0 km/h (0 Bft) SW 229 ° 2 min 387 W/m² -6,6 °C -4,6 °C 0,0 km/h (0 Bft)
18.02.2025 10:27 23,8 °C -4,5 °C 40 % 86 % 1031,3 hPa 0,0 l/m² 0,0 km/h (0 Bft) SW 229 ° 2 min 388 W/m² -6,5 °C -4,5 °C 0,0 km/h (0 Bft)
18.02.2025 10:29 23,8 °C -4,3 °C 40 % 86 % 1031,3 hPa 0,0 l/m² 0,0 km/h (0 Bft) SW 229 ° 2 min 394 W/m² -6,3 °C -4,3 °C 0,0 km/h (0 Bft)
18.02.2025 10:30 23,8 °C -4,3 °C 40 % 86 % 1031,3 hPa 0,0 l/m² 0,0 km/h (0 Bft) SW 229 ° 1 min 397 W/m² -6,3 °C -4,3 °C 0,0 km/h (0 Bft)
18.02.2025 10:32 23,8 °C -4,2 °C 40 % 86 % 1031,3 hPa 0,0 l/m² 0,0 km/h (0 Bft) SW 229 ° 2 min 399 W/m² -6,2 °C -4,2 °C 0,0 km/h (0 Bft)
18.02.2025 10:33 23,8 °C -4,2 °C 40 % 86 % 1031,4 hPa 0,0 l/m² 0,0 km/h (0 Bft) SW 229 ° 1 min 403 W/m² -6,2 °C -4,2 °C 0,0 km/h (0 Bft)
18.02.2025 10:35 23,8 °C -3,7 °C 40 % 86 % 1031,3 hPa 0,0 l/m² 0,0 km/h (0 Bft) SW 229 ° 2 min 404 W/m² -5,7 °C -3,7 °C 0,0 km/h (0 Bft)
18.02.2025 10:37 23,8 °C -3,4 °C 40 % 85 % 1031,3 hPa 0,0 l/m² 0,0 km/h (0 Bft) SW 229 ° 2 min 408 W/m² -5,5 °C -3,4 °C 0,0 km/h (0 Bft)
18.02.2025 10:39 23,9 °C -3,3 °C 40 % 83 % 1031,3 hPa 0,0 l/m² 0,0 km/h (0 Bft) SW 229 ° 2 min 410 W/m² -5,8 °C -3,3 °C 0,0 km/h (0 Bft)
18.02.2025 10:40 23,9 °C -3,5 °C 40 % 83 % 1031,4 hPa 0,0 l/m² 0,0 km/h (0 Bft) SW 229 ° 1 min 410 W/m² -6,0 °C -3,5 °C 0,0 km/h (0 Bft)
18.02.2025 10:42 23,9 °C -3,7 °C 40 % 83 % 1031,3 hPa 0,0 l/m² 0,0 km/h (0 Bft) SW 229 ° 2 min 413 W/m² -6,2 °C -3,7 °C 0,0 km/h (0 Bft)
18.02.2025 10:43 23,9 °C -3,6 °C 40 % 83 % 1031,4 hPa 0,0 l/m² 0,0 km/h (0 Bft) SW 229 ° 1 min 415 W/m² -6,1 °C -3,6 °C 0,0 km/h (0 Bft)
18.02.2025 10:45 23,9 °C -3,6 °C 40 % 83 % 1031,4 hPa 0,0 l/m² 0,0 km/h (0 Bft) SW 229 ° 2 min 418 W/m² -6,1 °C -3,6 °C 0,0 km/h (0 Bft)
18.02.2025 10:47 23,9 °C -3,6 °C 40 % 83 % 1031,3 hPa 0,0 l/m² 0,0 km/h (0 Bft) SW 229 ° 2 min 418 W/m² -6,1 °C -3,6 °C 1,6 km/h (1 Bft)
18.02.2025 10:49 24,0 °C -3,4 °C 40 % 83 % 1031,3 hPa 0,0 l/m² 0,1 km/h (0 Bft) SW 229 ° 2 min 424 W/m² -5,9 °C -3,4 °C 1,6 km/h (1 Bft)
18.02.2025 10:50 24,0 °C -3,3 °C 40 % 83 % 1031,4 hPa 0,0 l/m² 0,2 km/h (0 Bft) SW 229 ° 1 min 424 W/m² -5,8 °C -3,3 °C 1,6 km/h (1 Bft)
18.02.2025 10:52 24,0 °C -3,3 °C 40 % 83 % 1031,5 hPa 0,0 l/m² 0,0 km/h (0 Bft) SW 229 ° 2 min 425 W/m² -5,8 °C -3,3 °C 1,6 km/h (1 Bft)
18.02.2025 10:53 24,0 °C -3,3 °C 40 % 82 % 1031,4 hPa 0,0 l/m² 1,0 km/h (0 Bft) S-SW 205 ° 1 min 427 W/m² -5,9 °C -3,3 °C 3,2 km/h (1 Bft)
18.02.2025 10:55 24,1 °C -3,3 °C 40 % 83 % 1031,3 hPa 0,0 l/m² 0,5 km/h (0 Bft) S 187 ° 2 min 431 W/m² -5,8 °C -3,3 °C 3,2 km/h (1 Bft)
18.02.2025 10:57 24,1 °C -3,2 °C 40 % 82 % 1031,4 hPa 0,0 l/m² 0,0 km/h (0 Bft) S 187 ° 2 min 432 W/m² -5,8 °C -3,2 °C 0,0 km/h (0 Bft)
18.02.2025 10:59 24,1 °C -3,1 °C 40 % 81 % 1031,4 hPa 0,0 l/m² 0,0 km/h (0 Bft) S 187 ° 2 min 434 W/m² -5,9 °C -3,1 °C 0,0 km/h (0 Bft)
18.02.2025 11:00 24,1 °C -3,1 °C 40 % 81 % 1031,4 hPa 0,0 l/m² 0,0 km/h (0 Bft) S 187 ° 1 min 436 W/m² -5,9 °C -3,1 °C 0,0 km/h (0 Bft)
18.02.2025 11:02 24,1 °C -2,9 °C 40 % 81 % 1031,4 hPa 0,0 l/m² 0,6 km/h (0 Bft) S 187 ° 2 min 438 W/m² -5,7 °C -2,9 °C 3,2 km/h (1 Bft)
18.02.2025 11:03 24,1 °C -2,7 °C 40 % 83 % 1031,4 hPa 0,0 l/m² 1,5 km/h (1 Bft) S 181 ° 1 min 438 W/m² -5,2 °C -2,7 °C 3,2 km/h (1 Bft)
18.02.2025 11:05 24,1 °C -2,7 °C 40 % 81 % 1031,4 hPa 0,0 l/m² 0,0 km/h (0 Bft) S 181 ° 2 min 441 W/m² -5,5 °C -2,7 °C 0,0 km/h (0 Bft)
18.02.2025 11:07 24,2 °C -2,8 °C 40 % 81 % 1031,5 hPa 0,0 l/m² 0,0 km/h (0 Bft) S 181 ° 2 min 443 W/m² -5,6 °C -2,8 °C 0,0 km/h (0 Bft)
18.02.2025 11:09 24,2 °C -2,6 °C 40 % 81 % 1031,5 hPa 0,0 l/m² 0,0 km/h (0 Bft) S 181 ° 2 min 445 W/m² -5,4 °C -2,6 °C 0,0 km/h (0 Bft)
18.02.2025 11:11 24,2 °C -2,7 °C 40 % 80 % 1031,4 hPa 0,0 l/m² 0,2 km/h (0 Bft) O-NO 61 ° 2 min 450 W/m² -5,7 °C -2,7 °C 3,2 km/h (1 Bft)
18.02.2025 11:12 24,2 °C -2,4 °C 40 % 81 % 1031,4 hPa 0,0 l/m² 3,7 km/h (1 Bft) O-NO 70 ° 1 min 448 W/m² -5,2 °C -2,4 °C 4,8 km/h (1 Bft)
18.02.2025 11:13 24,2 °C -2,3 °C 40 % 82 % 1031,4 hPa 0,0 l/m² 4,3 km/h (1 Bft) O-NO 69 ° 1 min 448 W/m² -4,9 °C -2,3 °C 6,4 km/h (2 Bft)
18.02.2025 11:15 24,2 °C -2,2 °C 40 % 79 % 1031,4 hPa 0,0 l/m² 2,2 km/h (1 Bft) O-NO 71 ° 2 min 454 W/m² -5,3 °C -2,2 °C 4,8 km/h (1 Bft)
18.02.2025 11:17 24,2 °C -2,2 °C 40 % 79 % 1031,5 hPa 0,0 l/m² 1,0 km/h (0 Bft) O 94 ° 2 min 455 W/m² -5,3 °C -2,2 °C 3,2 km/h (1 Bft)
18.02.2025 11:19 24,2 °C -2,3 °C 40 % 78 % 1031,4 hPa 0,0 l/m² 1,3 km/h (1 Bft) O 86 ° 2 min 457 W/m² -5,6 °C -2,3 °C 6,4 km/h (2 Bft)
18.02.2025 11:21 24,2 °C -2,2 °C 40 % 79 % 1031,4 hPa 0,0 l/m² 4,3 km/h (1 Bft) O 87 ° 2 min 455 W/m² -5,3 °C -2,2 °C 6,4 km/h (2 Bft)
18.02.2025 11:22 24,3 °C -2,1 °C 40 % 80 % 1031,4 hPa 0,0 l/m² 3,8 km/h (1 Bft) NO 51 ° 1 min 457 W/m² -5,1 °C -2,1 °C 4,8 km/h (1 Bft)
18.02.2025 11:23 24,3 °C -1,9 °C 40 % 80 % 1031,4 hPa 0,0 l/m² 4,7 km/h (1 Bft) O-NO 78 ° 1 min 457 W/m² -4,9 °C -1,9 °C 8,0 km/h (2 Bft)
18.02.2025 11:24 24,2 °C -1,7 °C 40 % 79 % 1031,3 hPa 0,0 l/m² 3,9 km/h (1 Bft) O 84 ° 1 min 459 W/m² -4,8 °C -1,7 °C 6,4 km/h (2 Bft)
18.02.2025 11:26 24,3 °C -1,7 °C 40 % 78 % 1031,2 hPa 0,0 l/m² 3,4 km/h (1 Bft) O 93 ° 2 min 462 W/m² -5,0 °C -1,7 °C 11,3 km/h (2 Bft)
18.02.2025 11:28 24,3 °C -1,4 °C 40 % 79 % 1031,2 hPa 0,0 l/m² 5,9 km/h (2 Bft) O 90 ° 2 min 462 W/m² -4,6 °C -1,4 °C 8,0 km/h (2 Bft)
18.02.2025 11:30 24,3 °C -1,6 °C 40 % 78 % 1031,2 hPa 0,0 l/m² 6,0 km/h (2 Bft) O 101 ° 2 min 464 W/m² -4,9 °C -1,6 °C 8,0 km/h (2 Bft)
18.02.2025 11:31 24,3 °C -1,6 °C 40 % 77 % 1031,2 hPa 0,0 l/m² 4,1 km/h (1 Bft) O 98 ° 1 min 464 W/m² -5,1 °C -1,6 °C 4,8 km/h (1 Bft)
18.02.2025 11:33 24,3 °C -1,7 °C 40 % 77 % 1031,1 hPa 0,0 l/m² 2,6 km/h (1 Bft) O 99 ° 2 min 464 W/m² -5,2 °C -1,7 °C 4,8 km/h (1 Bft)
18.02.2025 11:34 24,3 °C -1,8 °C 40 % 77 % 1031,1 hPa 0,0 l/m² 0,0 km/h (0 Bft) O 99 ° 1 min 468 W/m² -5,3 °C -1,8 °C 0,0 km/h (0 Bft)
18.02.2025 11:36 24,3 °C -1,7 °C 40 % 77 % 1031,1 hPa 0,0 l/m² 2,5 km/h (1 Bft) O 99 ° 2 min 469 W/m² -5,2 °C -1,7 °C 6,4 km/h (2 Bft)
18.02.2025 11:38 24,3 °C -1,1 °C 40 % 78 % 1031,2 hPa 0,0 l/m² 1,3 km/h (1 Bft) O 98 ° 2 min 469 W/m² -4,4 °C -1,1 °C 3,2 km/h (1 Bft)
18.02.2025 11:40 24,3 °C -1,1 °C 40 % 76 % 1031,2 hPa 0,0 l/m² 3,7 km/h (1 Bft) O-SO 119 ° 2 min 471 W/m² -4,8 °C -1,1 °C 6,4 km/h (2 Bft)
18.02.2025 11:41 24,3 °C -1,2 °C 40 % 75 % 1031,2 hPa 0,0 l/m² 3,0 km/h (1 Bft) O-SO 120 ° 1 min 469 W/m² -5,0 °C -1,2 °C 4,8 km/h (1 Bft)
18.02.2025 11:43 24,4 °C -1,1 °C 40 % 76 % 1031,2 hPa 0,0 l/m² 1,6 km/h (1 Bft) O-SO 119 ° 2 min 466 W/m² -4,8 °C -1,1 °C 3,2 km/h (1 Bft)
18.02.2025 11:44 24,3 °C -1,2 °C 40 % 75 % 1031,2 hPa 0,0 l/m² 0,3 km/h (0 Bft) O-SO 119 ° 1 min 464 W/m² -5,0 °C -1,2 °C 1,6 km/h (1 Bft)
18.02.2025 11:46 24,3 °C -0,7 °C 40 % 77 % 1031,2 hPa 0,0 l/m² 5,1 km/h (1 Bft) O-NO 67 ° 2 min 469 W/m² -4,2 °C -0,7 °C 8,0 km/h (2 Bft)
18.02.2025 11:48 24,3 °C -0,6 °C 40 % 75 % 1031,2 hPa 0,0 l/m² 5,8 km/h (2 Bft) O-SO 104 ° 2 min 469 W/m² -4,5 °C -0,6 °C 12,9 km/h (3 Bft)
18.02.2025 11:50 24,3 °C -0,7 °C 40 % 73 % 1031,2 hPa 0,0 l/m² 2,3 km/h (1 Bft) O-SO 105 ° 2 min 466 W/m² -4,9 °C -0,7 °C 4,8 km/h (1 Bft)
18.02.2025 11:51 24,3 °C -0,7 °C 40 % 74 % 1031,2 hPa 0,0 l/m² 2,8 km/h (1 Bft) O 84 ° 1 min 471 W/m² -4,7 °C -0,7 °C 12,9 km/h (3 Bft)
18.02.2025 11:52 24,3 °C -0,6 °C 40 % 75 % 1031,2 hPa 0,0 l/m² 8,6 km/h (2 Bft) O-NO 61 ° 1 min 473 W/m² -4,5 °C -2,9 °C 12,9 km/h (3 Bft)
18.02.2025 11:54 24,4 °C -0,2 °C 40 % 73 % 1031,2 hPa 0,0 l/m² 4,9 km/h (1 Bft) O-NO 65 ° 2 min 469 W/m² -4,4 °C -0,2 °C 6,4 km/h (2 Bft)
18.02.2025 11:56 24,4 °C -0,4 °C 40 % 69 % 1031,2 hPa 0,0 l/m² 3,0 km/h (1 Bft) O 92 ° 2 min 471 W/m² -5,4 °C -0,4 °C 6,4 km/h (2 Bft)
18.02.2025 11:58 24,4 °C -0,5 °C 40 % 71 % 1031,2 hPa 0,0 l/m² 4,7 km/h (1 Bft) O 79 ° 2 min 475 W/m² -5,1 °C -0,5 °C 11,3 km/h (2 Bft)
18.02.2025 12:00 24,4 °C -0,1 °C 40 % 71 % 1031,1 hPa 0,0 l/m² 6,6 km/h (2 Bft) NO 49 ° 2 min 485 W/m² -4,7 °C -0,3 °C 8,0 km/h (2 Bft)
18.02.2025 12:01 24,4 °C 0,2 °C 40 % 71 % 1031,1 hPa 0,0 l/m² 6,9 km/h (2 Bft) NO 53 ° 1 min 482 W/m² -4,4 °C -0,3 °C 11,3 km/h (2 Bft)
18.02.2025 12:03 24,4 °C 0,4 °C 40 % 69 % 1031,1 hPa 0,0 l/m² 8,0 km/h (2 Bft) O-NO 74 ° 2 min 485 W/m² -4,6 °C -1,2 °C 12,9 km/h (3 Bft)
18.02.2025 12:04 24,4 °C 0,5 °C 40 % 70 % 1031,2 hPa 0,0 l/m² 8,9 km/h (2 Bft) O-NO 68 ° 1 min 487 W/m² -4,3 °C -2,0 °C 11,3 km/h (2 Bft)
18.02.2025 12:06 24,4 °C 0,5 °C 40 % 68 % 1031,1 hPa 0,0 l/m² 5,9 km/h (2 Bft) O-NO 69 ° 2 min 489 W/m² -4,7 °C 0,5 °C 12,9 km/h (3 Bft)
18.02.2025 12:08 24,4 °C 0,5 °C 40 % 67 % 1031,1 hPa 0,0 l/m² 4,7 km/h (1 Bft) O 84 ° 2 min 483 W/m² -4,9 °C 0,5 °C 14,5 km/h (3 Bft)
18.02.2025 12:10 24,4 °C 0,4 °C 40 % 70 % 1031,1 hPa 0,0 l/m² 6,3 km/h (2 Bft) O 98 ° 2 min 490 W/m² -4,4 °C 0,4 °C 11,3 km/h (2 Bft)
18.02.2025 12:11 24,4 °C 0,4 °C 40 % 69 % 1031,2 hPa 0,0 l/m² 8,1 km/h (2 Bft) O 86 ° 1 min 496 W/m² -4,6 °C -1,3 °C 11,3 km/h (2 Bft)
18.02.2025 12:13 24,4 °C 0,2 °C 40 % 67 % 1031,2 hPa 0,0 l/m² 8,2 km/h (2 Bft) O 100 ° 2 min 492 W/m² -5,2 °C -1,6 °C 14,5 km/h (3 Bft)
18.02.2025 12:15 24,4 °C -0,1 °C 40 % 67 % 1031,2 hPa 0,0 l/m² 7,2 km/h (2 Bft) O 95 ° 2 min 492 W/m² -5,5 °C -0,9 °C 11,3 km/h (2 Bft)
18.02.2025 12:17 24,4 °C 0,0 °C 40 % 67 % 1031,2 hPa 0,0 l/m² 8,4 km/h (2 Bft) NO 50 ° 2 min 490 W/m² -5,4 °C -2,0 °C 14,5 km/h (3 Bft)
18.02.2025 12:19 24,5 °C 0,3 °C 40 % 67 % 1031,2 hPa 0,0 l/m² 10,0 km/h (2 Bft) O 94 ° 2 min 487 W/m² -5,1 °C -3,1 °C 14,5 km/h (3 Bft)
18.02.2025 12:21 24,5 °C 0,3 °C 40 % 68 % 1031,1 hPa 0,0 l/m² 10,1 km/h (2 Bft) O-NO 77 ° 2 min 487 W/m² -4,9 °C -3,2 °C 12,9 km/h (3 Bft)
18.02.2025 12:22 24,5 °C 0,3 °C 40 % 68 % 1031,1 hPa 0,0 l/m² 9,2 km/h (2 Bft) O-NO 74 ° 1 min 487 W/m² -4,9 °C -2,4 °C 11,3 km/h (2 Bft)
18.02.2025 12:23 24,4 °C 0,3 °C 40 % 66 % 1031,1 hPa 0,0 l/m² 7,2 km/h (2 Bft) O 84 ° 1 min 489 W/m² -5,3 °C -0,5 °C 9,7 km/h (2 Bft)
18.02.2025 12:25 24,5 °C 0,3 °C 40 % 65 % 1031,0 hPa 0,0 l/m² 11,8 km/h (2 Bft) O 92 ° 2 min 487 W/m² -5,5 °C -4,5 °C 16,1 km/h (3 Bft)
18.02.2025 12:27 24,5 °C 0,3 °C 40 % 65 % 1031,1 hPa 0,0 l/m² 11,9 km/h (2 Bft) O 86 ° 2 min 492 W/m² -5,5 °C -4,6 °C 14,5 km/h (3 Bft)
18.02.2025 12:29 24,5 °C 0,1 °C 40 % 64 % 1031,1 hPa 0,0 l/m² 11,0 km/h (2 Bft) O 81 ° 2 min 492 W/m² -5,9 °C -4,1 °C 16,1 km/h (3 Bft)
18.02.2025 12:31 24,6 °C 0,3 °C 40 % 64 % 1031,2 hPa 0,0 l/m² 10,9 km/h (2 Bft) O 87 ° 2 min 492 W/m² -5,7 °C -3,8 °C 16,1 km/h (3 Bft)
18.02.2025 12:32 24,6 °C 0,3 °C 40 % 64 % 1031,2 hPa 0,0 l/m² 11,8 km/h (2 Bft) O 91 ° 1 min 492 W/m² -5,7 °C -4,5 °C 14,5 km/h (3 Bft)
18.02.2025 12:33 24,5 °C 0,2 °C 40 % 65 % 1031,1 hPa 0,0 l/m² 9,7 km/h (2 Bft) O 88 ° 1 min 492 W/m² -5,6 °C -3,0 °C 11,3 km/h (2 Bft)
18.02.2025 12:35 24,5 °C 0,1 °C 40 % 65 % 1031,1 hPa 0,0 l/m² 10,6 km/h (2 Bft) O 85 ° 2 min 492 W/m² -5,7 °C -3,8 °C 14,5 km/h (3 Bft)
18.02.2025 12:37 24,6 °C 0,1 °C 40 % 65 % 1031,1 hPa 0,0 l/m² 9,5 km/h (2 Bft) O 94 ° 2 min 490 W/m² -5,7 °C -2,9 °C 14,5 km/h (3 Bft)
18.02.2025 12:39 24,6 °C 0,2 °C 40 % 65 % 1031,1 hPa 0,0 l/m² 3,9 km/h (1 Bft) O 87 ° 2 min 492 W/m² -5,6 °C 0,2 °C 6,4 km/h (2 Bft)
18.02.2025 12:41 24,6 °C 0,5 °C 40 % 67 % 1031,1 hPa 0,0 l/m² 9,2 km/h (2 Bft) O 95 ° 2 min 490 W/m² -4,9 °C -2,2 °C 12,9 km/h (3 Bft)
18.02.2025 12:42 24,6 °C 0,4 °C 40 % 66 % 1031,1 hPa 0,0 l/m² 10,9 km/h (2 Bft) O-NO 77 ° 1 min 492 W/m² -5,2 °C -3,7 °C 12,9 km/h (3 Bft)
18.02.2025 12:43 24,6 °C 0,4 °C 40 % 66 % 1031,1 hPa 0,0 l/m² 10,4 km/h (2 Bft) O 89 ° 1 min 490 W/m² -5,2 °C -3,3 °C 12,9 km/h (3 Bft)
18.02.2025 12:45 24,6 °C 0,4 °C 40 % 64 % 1031,2 hPa 0,0 l/m² 9,7 km/h (2 Bft) O 94 ° 2 min 489 W/m² -5,6 °C -2,8 °C 12,9 km/h (3 Bft)
18.02.2025 12:48 24,6 °C 0,3 °C 40 % 66 % 1031,1 hPa 0,0 l/m² 8,1 km/h (2 Bft) O-SO 104 ° 3 min 487 W/m² -5,3 °C -1,4 °C 14,5 km/h (3 Bft)
18.02.2025 12:50 24,6 °C 0,3 °C 40 % 65 % 1031,1 hPa 0,0 l/m² 8,5 km/h (2 Bft) O 94 ° 2 min 490 W/m² -5,5 °C -1,8 °C 12,9 km/h (3 Bft)
18.02.2025 12:52 24,6 °C 0,4 °C 40 % 67 % 1031,1 hPa 0,0 l/m² 8,7 km/h (2 Bft) O 92 ° 2 min 489 W/m² -5,0 °C -1,9 °C 12,9 km/h (3 Bft)
18.02.2025 12:53 24,6 °C 0,3 °C 40 % 66 % 1031,1 hPa 0,0 l/m² 5,6 km/h (2 Bft) O-SO 105 ° 1 min 489 W/m² -5,3 °C 0,3 °C 6,4 km/h (2 Bft)
18.02.2025 12:54 24,6 °C 0,3 °C 40 % 65 % 1031,1 hPa 0,0 l/m² 4,8 km/h (1 Bft) O-SO 111 ° 1 min 485 W/m² -5,5 °C 0,3 °C 6,4 km/h (2 Bft)
18.02.2025 12:56 24,6 °C 0,1 °C 40 % 66 % 1031,2 hPa 0,0 l/m² 5,4 km/h (2 Bft) O-NO 74 ° 2 min 478 W/m² -5,5 °C 0,1 °C 14,5 km/h (3 Bft)
18.02.2025 12:58 24,6 °C 0,4 °C 40 % 67 % 1031,2 hPa 0,0 l/m² 10,9 km/h (2 Bft) O 84 ° 2 min 476 W/m² -5,0 °C -3,7 °C 14,5 km/h (3 Bft)
18.02.2025 13:00 24,7 °C 0,4 °C 40 % 65 % 1031,2 hPa 0,0 l/m² 5,2 km/h (1 Bft) O-NO 74 ° 2 min 478 W/m² -5,4 °C 0,4 °C 11,3 km/h (2 Bft)
18.02.2025 13:02 24,7 °C 0,6 °C 40 % 66 % 1031,2 hPa 0,0 l/m² 11,5 km/h (2 Bft) O 92 ° 2 min 476 W/m² -5,0 °C -3,9 °C 16,1 km/h (3 Bft)
18.02.2025 13:03 24,7 °C 0,6 °C 40 % 64 % 1031,2 hPa 0,0 l/m² 8,2 km/h (2 Bft) O-NO 65 ° 1 min 475 W/m² -5,4 °C -1,2 °C 11,3 km/h (2 Bft)
18.02.2025 13:04 24,7 °C 0,7 °C 40 % 65 % 1031,2 hPa 0,0 l/m² 6,2 km/h (2 Bft) NO 43 ° 1 min 476 W/m² -5,1 °C 0,7 °C 8,0 km/h (2 Bft)
18.02.2025 13:05 24,7 °C 0,8 °C 40 % 65 % 1031,3 hPa 0,0 l/m² 4,8 km/h (1 Bft) NO 46 ° 1 min 475 W/m² -5,0 °C 0,8 °C 9,7 km/h (2 Bft)
18.02.2025 13:07 24,7 °C 0,9 °C 40 % 64 % 1031,2 hPa 0,0 l/m² 6,3 km/h (2 Bft) O-NO 71 ° 2 min 475 W/m² -5,1 °C 0,9 °C 11,3 km/h (2 Bft)
18.02.2025 13:09 24,7 °C 0,9 °C 40 % 65 % 1031,3 hPa 0,0 l/m² 5,9 km/h (2 Bft) O-SO 104 ° 2 min 473 W/m² -4,9 °C 0,9 °C 8,0 km/h (2 Bft)
18.02.2025 13:11 24,7 °C 0,7 °C 40 % 65 % 1031,3 hPa 0,0 l/m² 4,1 km/h (1 Bft) O 94 ° 2 min 473 W/m² -5,1 °C 0,7 °C 6,4 km/h (2 Bft)
18.02.2025 13:12 24,7 °C 0,7 °C 40 % 64 % 1031,3 hPa 0,0 l/m² 5,3 km/h (1 Bft) O 101 ° 1 min 473 W/m² -5,3 °C 0,7 °C 9,7 km/h (2 Bft)
18.02.2025 13:13 24,7 °C 0,7 °C 40 % 64 % 1031,3 hPa 0,0 l/m² 8,0 km/h (2 Bft) O 95 ° 1 min 473 W/m² -5,3 °C -0,9 °C 12,9 km/h (3 Bft)
18.02.2025 13:15 24,7 °C 0,6 °C 40 % 64 % 1031,2 hPa 0,0 l/m² 12,1 km/h (2 Bft) O-SO 103 ° 2 min 473 W/m² -5,4 °C -4,4 °C 16,1 km/h (3 Bft)
18.02.2025 13:17 24,7 °C 0,6 °C 40 % 65 % 1031,3 hPa 0,0 l/m² 8,7 km/h (2 Bft) O 82 ° 2 min 466 W/m² -5,2 °C -1,7 °C 12,9 km/h (3 Bft)
18.02.2025 13:19 24,7 °C 0,7 °C 40 % 64 % 1031,2 hPa 0,0 l/m² 5,9 km/h (2 Bft) O 83 ° 2 min 461 W/m² -5,3 °C 0,7 °C 8,0 km/h (2 Bft)
18.02.2025 13:21 24,7 °C 0,4 °C 40 % 63 % 1031,3 hPa 0,0 l/m² 5,0 km/h (1 Bft) O 92 ° 2 min 461 W/m² -5,8 °C 0,4 °C 14,5 km/h (3 Bft)
18.02.2025 13:23 24,7 °C 0,4 °C 40 % 64 % 1031,3 hPa 0,0 l/m² 8,7 km/h (2 Bft) O-NO 76 ° 2 min 461 W/m² -5,6 °C -1,9 °C 12,9 km/h (3 Bft)
18.02.2025 13:25 24,7 °C 0,4 °C 40 % 63 % 1031,3 hPa 0,0 l/m² 3,4 km/h (1 Bft) O-NO 69 ° 2 min 461 W/m² -5,8 °C 0,4 °C 6,4 km/h (2 Bft)
18.02.2025 13:27 24,7 °C 0,6 °C 40 % 66 % 1031,2 hPa 0,0 l/m² 7,1 km/h (2 Bft) O-SO 103 ° 2 min 461 W/m² -5,0 °C -0,1 °C 11,3 km/h (2 Bft)
18.02.2025 13:29 24,7 °C 0,6 °C 40 % 64 % 1031,2 hPa 0,0 l/m² 9,4 km/h (2 Bft) O-NO 63 ° 2 min 459 W/m² -5,4 °C -2,3 °C 14,5 km/h (3 Bft)
18.02.2025 13:31 24,7 °C 1,1 °C 40 % 64 % 1031,2 hPa 0,0 l/m² 4,8 km/h (1 Bft) O-NO 61 ° 2 min 459 W/m² -4,9 °C 1,1 °C 6,4 km/h (2 Bft)
18.02.2025 13:33 24,7 °C 1,2 °C 40 % 63 % 1031,2 hPa 0,0 l/m² 6,2 km/h (2 Bft) O-SO 111 ° 2 min 454 W/m² -5,0 °C 1,2 °C 11,3 km/h (2 Bft)
18.02.2025 13:35 24,7 °C 0,7 °C 40 % 61 % 1031,2 hPa 0,0 l/m² 6,1 km/h (2 Bft) O 98 ° 2 min 450 W/m² -5,9 °C 0,7 °C 11,3 km/h (2 Bft)
18.02.2025 13:37 24,7 °C 0,6 °C 40 % 64 % 1031,2 hPa 0,0 l/m² 5,6 km/h (2 Bft) N-NO 24 ° 2 min 445 W/m² -5,4 °C 0,6 °C 8,0 km/h (2 Bft)
18.02.2025 13:39 24,7 °C 0,7 °C 40 % 62 % 1031,1 hPa 0,0 l/m² 3,1 km/h (1 Bft) O-NO 75 ° 2 min 445 W/m² -5,7 °C 0,7 °C 6,4 km/h (2 Bft)
18.02.2025 13:41 24,7 °C 0,9 °C 40 % 63 % 1031,2 hPa 0,0 l/m² 6,0 km/h (2 Bft) O-SO 121 ° 2 min 446 W/m² -5,3 °C 0,9 °C 8,0 km/h (2 Bft)
18.02.2025 13:43 24,7 °C 0,8 °C 40 % 62 % 1031,1 hPa 0,0 l/m² 6,0 km/h (2 Bft) O 93 ° 2 min 443 W/m² -5,6 °C 0,8 °C 9,7 km/h (2 Bft)
18.02.2025 13:45 24,7 °C 0,8 °C 40 % 63 % 1031,2 hPa 0,0 l/m² 10,6 km/h (2 Bft) O 84 ° 2 min 443 W/m² -5,4 °C -3,0 °C 16,1 km/h (3 Bft)
18.02.2025 13:47 24,7 °C 0,8 °C 40 % 61 % 1031,2 hPa 0,0 l/m² 10,0 km/h (2 Bft) O-NO 62 ° 2 min 443 W/m² -5,8 °C -2,6 °C 14,5 km/h (3 Bft)
18.02.2025 13:49 24,7 °C 1,2 °C 40 % 63 % 1031,2 hPa 0,0 l/m² 10,4 km/h (2 Bft) O 86 ° 2 min 438 W/m² -5,0 °C -2,4 °C 14,5 km/h (3 Bft)
18.02.2025 13:51 24,7 °C 1,1 °C 40 % 62 % 1031,2 hPa 0,0 l/m² 9,5 km/h (2 Bft) O 87 ° 2 min 434 W/m² -5,3 °C -1,8 °C 14,5 km/h (3 Bft)
18.02.2025 13:53 24,7 °C 0,8 °C 40 % 61 % 1031,2 hPa 0,0 l/m² 5,1 km/h (1 Bft) O 86 ° 2 min 432 W/m² -5,8 °C 0,8 °C 6,4 km/h (2 Bft)
18.02.2025 13:55 24,7 °C 0,8 °C 40 % 60 % 1031,1 hPa 0,0 l/m² 2,7 km/h (1 Bft) O-NO 77 ° 2 min 431 W/m² -6,1 °C 0,8 °C 4,8 km/h (1 Bft)
18.02.2025 13:57 24,7 °C 1,2 °C 40 % 62 % 1031,1 hPa 0,0 l/m² 5,9 km/h (2 Bft) N 5 ° 2 min 429 W/m² -5,3 °C 1,2 °C 12,9 km/h (3 Bft)
18.02.2025 13:59 24,7 °C 1,3 °C 40 % 60 % 1031,1 hPa 0,0 l/m² 4,4 km/h (1 Bft) NO 40 ° 2 min 427 W/m² -5,6 °C 1,3 °C 6,4 km/h (2 Bft)
18.02.2025 14:01 24,7 °C 1,7 °C 40 % 60 % 1031,1 hPa 0,0 l/m² 8,6 km/h (2 Bft) O-NO 61 ° 2 min 424 W/m² -5,2 °C -0,4 °C 14,5 km/h (3 Bft)
18.02.2025 14:03 24,7 °C 1,7 °C 40 % 60 % 1031,1 hPa 0,0 l/m² 9,3 km/h (2 Bft) O 87 ° 2 min 422 W/m² -5,2 °C -1,0 °C 14,5 km/h (3 Bft)
18.02.2025 14:05 24,7 °C 1,4 °C 40 % 60 % 1031,0 hPa 0,0 l/m² 10,6 km/h (2 Bft) O-SO 106 ° 2 min 418 W/m² -5,5 °C -2,4 °C 14,5 km/h (3 Bft)
18.02.2025 14:07 24,7 °C 0,9 °C 40 % 60 % 1031,1 hPa 0,0 l/m² 8,9 km/h (2 Bft) O-SO 114 ° 2 min 418 W/m² -6,0 °C -1,5 °C 12,9 km/h (3 Bft)
18.02.2025 14:09 24,7 °C 0,6 °C 40 % 59 % 1031,1 hPa 0,0 l/m² 3,1 km/h (1 Bft) SO 128 ° 2 min 415 W/m² -6,5 °C 0,6 °C 6,4 km/h (2 Bft)
18.02.2025 14:11 24,7 °C 0,6 °C 40 % 60 % 1031,0 hPa 0,0 l/m² 4,2 km/h (1 Bft) O-NO 78 ° 2 min 411 W/m² -6,3 °C 0,6 °C 4,8 km/h (1 Bft)
18.02.2025 14:13 24,7 °C 0,7 °C 40 % 60 % 1031,0 hPa 0,0 l/m² 3,9 km/h (1 Bft) O 80 ° 2 min 408 W/m² -6,2 °C 0,7 °C 11,3 km/h (2 Bft)
18.02.2025 14:15 24,7 °C 0,9 °C 40 % 60 % 1031,1 hPa 0,0 l/m² 10,4 km/h (2 Bft) O 80 ° 2 min 406 W/m² -6,0 °C -2,8 °C 12,9 km/h (3 Bft)
18.02.2025 14:17 24,7 °C 0,9 °C 40 % 59 % 1031,0 hPa 0,0 l/m² 9,6 km/h (2 Bft) O 81 ° 2 min 404 W/m² -6,2 °C -2,1 °C 12,9 km/h (3 Bft)
18.02.2025 14:19 24,7 °C 0,9 °C 40 % 59 % 1031,0 hPa 0,0 l/m² 7,1 km/h (2 Bft) O 92 ° 2 min 399 W/m² -6,2 °C 0,2 °C 11,3 km/h (2 Bft)
18.02.2025 14:21 24,7 °C 0,7 °C 40 % 59 % 1031,0 hPa 0,0 l/m² 4,6 km/h (1 Bft) SO 134 ° 2 min 396 W/m² -6,4 °C 0,7 °C 6,4 km/h (2 Bft)
18.02.2025 14:23 24,7 °C 0,6 °C 40 % 60 % 1031,0 hPa 0,0 l/m² 4,4 km/h (1 Bft) O-NO 72 ° 2 min 392 W/m² -6,3 °C 0,6 °C 6,4 km/h (2 Bft)
18.02.2025 14:25 24,7 °C 0,8 °C 40 % 58 % 1030,9 hPa 0,0 l/m² 2,4 km/h (1 Bft) O 86 ° 2 min 390 W/m² -6,5 °C 0,8 °C 8,0 km/h (2 Bft)
18.02.2025 14:27 24,7 °C 0,7 °C 40 % 59 % 1030,9 hPa 0,0 l/m² 7,7 km/h (2 Bft) O 95 ° 2 min 388 W/m² -6,4 °C -0,6 °C 11,3 km/h (2 Bft)
18.02.2025 14:29 24,7 °C 0,8 °C 40 % 60 % 1030,9 hPa 0,0 l/m² 7,3 km/h (2 Bft) O-SO 122 ° 2 min 385 W/m² -6,1 °C -0,1 °C 11,3 km/h (2 Bft)
18.02.2025 14:31 24,7 °C 0,8 °C 40 % 59 % 1030,8 hPa 0,0 l/m² 4,2 km/h (1 Bft) O-SO 106 ° 2 min 380 W/m² -6,3 °C 0,8 °C 6,4 km/h (2 Bft)
18.02.2025 14:33 24,7 °C 1,2 °C 40 % 59 % 1031,0 hPa 0,0 l/m² 3,3 km/h (1 Bft) O-NO 65 ° 2 min 376 W/m² -5,9 °C 1,2 °C 6,4 km/h (2 Bft)
18.02.2025 14:35 24,6 °C 1,6 °C 40 % 56 % 1031,0 hPa 0,0 l/m² 5,7 km/h (2 Bft) O-NO 74 ° 2 min 374 W/m² -6,2 °C 1,6 °C 8,0 km/h (2 Bft)
18.02.2025 14:37 24,7 °C 1,6 °C 40 % 57 % 1031,0 hPa 0,0 l/m² 4,8 km/h (1 Bft) O 89 ° 2 min 371 W/m² -6,0 °C 1,6 °C 9,7 km/h (2 Bft)
18.02.2025 14:39 24,6 °C 1,4 °C 40 % 58 % 1030,9 hPa 0,0 l/m² 4,3 km/h (1 Bft) O-NO 74 ° 2 min 367 W/m² -5,9 °C 1,4 °C 11,3 km/h (2 Bft)
18.02.2025 14:41 24,6 °C 1,3 °C 40 % 56 % 1030,9 hPa 0,0 l/m² 10,7 km/h (2 Bft) O 96 ° 2 min 364 W/m² -6,5 °C -2,6 °C 12,9 km/h (3 Bft)
18.02.2025 14:43 24,6 °C 1,1 °C 40 % 56 % 1030,9 hPa 0,0 l/m² 7,6 km/h (2 Bft) O-SO 103 ° 2 min 360 W/m² -6,7 °C -0,1 °C 12,9 km/h (3 Bft)
18.02.2025 14:45 24,6 °C 1,1 °C 40 % 59 % 1030,9 hPa 0,0 l/m² 5,3 km/h (1 Bft) O 101 ° 2 min 357 W/m² -6,0 °C 1,1 °C 9,7 km/h (2 Bft)
18.02.2025 14:47 24,6 °C 1,2 °C 40 % 58 % 1030,7 hPa 0,0 l/m² 9,7 km/h (2 Bft) O-NO 78 ° 2 min 353 W/m² -6,1 °C -1,9 °C 14,5 km/h (3 Bft)
18.02.2025 14:49 24,6 °C 1,2 °C 40 % 56 % 1030,7 hPa 0,0 l/m² 10,4 km/h (2 Bft) NO 46 ° 2 min 350 W/m² -6,6 °C -2,4 °C 14,5 km/h (3 Bft)
18.02.2025 14:51 24,6 °C 1,4 °C 40 % 56 % 1030,8 hPa 0,0 l/m² 5,0 km/h (1 Bft) O-NO 62 ° 2 min 345 W/m² -6,4 °C 1,4 °C 8,0 km/h (2 Bft)
18.02.2025 14:53 24,6 °C 1,7 °C 40 % 56 % 1030,8 hPa 0,0 l/m² 8,0 km/h (2 Bft) O-NO 65 ° 2 min 341 W/m² -6,1 °C 0,1 °C 11,3 km/h (2 Bft)
18.02.2025 14:55 24,6 °C 1,4 °C 40 % 55 % 1030,7 hPa 0,0 l/m² 5,7 km/h (2 Bft) O 85 ° 2 min 338 W/m² -6,6 °C 1,4 °C 11,3 km/h (2 Bft)
18.02.2025 14:57 24,6 °C 1,2 °C 40 % 56 % 1030,8 hPa 0,0 l/m² 3,1 km/h (1 Bft) O-NO 67 ° 2 min 336 W/m² -6,6 °C 1,2 °C 6,4 km/h (2 Bft)
18.02.2025 14:59 24,5 °C 1,4 °C 40 % 57 % 1030,8 hPa 0,0 l/m² 5,6 km/h (2 Bft) O 90 ° 2 min 332 W/m² -6,2 °C 1,4 °C 12,9 km/h (3 Bft)
18.02.2025 15:01 24,4 °C 1,4 °C 40 % 55 % 1030,8 hPa 0,0 l/m² 9,4 km/h (2 Bft) O 86 ° 2 min 327 W/m² -6,6 °C -1,4 °C 16,1 km/h (3 Bft)
18.02.2025 15:03 24,4 °C 1,4 °C 40 % 55 % 1030,8 hPa 0,0 l/m² 8,5 km/h (2 Bft) O 89 ° 2 min 322 W/m² -6,6 °C -0,6 °C 12,9 km/h (3 Bft)
18.02.2025 15:05 24,4 °C 1,4 °C 40 % 56 % 1030,8 hPa 0,0 l/m² 4,1 km/h (1 Bft) O 86 ° 2 min 320 W/m² -6,4 °C 1,4 °C 9,7 km/h (2 Bft)
18.02.2025 15:07 24,4 °C 1,7 °C 41 % 53 % 1030,7 hPa 0,0 l/m² 9,0 km/h (2 Bft) O 96 ° 2 min 315 W/m² -6,8 °C -0,8 °C 16,1 km/h (3 Bft)
18.02.2025 15:09 24,4 °C 1,4 °C 41 % 51 % 1030,7 hPa 0,0 l/m² 12,1 km/h (2 Bft) O-NO 77 ° 2 min 311 W/m² -7,6 °C -3,5 °C 16,1 km/h (3 Bft)
18.02.2025 15:11 24,4 °C 1,2 °C 41 % 52 % 1030,6 hPa 0,0 l/m² 10,9 km/h (2 Bft) O 93 ° 2 min 304 W/m² -7,5 °C -2,8 °C 14,5 km/h (3 Bft)
18.02.2025 15:13 24,4 °C 1,1 °C 41 % 55 % 1030,7 hPa 0,0 l/m² 13,3 km/h (3 Bft) O-NO 73 ° 2 min 302 W/m² -6,9 °C -4,6 °C 16,1 km/h (3 Bft)
18.02.2025 15:15 24,4 °C 1,2 °C 41 % 55 % 1030,7 hPa 0,0 l/m² 10,3 km/h (2 Bft) NO 51 ° 2 min 299 W/m² -6,8 °C -2,4 °C 14,5 km/h (3 Bft)
18.02.2025 15:17 24,4 °C 1,4 °C 41 % 54 % 1030,6 hPa 0,0 l/m² 6,1 km/h (2 Bft) O-NO 74 ° 2 min 292 W/m² -6,9 °C 1,4 °C 9,7 km/h (2 Bft)
18.02.2025 15:19 24,3 °C 1,4 °C 41 % 54 % 1030,7 hPa 0,0 l/m² 11,3 km/h (2 Bft) O-NO 76 ° 2 min 288 W/m² -6,9 °C -2,9 °C 16,1 km/h (3 Bft)
18.02.2025 15:21 24,3 °C 1,4 °C 41 % 55 % 1030,6 hPa 0,0 l/m² 10,6 km/h (2 Bft) O-NO 73 ° 2 min 285 W/m² -6,6 °C -2,4 °C 14,5 km/h (3 Bft)
18.02.2025 15:22 24,3 °C 1,5 °C 41 % 53 % 1030,6 hPa 0,0 l/m² 6,8 km/h (2 Bft) O 84 ° 1 min 281 W/m² -7,0 °C 1,1 °C 9,7 km/h (2 Bft)
18.02.2025 15:23 24,3 °C 1,4 °C 41 % 53 % 1030,6 hPa 0,0 l/m² 6,4 km/h (2 Bft) NO 46 ° 1 min 279 W/m² -7,1 °C 1,4 °C 11,3 km/h (2 Bft)
18.02.2025 15:24 24,3 °C 1,4 °C 41 % 53 % 1030,5 hPa 0,0 l/m² 5,9 km/h (2 Bft) N-NO 13 ° 1 min 276 W/m² -7,1 °C 1,4 °C 8,0 km/h (2 Bft)
18.02.2025 15:25 24,3 °C 1,5 °C 41 % 53 % 1030,5 hPa 0,0 l/m² 9,7 km/h (2 Bft) O-NO 58 ° 1 min 274 W/m² -7,0 °C -1,6 °C 14,5 km/h (3 Bft)
18.02.2025 15:26 24,3 °C 1,5 °C 41 % 51 % 1030,5 hPa 0,0 l/m² 6,5 km/h (2 Bft) O 88 ° 1 min 272 W/m² -7,5 °C 1,4 °C 9,7 km/h (2 Bft)
18.02.2025 15:27 24,3 °C 1,6 °C 41 % 55 % 1030,5 hPa 0,0 l/m² 10,3 km/h (2 Bft) O 94 ° 1 min 271 W/m² -6,4 °C -1,9 °C 14,5 km/h (3 Bft)
18.02.2025 15:28 24,3 °C 1,4 °C 41 % 54 % 1030,5 hPa 0,0 l/m² 12,5 km/h (2 Bft) O 97 ° 1 min 269 W/m² -6,9 °C -3,7 °C 14,5 km/h (3 Bft)
18.02.2025 15:29 24,3 °C 1,3 °C 41 % 55 % 1030,5 hPa 0,0 l/m² 10,7 km/h (2 Bft) O 88 ° 1 min 264 W/m² -6,7 °C -2,6 °C 12,9 km/h (3 Bft)
18.02.2025 15:30 24,3 °C 1,3 °C 41 % 56 % 1030,5 hPa 0,0 l/m² 7,9 km/h (2 Bft) O-NO 72 ° 1 min 260 W/m² -6,5 °C -0,2 °C 12,9 km/h (3 Bft)
18.02.2025 15:32 24,3 °C 1,5 °C 41 % 56 % 1030,5 hPa 0,0 l/m² 6,7 km/h (2 Bft) O-NO 63 ° 2 min 255 W/m² -6,3 °C 1,2 °C 11,3 km/h (2 Bft)
18.02.2025 15:33 24,3 °C 1,5 °C 41 % 54 % 1030,5 hPa 0,0 l/m² 6,2 km/h (2 Bft) O-NO 59 ° 1 min 251 W/m² -6,8 °C 1,5 °C 9,7 km/h (2 Bft)
18.02.2025 15:34 24,3 °C 1,6 °C 41 % 54 % 1030,5 hPa 0,0 l/m² 7,7 km/h (2 Bft) NO 53 ° 1 min 250 W/m² -6,7 °C 0,3 °C 9,7 km/h (2 Bft)
18.02.2025 15:35 24,3 °C 1,6 °C 41 % 53 % 1030,5 hPa 0,0 l/m² 7,4 km/h (2 Bft) NO 45 ° 1 min 244 W/m² -6,9 °C 0,6 °C 14,5 km/h (3 Bft)
18.02.2025 15:36 24,3 °C 1,5 °C 41 % 52 % 1030,5 hPa 0,0 l/m² 8,6 km/h (2 Bft) O-NO 67 ° 1 min 243 W/m² -7,3 °C -0,6 °C 12,9 km/h (3 Bft)
18.02.2025 15:37 24,2 °C 1,6 °C 41 % 53 % 1030,6 hPa 0,0 l/m² 5,1 km/h (1 Bft) NO 42 ° 1 min 241 W/m² -6,9 °C 1,6 °C 9,7 km/h (2 Bft)
18.02.2025 15:38 24,3 °C 1,5 °C 41 % 52 % 1030,5 hPa 0,0 l/m² 6,4 km/h (2 Bft) O-NO 63 ° 1 min 239 W/m² -7,3 °C 1,5 °C 12,9 km/h (3 Bft)
18.02.2025 15:39 24,3 °C 1,6 °C 41 % 52 % 1030,5 hPa 0,0 l/m² 9,1 km/h (2 Bft) N-NO 28 ° 1 min 237 W/m² -7,2 °C -0,9 °C 14,5 km/h (3 Bft)
18.02.2025 15:40 24,3 °C 1,5 °C 41 % 51 % 1030,5 hPa 0,0 l/m² 10,3 km/h (2 Bft) N-NO 30 ° 1 min 236 W/m² -7,5 °C -2,0 °C 14,5 km/h (3 Bft)
18.02.2025 15:41 24,3 °C 1,4 °C 41 % 51 % 1030,5 hPa 0,0 l/m² 6,0 km/h (2 Bft) O-NO 57 ° 1 min 230 W/m² -7,6 °C 1,4 °C 11,3 km/h (2 Bft)
18.02.2025 15:42 24,2 °C 1,4 °C 41 % 51 % 1030,5 hPa 0,0 l/m² 10,1 km/h (2 Bft) O-NO 60 ° 1 min 227 W/m² -7,6 °C -2,0 °C 14,5 km/h (3 Bft)
18.02.2025 15:43 24,2 °C 1,3 °C 41 % 53 % 1030,5 hPa 0,0 l/m² 14,7 km/h (3 Bft) O 86 ° 1 min 223 W/m² -7,2 °C -5,2 °C 19,3 km/h (3 Bft)
18.02.2025 15:44 24,2 °C 1,2 °C 41 % 55 % 1030,5 hPa 0,0 l/m² 14,1 km/h (3 Bft) O-NO 74 ° 1 min 221 W/m² -6,8 °C -5,0 °C 17,7 km/h (3 Bft)
18.02.2025 15:46 24,2 °C 1,2 °C 41 % 54 % 1030,6 hPa 0,0 l/m² 12,9 km/h (3 Bft) O 82 ° 2 min 214 W/m² -7,1 °C -4,2 °C 17,7 km/h (3 Bft)
18.02.2025 15:47 24,2 °C 1,1 °C 41 % 54 % 1030,5 hPa 0,0 l/m² 12,1 km/h (2 Bft) O 86 ° 1 min 213 W/m² -7,1 °C -3,8 °C 14,5 km/h (3 Bft)
18.02.2025 15:48 24,2 °C 0,9 °C 41 % 53 % 1030,5 hPa 0,0 l/m² 10,3 km/h (2 Bft) O 84 ° 1 min 211 W/m² -7,6 °C -2,7 °C 12,9 km/h (3 Bft)
18.02.2025 15:49 24,2 °C 0,8 °C 41 % 54 % 1030,5 hPa 0,0 l/m² 8,4 km/h (2 Bft) O 79 ° 1 min 207 W/m² -7,4 °C -1,2 °C 11,3 km/h (2 Bft)
18.02.2025 15:50 24,2 °C 0,8 °C 41 % 55 % 1030,5 hPa 0,0 l/m² 8,0 km/h (2 Bft) O-NO 67 ° 1 min 206 W/m² -7,2 °C -0,8 °C 9,7 km/h (2 Bft)
18.02.2025 15:51 24,2 °C 0,8 °C 41 % 55 % 1030,4 hPa 0,0 l/m² 5,6 km/h (2 Bft) O 84 ° 1 min 202 W/m² -7,2 °C 0,8 °C 8,0 km/h (2 Bft)
18.02.2025 15:52 24,2 °C 0,8 °C 41 % 56 % 1030,5 hPa 0,0 l/m² 5,3 km/h (1 Bft) O 90 ° 1 min 197 W/m² -7,0 °C 0,8 °C 8,0 km/h (2 Bft)
18.02.2025 15:53 24,2 °C 1,0 °C 41 % 57 % 1030,5 hPa 0,0 l/m² 8,9 km/h (2 Bft) N 11 ° 1 min 195 W/m² -6,5 °C -1,4 °C 17,7 km/h (3 Bft)
18.02.2025 15:54 24,2 °C 1,2 °C 41 % 57 % 1030,5 hPa 0,0 l/m² 10,6 km/h (2 Bft) O-NO 63 ° 1 min 192 W/m² -6,4 °C -2,6 °C 16,1 km/h (3 Bft)
18.02.2025 15:55 24,2 °C 1,2 °C 41 % 55 % 1030,5 hPa 0,0 l/m² 8,9 km/h (2 Bft) NO 38 ° 1 min 190 W/m² -6,8 °C -1,2 °C 16,1 km/h (3 Bft)
18.02.2025 15:56 24,2 °C 1,2 °C 41 % 54 % 1030,5 hPa 0,0 l/m² 6,4 km/h (2 Bft) NO 54 ° 1 min 186 W/m² -7,1 °C 1,2 °C 9,7 km/h (2 Bft)
18.02.2025 15:57 24,2 °C 1,3 °C 41 % 54 % 1030,4 hPa 0,0 l/m² 4,9 km/h (1 Bft) O-NO 69 ° 1 min 185 W/m² -7,0 °C 1,3 °C 8,0 km/h (2 Bft)
18.02.2025 15:58 24,2 °C 1,3 °C 40 % 55 % 1030,4 hPa 0,0 l/m² 7,5 km/h (2 Bft) NO 45 ° 1 min 179 W/m² -6,7 °C 0,2 °C 8,0 km/h (2 Bft)
18.02.2025 15:59 24,2 °C 1,3 °C 40 % 54 % 1030,4 hPa 0,0 l/m² 6,3 km/h (2 Bft) O-NO 57 ° 1 min 178 W/m² -7,0 °C 1,3 °C 14,5 km/h (3 Bft)
18.02.2025 16:00 24,2 °C 1,4 °C 40 % 55 % 1030,4 hPa 0,0 l/m² 4,6 km/h (1 Bft) O-NO 71 ° 1 min 174 W/m² -6,6 °C 1,4 °C 6,4 km/h (2 Bft)
18.02.2025 16:01 24,1 °C 1,4 °C 40 % 55 % 1030,4 hPa 0,0 l/m² 8,9 km/h (2 Bft) O-NO 74 ° 1 min 171 W/m² -6,6 °C -1,0 °C 14,5 km/h (3 Bft)
18.02.2025 16:02 24,1 °C 1,5 °C 40 % 54 % 1030,5 hPa 0,0 l/m² 10,8 km/h (2 Bft) O-NO 69 ° 1 min 169 W/m² -6,8 °C -2,4 °C 14,5 km/h (3 Bft)
18.02.2025 16:03 24,1 °C 1,4 °C 40 % 53 % 1030,4 hPa 0,0 l/m² 12,2 km/h (2 Bft) O-NO 66 ° 1 min 165 W/m² -7,1 °C -3,5 °C 14,5 km/h (3 Bft)
18.02.2025 16:04 24,1 °C 1,4 °C 40 % 54 % 1030,5 hPa 0,0 l/m² 6,6 km/h (2 Bft) O-NO 62 ° 1 min 162 W/m² -6,9 °C 1,2 °C 11,3 km/h (2 Bft)
18.02.2025 16:05 24,1 °C 1,3 °C 40 % 55 % 1030,4 hPa 0,0 l/m² 10,2 km/h (2 Bft) O-NO 73 ° 1 min 158 W/m² -6,7 °C -2,2 °C 12,9 km/h (3 Bft)
18.02.2025 16:06 24,1 °C 1,2 °C 40 % 54 % 1030,4 hPa 0,0 l/m² 13,0 km/h (3 Bft) O-NO 77 ° 1 min 156 W/m² -7,1 °C -4,3 °C 17,7 km/h (3 Bft)
18.02.2025 16:07 24,1 °C 1,1 °C 40 % 54 % 1030,4 hPa 0,0 l/m² 11,2 km/h (2 Bft) O-NO 69 ° 1 min 155 W/m² -7,1 °C -3,2 °C 16,1 km/h (3 Bft)
18.02.2025 16:08 24,1 °C 1,1 °C 40 % 53 % 1030,5 hPa 0,0 l/m² 9,8 km/h (2 Bft) NO 53 ° 1 min 151 W/m² -7,4 °C -2,1 °C 12,9 km/h (3 Bft)
18.02.2025 16:09 24,1 °C 1,1 °C 40 % 54 % 1030,4 hPa 0,0 l/m² 7,8 km/h (2 Bft) NO 56 ° 1 min 149 W/m² -7,1 °C -0,3 °C 9,7 km/h (2 Bft)
18.02.2025 16:10 24,1 °C 1,1 °C 40 % 54 % 1030,5 hPa 0,0 l/m² 8,1 km/h (2 Bft) O-NO 71 ° 1 min 144 W/m² -7,1 °C -0,6 °C 14,5 km/h (3 Bft)
18.02.2025 16:11 24,1 °C 1,2 °C 40 % 53 % 1030,5 hPa 0,0 l/m² 9,7 km/h (2 Bft) N 11 ° 1 min 141 W/m² -7,3 °C -1,9 °C 14,5 km/h (3 Bft)
18.02.2025 16:12 24,1 °C 1,2 °C 40 % 52 % 1030,4 hPa 0,0 l/m² 10,1 km/h (2 Bft) O-NO 58 ° 1 min 139 W/m² -7,5 °C -2,2 °C 14,5 km/h (3 Bft)
18.02.2025 16:13 24,0 °C 1,2 °C 39 % 52 % 1030,4 hPa 0,0 l/m² 5,5 km/h (2 Bft) NO 53 ° 1 min 137 W/m² -7,5 °C 1,2 °C 11,3 km/h (2 Bft)
18.02.2025 16:14 24,1 °C 1,2 °C 39 % 52 % 1030,4 hPa 0,0 l/m² 13,0 km/h (3 Bft) O-NO 69 ° 1 min 134 W/m² -7,5 °C -4,3 °C 16,1 km/h (3 Bft)
18.02.2025 16:15 24,1 °C 1,1 °C 39 % 51 % 1030,4 hPa 0,0 l/m² 12,5 km/h (2 Bft) O 80 ° 1 min 134 W/m² -7,9 °C -4,1 °C 14,5 km/h (3 Bft)
18.02.2025 16:16 24,0 °C 0,8 °C 39 % 52 % 1030,4 hPa 0,0 l/m² 9,9 km/h (2 Bft) O 84 ° 1 min 128 W/m² -7,9 °C -2,5 °C 11,3 km/h (2 Bft)
18.02.2025 16:17 24,0 °C 0,8 °C 39 % 53 % 1030,4 hPa 0,0 l/m² 11,3 km/h (2 Bft) O 93 ° 1 min 125 W/m² -7,7 °C -3,6 °C 12,9 km/h (3 Bft)
18.02.2025 16:18 24,0 °C 0,7 °C 39 % 54 % 1030,3 hPa 0,0 l/m² 12,9 km/h (3 Bft) O-SO 105 ° 1 min 123 W/m² -7,5 °C -4,8 °C 16,1 km/h (3 Bft)
18.02.2025 16:19 24,0 °C 0,6 °C 39 % 54 % 1030,3 hPa 0,0 l/m² 13,1 km/h (3 Bft) O 90 ° 1 min 121 W/m² -7,6 °C -5,1 °C 16,1 km/h (3 Bft)
18.02.2025 16:20 24,0 °C 0,5 °C 39 % 54 % 1030,4 hPa 0,0 l/m² 13,1 km/h (3 Bft) O 85 ° 1 min 118 W/m² -7,7 °C -5,2 °C 17,7 km/h (3 Bft)
18.02.2025 16:21 24,0 °C 0,4 °C 39 % 53 % 1030,4 hPa 0,0 l/m² 13,0 km/h (3 Bft) O 85 ° 1 min 116 W/m² -8,0 °C -5,2 °C 16,1 km/h (3 Bft)
18.02.2025 16:22 23,9 °C 0,4 °C 39 % 53 % 1030,3 hPa 0,0 l/m² 9,8 km/h (2 Bft) O 90 ° 1 min 111 W/m² -8,0 °C -2,8 °C 14,5 km/h (3 Bft)
18.02.2025 16:23 23,9 °C 0,4 °C 39 % 54 % 1030,3 hPa 0,0 l/m² 11,9 km/h (2 Bft) O 84 ° 1 min 107 W/m² -7,8 °C -4,5 °C 14,5 km/h (3 Bft)
18.02.2025 16:24 23,9 °C 0,4 °C 39 % 55 % 1030,4 hPa 0,0 l/m² 11,6 km/h (2 Bft) O 98 ° 1 min 105 W/m² -7,6 °C -4,3 °C 14,5 km/h (3 Bft)
18.02.2025 16:25 24,0 °C 0,3 °C 39 % 56 % 1030,4 hPa 0,0 l/m² 12,0 km/h (2 Bft) O 95 ° 1 min 104 W/m² -7,4 °C -4,7 °C 16,1 km/h (3 Bft)
18.02.2025 16:26 23,9 °C 0,3 °C 39 % 56 % 1030,4 hPa 0,0 l/m² 13,3 km/h (3 Bft) O 91 ° 1 min 102 W/m² -7,4 °C -5,6 °C 17,7 km/h (3 Bft)
18.02.2025 16:27 23,9 °C 0,2 °C 39 % 56 % 1030,4 hPa 0,0 l/m² 15,0 km/h (3 Bft) O 79 ° 1 min 98 W/m² -7,5 °C -6,7 °C 17,7 km/h (3 Bft)
18.02.2025 16:28 23,9 °C 0,2 °C 39 % 56 % 1030,4 hPa 0,0 l/m² 13,9 km/h (3 Bft) O 79 ° 1 min 95 W/m² -7,5 °C -6,1 °C 16,1 km/h (3 Bft)
18.02.2025 16:29 23,9 °C 0,2 °C 39 % 56 % 1030,4 hPa 0,0 l/m² 9,7 km/h (2 Bft) O 81 ° 1 min 91 W/m² -7,5 °C -3,0 °C 12,9 km/h (3 Bft)
18.02.2025 16:30 23,9 °C 0,3 °C 40 % 56 % 1030,4 hPa 0,0 l/m² 7,6 km/h (2 Bft) O-NO 69 ° 1 min 90 W/m² -7,4 °C -0,9 °C 11,3 km/h (2 Bft)
18.02.2025 16:31 23,9 °C 0,3 °C 40 % 56 % 1030,4 hPa 0,0 l/m² 10,1 km/h (2 Bft) O-NO 77 ° 1 min 86 W/m² -7,4 °C -3,2 °C 14,5 km/h (3 Bft)
18.02.2025 16:32 23,9 °C 0,4 °C 40 % 56 % 1030,4 hPa 0,0 l/m² 12,1 km/h (2 Bft) O-NO 78 ° 1 min 84 W/m² -7,3 °C -4,6 °C 14,5 km/h (3 Bft)
18.02.2025 16:33 23,9 °C 0,4 °C 40 % 56 % 1030,4 hPa 0,0 l/m² 14,9 km/h (3 Bft) O 82 ° 1 min 81 W/m² -7,3 °C -6,4 °C 17,7 km/h (3 Bft)
18.02.2025 16:34 23,9 °C 0,4 °C 40 % 55 % 1030,4 hPa 0,0 l/m² 10,8 km/h (2 Bft) O-NO 78 ° 1 min 79 W/m² -7,6 °C -3,6 °C 14,5 km/h (3 Bft)
18.02.2025 16:35 23,9 °C 0,3 °C 40 % 56 % 1030,4 hPa 0,0 l/m² 9,3 km/h (2 Bft) O 80 ° 1 min 76 W/m² -7,4 °C -2,5 °C 11,3 km/h (2 Bft)
18.02.2025 16:36 23,9 °C 0,4 °C 40 % 57 % 1030,4 hPa 0,0 l/m² 6,4 km/h (2 Bft) NO 51 ° 1 min 74 W/m² -7,1 °C 0,4 °C 8,0 km/h (2 Bft)
18.02.2025 16:38 23,9 °C 0,4 °C 40 % 58 % 1030,4 hPa 0,0 l/m² 7,6 km/h (2 Bft) O 83 ° 2 min 69 W/m² -6,9 °C -0,8 °C 11,3 km/h (2 Bft)
18.02.2025 16:39 23,9 °C 0,4 °C 40 % 58 % 1030,4 hPa 0,0 l/m² 8,6 km/h (2 Bft) O-NO 74 ° 1 min 65 W/m² -6,9 °C -1,8 °C 12,9 km/h (3 Bft)
18.02.2025 16:40 23,9 °C 0,4 °C 40 % 58 % 1030,3 hPa 0,0 l/m² 10,8 km/h (2 Bft) O-NO 65 ° 1 min 63 W/m² -6,9 °C -3,6 °C 16,1 km/h (3 Bft)
18.02.2025 16:41 23,9 °C 0,4 °C 40 % 57 % 1030,3 hPa 0,0 l/m² 10,7 km/h (2 Bft) O 86 ° 1 min 62 W/m² -7,1 °C -3,6 °C 14,5 km/h (3 Bft)
18.02.2025 16:42 23,9 °C 0,4 °C 40 % 57 % 1030,4 hPa 0,0 l/m² 13,0 km/h (3 Bft) O 82 ° 1 min 60 W/m² -7,1 °C -5,2 °C 16,1 km/h (3 Bft)
18.02.2025 16:43 23,9 °C 0,4 °C 40 % 56 % 1030,4 hPa 0,0 l/m² 9,3 km/h (2 Bft) O-NO 63 ° 1 min 58 W/m² -7,3 °C -2,4 °C 12,9 km/h (3 Bft)
18.02.2025 16:44 23,9 °C 0,3 °C 40 % 56 % 1030,4 hPa 0,0 l/m² 12,3 km/h (2 Bft) O 79 ° 1 min 56 W/m² -7,4 °C -4,9 °C 16,1 km/h (3 Bft)
18.02.2025 16:45 23,9 °C 0,3 °C 40 % 57 % 1030,4 hPa 0,0 l/m² 5,1 km/h (1 Bft) O 86 ° 1 min 53 W/m² -7,2 °C 0,3 °C 12,9 km/h (3 Bft)
18.02.2025 16:46 23,9 °C 0,3 °C 40 % 57 % 1030,4 hPa 0,0 l/m² 10,0 km/h (2 Bft) O-NO 77 ° 0 min 51 W/m² -7,2 °C -3,1 °C 12,9 km/h (3 Bft)
18.02.2025 16:47 23,8 °C 0,3 °C 40 % 56 % 1030,5 hPa 0,0 l/m² 10,5 km/h (2 Bft) O-NO 72 ° 0 min 49 W/m² -7,4 °C -3,5 °C 14,5 km/h (3 Bft)
18.02.2025 16:48 23,8 °C 0,3 °C 40 % 57 % 1030,4 hPa 0,0 l/m² 8,1 km/h (2 Bft) O-SO 106 ° 0 min 47 W/m² -7,2 °C -1,4 °C 12,9 km/h (3 Bft)
18.02.2025 16:49 23,9 °C 0,3 °C 40 % 58 % 1030,5 hPa 0,0 l/m² 10,1 km/h (2 Bft) O-NO 75 ° 0 min 46 W/m² -7,0 °C -3,2 °C 14,5 km/h (3 Bft)
18.02.2025 16:50 23,8 °C 0,2 °C 40 % 58 % 1030,5 hPa 0,0 l/m² 11,6 km/h (2 Bft) O 81 ° 0 min 44 W/m² -7,1 °C -4,5 °C 14,5 km/h (3 Bft)
18.02.2025 16:51 23,9 °C 0,2 °C 40 % 58 % 1030,5 hPa 0,0 l/m² 12,8 km/h (3 Bft) O-NO 77 ° 0 min 40 W/m² -7,1 °C -5,3 °C 17,7 km/h (3 Bft)
18.02.2025 16:52 23,9 °C 0,1 °C 40 % 58 % 1030,6 hPa 0,0 l/m² 13,7 km/h (3 Bft) O 88 ° 0 min 39 W/m² -7,2 °C -6,0 °C 16,1 km/h (3 Bft)
18.02.2025 16:53 23,8 °C 0,1 °C 40 % 58 % 1030,5 hPa 0,0 l/m² 10,6 km/h (2 Bft) O 90 ° 0 min 37 W/m² -7,2 °C -3,8 °C 14,5 km/h (3 Bft)
18.02.2025 16:54 23,8 °C 0,0 °C 40 % 59 % 1030,5 hPa 0,0 l/m² 13,0 km/h (3 Bft) O-NO 73 ° 0 min 35 W/m² -7,0 °C -5,7 °C 16,1 km/h (3 Bft)
18.02.2025 16:55 23,8 °C -0,1 °C 40 % 58 % 1030,6 hPa 0,0 l/m² 13,3 km/h (3 Bft) O 83 ° 0 min 35 W/m² -7,3 °C -6,0 °C 16,1 km/h (3 Bft)
18.02.2025 16:56 23,8 °C -0,1 °C 40 % 58 % 1030,6 hPa 0,0 l/m² 12,4 km/h (2 Bft) O-NO 59 ° 0 min 33 W/m² -7,3 °C -5,4 °C 14,5 km/h (3 Bft)
18.02.2025 16:57 23,8 °C -0,2 °C 40 % 59 % 1030,6 hPa 0,0 l/m² 10,2 km/h (2 Bft) O 82 ° 0 min 30 W/m² -7,2 °C -3,8 °C 14,5 km/h (3 Bft)
18.02.2025 16:58 23,8 °C -0,2 °C 40 % 59 % 1030,5 hPa 0,0 l/m² 9,6 km/h (2 Bft) O 85 ° 0 min 28 W/m² -7,2 °C -3,3 °C 12,9 km/h (3 Bft)
18.02.2025 16:59 23,8 °C -0,2 °C 40 % 59 % 1030,5 hPa 0,0 l/m² 12,0 km/h (2 Bft) O 85 ° 0 min 26 W/m² -7,2 °C -5,2 °C 14,5 km/h (3 Bft)
18.02.2025 17:00 23,8 °C -0,3 °C 40 % 60 % 1030,6 hPa 0,0 l/m² 10,6 km/h (2 Bft) O-NO 76 ° 0 min 26 W/m² -7,1 °C -4,3 °C 12,9 km/h (3 Bft)
18.02.2025 17:01 23,8 °C -0,3 °C 40 % 60 % 1030,6 hPa 0,0 l/m² 6,9 km/h (2 Bft) O-NO 78 ° 0 min 25 W/m² -7,1 °C -0,8 °C 12,9 km/h (3 Bft)
18.02.2025 17:02 23,8 °C -0,4 °C 40 % 60 % 1030,6 hPa 0,0 l/m² 6,2 km/h (2 Bft) O 83 ° 0 min 23 W/m² -7,2 °C -0,4 °C 11,3 km/h (2 Bft)
18.02.2025 17:03 23,8 °C -0,4 °C 40 % 60 % 1030,6 hPa 0,0 l/m² 9,1 km/h (2 Bft) O-NO 71 ° 0 min 21 W/m² -7,2 °C -3,1 °C 12,9 km/h (3 Bft)
18.02.2025 17:04 23,8 °C -0,4 °C 40 % 60 % 1030,6 hPa 0,0 l/m² 8,3 km/h (2 Bft) O 88 ° 0 min 21 W/m² -7,2 °C -2,4 °C 11,3 km/h (2 Bft)
18.02.2025 17:05 23,8 °C -0,4 °C 40 % 60 % 1030,7 hPa 0,0 l/m² 6,8 km/h (2 Bft) O 80 ° 0 min 19 W/m² -7,2 °C -0,8 °C 9,7 km/h (2 Bft)
18.02.2025 17:06 23,8 °C -0,4 °C 40 % 61 % 1030,6 hPa 0,0 l/m² 7,7 km/h (2 Bft) O-SO 105 ° 0 min 19 W/m² -7,0 °C -1,8 °C 11,3 km/h (2 Bft)
18.02.2025 17:07 23,8 °C -0,4 °C 40 % 61 % 1030,7 hPa 0,0 l/m² 8,3 km/h (2 Bft) O-NO 78 ° 0 min 19 W/m² -7,0 °C -2,4 °C 11,3 km/h (2 Bft)
18.02.2025 17:08 23,8 °C -0,6 °C 40 % 61 % 1030,7 hPa 0,0 l/m² 7,3 km/h (2 Bft) O-NO 77 ° 0 min 18 W/m² -7,2 °C -1,6 °C 8,0 km/h (2 Bft)
18.02.2025 17:09 23,8 °C -0,6 °C 40 % 61 % 1030,7 hPa 0,0 l/m² 7,0 km/h (2 Bft) O 84 ° 0 min 18 W/m² -7,2 °C -1,2 °C 11,3 km/h (2 Bft)
18.02.2025 17:10 23,8 °C -0,7 °C 40 % 62 % 1030,7 hPa 0,0 l/m² 6,8 km/h (2 Bft) O 80 ° 0 min 16 W/m² -7,1 °C -1,1 °C 11,3 km/h (2 Bft)
18.02.2025 17:11 23,7 °C -0,7 °C 40 % 62 % 1030,7 hPa 0,0 l/m² 6,7 km/h (2 Bft) O 82 ° 0 min 16 W/m² -7,1 °C -1,0 °C 8,0 km/h (2 Bft)
18.02.2025 17:12 23,7 °C -0,8 °C 39 % 62 % 1030,7 hPa 0,0 l/m² 5,8 km/h (2 Bft) O 88 ° 0 min 16 W/m² -7,1 °C -0,8 °C 8,0 km/h (2 Bft)
18.02.2025 17:13 23,7 °C -0,8 °C 39 % 63 % 1030,7 hPa 0,0 l/m² 6,2 km/h (2 Bft) O 86 ° 0 min 16 W/m² -6,9 °C -0,8 °C 8,0 km/h (2 Bft)
18.02.2025 17:14 23,7 °C -0,9 °C 39 % 63 % 1030,7 hPa 0,0 l/m² 5,9 km/h (2 Bft) O 85 ° 0 min 14 W/m² -7,0 °C -0,9 °C 8,0 km/h (2 Bft)
18.02.2025 17:15 23,7 °C -0,9 °C 39 % 62 % 1030,7 hPa 0,0 l/m² 5,2 km/h (1 Bft) O 85 ° 0 min 14 W/m² -7,2 °C -0,9 °C 6,4 km/h (2 Bft)
18.02.2025 17:16 23,7 °C -0,9 °C 39 % 63 % 1030,7 hPa 0,0 l/m² 4,3 km/h (1 Bft) O 82 ° 0 min 14 W/m² -7,0 °C -0,9 °C 6,4 km/h (2 Bft)
18.02.2025 17:17 23,7 °C -1,0 °C 39 % 63 % 1030,7 hPa 0,0 l/m² 5,7 km/h (2 Bft) O 86 ° 0 min 14 W/m² -7,1 °C -1,0 °C 8,0 km/h (2 Bft)
18.02.2025 17:18 23,7 °C -1,0 °C 39 % 63 % 1030,7 hPa 0,0 l/m² 6,0 km/h (2 Bft) O 79 ° 0 min 12 W/m² -7,1 °C -1,0 °C 6,4 km/h (2 Bft)
18.02.2025 17:19 23,7 °C -1,1 °C 39 % 63 % 1030,7 hPa 0,0 l/m² 5,6 km/h (2 Bft) O 88 ° 0 min 12 W/m² -7,2 °C -1,1 °C 6,4 km/h (2 Bft)
18.02.2025 17:20 23,7 °C -1,1 °C 39 % 63 % 1030,8 hPa 0,0 l/m² 5,4 km/h (2 Bft) O 86 ° 0 min 12 W/m² -7,2 °C -1,1 °C 6,4 km/h (2 Bft)
18.02.2025 17:21 23,7 °C -1,1 °C 39 % 63 % 1030,8 hPa 0,0 l/m² 5,5 km/h (2 Bft) O 87 ° 0 min 11 W/m² -7,2 °C -1,1 °C 8,0 km/h (2 Bft)
18.02.2025 17:22 23,7 °C -1,1 °C 39 % 63 % 1030,8 hPa 0,0 l/m² 4,5 km/h (1 Bft) O 80 ° 0 min 11 W/m² -7,2 °C -1,1 °C 6,4 km/h (2 Bft)
18.02.2025 17:23 23,7 °C -1,2 °C 39 % 63 % 1030,8 hPa 0,0 l/m² 4,1 km/h (1 Bft) O 81 ° 0 min 11 W/m² -7,3 °C -1,2 °C 6,4 km/h (2 Bft)
18.02.2025 17:24 23,6 °C -1,2 °C 39 % 64 % 1030,8 hPa 0,0 l/m² 7,2 km/h (2 Bft) O 82 ° 0 min 11 W/m² -7,1 °C -2,1 °C 8,0 km/h (2 Bft)
18.02.2025 17:25 23,6 °C -1,3 °C 39 % 64 % 1030,8 hPa 0,0 l/m² 6,1 km/h (2 Bft) O 83 ° 0 min 9 W/m² -7,2 °C -1,3 °C 8,0 km/h (2 Bft)
18.02.2025 17:26 23,7 °C -1,3 °C 39 % 64 % 1030,7 hPa 0,0 l/m² 5,6 km/h (2 Bft) O 79 ° 0 min 9 W/m² -7,2 °C -1,3 °C 6,4 km/h (2 Bft)
18.02.2025 17:27 23,6 °C -1,3 °C 39 % 64 % 1030,8 hPa 0,0 l/m² 6,1 km/h (2 Bft) O 79 ° 0 min 9 W/m² -7,2 °C -1,3 °C 8,0 km/h (2 Bft)
18.02.2025 17:28 23,6 °C -1,3 °C 39 % 64 % 1030,8 hPa 0,0 l/m² 5,2 km/h (1 Bft) O-NO 72 ° 0 min 7 W/m² -7,2 °C -1,3 °C 6,4 km/h (2 Bft)
18.02.2025 17:29 23,6 °C -1,4 °C 39 % 65 % 1030,8 hPa 0,0 l/m² 5,6 km/h (2 Bft) O 81 ° 0 min 7 W/m² -7,1 °C -1,4 °C 6,4 km/h (2 Bft)
18.02.2025 17:30 23,6 °C -1,4 °C 39 % 65 % 1030,8 hPa 0,0 l/m² 4,9 km/h (1 Bft) O 80 ° 0 min 7 W/m² -7,1 °C -1,4 °C 6,4 km/h (2 Bft)
18.02.2025 17:31 23,6 °C -1,4 °C 39 % 65 % 1030,8 hPa 0,0 l/m² 4,6 km/h (1 Bft) O-NO 74 ° 0 min 7 W/m² -7,1 °C -1,4 °C 6,4 km/h (2 Bft)
18.02.2025 17:32 23,6 °C -1,4 °C 39 % 65 % 1030,8 hPa 0,0 l/m² 4,8 km/h (1 Bft) O 80 ° 0 min 5 W/m² -7,1 °C -1,4 °C 6,4 km/h (2 Bft)
18.02.2025 17:33 23,6 °C -1,5 °C 39 % 65 % 1030,8 hPa 0,0 l/m² 4,7 km/h (1 Bft) O-NO 76 ° 0 min 5 W/m² -7,2 °C -1,5 °C 6,4 km/h (2 Bft)
18.02.2025 17:34 23,6 °C -1,5 °C 39 % 65 % 1030,8 hPa 0,0 l/m² 4,5 km/h (1 Bft) O-NO 74 ° 0 min 5 W/m² -7,2 °C -1,5 °C 4,8 km/h (1 Bft)
18.02.2025 17:35 23,6 °C -1,5 °C 39 % 66 % 1030,9 hPa 0,0 l/m² 4,5 km/h (1 Bft) O-NO 74 ° 0 min 5 W/m² -7,0 °C -1,5 °C 6,4 km/h (2 Bft)
18.02.2025 17:36 23,6 °C -1,6 °C 39 % 66 % 1030,8 hPa 0,0 l/m² 5,3 km/h (1 Bft) O 79 ° 0 min 0 W/m² -7,1 °C -1,6 °C 6,4 km/h (2 Bft)
18.02.2025 17:37 23,6 °C -1,6 °C 39 % 66 % 1030,9 hPa 0,0 l/m² 4,4 km/h (1 Bft) O 79 ° 0 min 0 W/m² -7,1 °C -1,6 °C 4,8 km/h (1 Bft)
18.02.2025 17:38 23,6 °C -1,6 °C 39 % 66 % 1030,8 hPa 0,0 l/m² 3,6 km/h (1 Bft) O 79 ° 0 min 0 W/m² -7,1 °C -1,6 °C 4,8 km/h (1 Bft)
18.02.2025 17:39 23,6 °C -1,6 °C 38 % 66 % 1030,9 hPa 0,0 l/m² 3,5 km/h (1 Bft) O 79 ° 0 min 0 W/m² -7,1 °C -1,6 °C 4,8 km/h (1 Bft)
18.02.2025 17:40 23,5 °C -1,7 °C 37 % 66 % 1030,9 hPa 0,0 l/m² 4,3 km/h (1 Bft) O-NO 75 ° 0 min 0 W/m² -7,2 °C -1,7 °C 6,4 km/h (2 Bft)
18.02.2025 17:41 23,6 °C -1,7 °C 36 % 66 % 1030,9 hPa 0,0 l/m² 3,3 km/h (1 Bft) O-NO 75 ° 0 min 0 W/m² -7,2 °C -1,7 °C 4,8 km/h (1 Bft)
18.02.2025 17:42 23,5 °C -1,7 °C 35 % 66 % 1030,9 hPa 0,0 l/m² 2,1 km/h (1 Bft) O-NO 75 ° 0 min 0 W/m² -7,2 °C -1,7 °C 3,2 km/h (1 Bft)
18.02.2025 17:43 23,4 °C -1,7 °C 35 % 66 % 1030,9 hPa 0,0 l/m² 2,0 km/h (1 Bft) O-NO 75 ° 0 min 0 W/m² -7,2 °C -1,7 °C 3,2 km/h (1 Bft)
18.02.2025 17:44 23,4 °C -1,7 °C 35 % 67 % 1030,8 hPa 0,0 l/m² 1,9 km/h (1 Bft) O-NO 75 ° 0 min 0 W/m² -7,0 °C -1,7 °C 3,2 km/h (1 Bft)
18.02.2025 17:45 23,4 °C -1,7 °C 35 % 67 % 1030,9 hPa 0,0 l/m² 2,9 km/h (1 Bft) O-NO 75 ° 0 min 0 W/m² -7,0 °C -1,7 °C 4,8 km/h (1 Bft)
18.02.2025 17:46 23,4 °C -1,8 °C 35 % 67 % 1030,9 hPa 0,0 l/m² 2,0 km/h (1 Bft) O-NO 75 ° 0 min 0 W/m² -7,1 °C -1,8 °C 3,2 km/h (1 Bft)
18.02.2025 17:47 23,3 °C -1,8 °C 35 % 67 % 1030,9 hPa 0,0 l/m² 1,8 km/h (1 Bft) O-NO 75 ° 0 min 0 W/m² -7,1 °C -1,8 °C 3,2 km/h (1 Bft)
18.02.2025 17:48 23,3 °C -1,8 °C 36 % 67 % 1030,8 hPa 0,0 l/m² 1,9 km/h (1 Bft) O-NO 75 ° 0 min 0 W/m² -7,1 °C -1,8 °C 3,2 km/h (1 Bft)
18.02.2025 17:49 23,3 °C -1,9 °C 36 % 67 % 1031,0 hPa 0,0 l/m² 2,0 km/h (1 Bft) O-NO 75 ° 0 min 0 W/m² -7,2 °C -1,9 °C 3,2 km/h (1 Bft)
18.02.2025 17:50 23,3 °C -1,9 °C 36 % 67 % 1030,8 hPa 0,0 l/m² 0,6 km/h (0 Bft) O-NO 74 ° 0 min 0 W/m² -7,2 °C -1,9 °C 1,6 km/h (1 Bft)
18.02.2025 17:52 23,3 °C -1,9 °C 36 % 68 % 1030,9 hPa 0,0 l/m² 1,7 km/h (1 Bft) O-NO 74 ° 0 min 0 W/m² -7,0 °C -1,9 °C 3,2 km/h (1 Bft)
18.02.2025 17:53 23,3 °C -1,9 °C 36 % 67 % 1030,9 hPa 0,0 l/m² 1,2 km/h (1 Bft) O-NO 74 ° 0 min 0 W/m² -7,2 °C -1,9 °C 3,2 km/h (1 Bft)
18.02.2025 17:54 23,3 °C -1,9 °C 37 % 67 % 1031,0 hPa 0,0 l/m² 1,5 km/h (1 Bft) O-NO 74 ° 0 min 0 W/m² -7,2 °C -1,9 °C 3,2 km/h (1 Bft)
18.02.2025 17:55 23,3 °C -2,0 °C 37 % 67 % 1031,0 hPa 0,0 l/m² 0,4 km/h (0 Bft) O-NO 74 ° 0 min 0 W/m² -7,3 °C -2,0 °C 3,2 km/h (1 Bft)
18.02.2025 17:56 23,3 °C -2,0 °C 37 % 67 % 1031,0 hPa 0,0 l/m² 0,0 km/h (0 Bft) O-NO 74 ° 0 min 0 W/m² -7,3 °C -2,0 °C 0,0 km/h (0 Bft)
18.02.2025 17:57 23,3 °C -2,0 °C 37 % 68 % 1031,0 hPa 0,0 l/m² 0,0 km/h (0 Bft) O-NO 74 ° 0 min 0 W/m² -7,1 °C -2,0 °C 0,0 km/h (0 Bft)
18.02.2025 17:58 23,3 °C -2,0 °C 37 % 67 % 1031,0 hPa 0,0 l/m² 0,0 km/h (0 Bft) O-NO 74 ° 0 min 0 W/m² -7,3 °C -2,0 °C 0,0 km/h (0 Bft)
18.02.2025 17:59 23,3 °C -2,0 °C 37 % 68 % 1031,0 hPa 0,0 l/m² 0,8 km/h (0 Bft) O-NO 74 ° 0 min 0 W/m² -7,1 °C -2,0 °C 1,6 km/h (1 Bft)
18.02.2025 18:00 23,3 °C -2,1 °C 36 % 68 % 1031,1 hPa 0,0 l/m² 1,0 km/h (0 Bft) O-NO 74 ° 0 min 0 W/m² -7,2 °C -2,1 °C 1,6 km/h (1 Bft)
18.02.2025 18:01 23,3 °C -2,1 °C 35 % 68 % 1031,0 hPa 0,0 l/m² 1,1 km/h (1 Bft) O-NO 74 ° 0 min 0 W/m² -7,2 °C -2,1 °C 3,2 km/h (1 Bft)
18.02.2025 18:02 23,3 °C -2,1 °C 34 % 68 % 1030,9 hPa 0,0 l/m² 1,1 km/h (1 Bft) O-NO 74 ° 0 min 0 W/m² -7,2 °C -2,1 °C 1,6 km/h (1 Bft)
18.02.2025 18:03 23,2 °C -2,2 °C 34 % 68 % 1031,0 hPa 0,0 l/m² 1,0 km/h (0 Bft) O-NO 74 ° 0 min 0 W/m² -7,3 °C -2,2 °C 1,6 km/h (1 Bft)
18.02.2025 18:04 23,2 °C -2,2 °C 34 % 69 % 1031,1 hPa 0,0 l/m² 1,4 km/h (1 Bft) O-NO 74 ° 0 min 0 W/m² -7,1 °C -2,2 °C 1,6 km/h (1 Bft)
18.02.2025 18:05 23,2 °C -2,2 °C 34 % 69 % 1031,1 hPa 0,0 l/m² 0,8 km/h (0 Bft) O-NO 74 ° 0 min 0 W/m² -7,1 °C -2,2 °C 1,6 km/h (1 Bft)
18.02.2025 18:06 23,2 °C -2,2 °C 35 % 70 % 1031,1 hPa 0,0 l/m² 0,9 km/h (0 Bft) O-NO 74 ° 0 min 0 W/m² -6,9 °C -2,2 °C 1,6 km/h (1 Bft)
18.02.2025 18:07 23,2 °C -2,3 °C 35 % 70 % 1031,1 hPa 0,0 l/m² 0,1 km/h (0 Bft) O-NO 74 ° 0 min 0 W/m² -7,0 °C -2,3 °C 1,6 km/h (1 Bft)
18.02.2025 18:08 23,2 °C -2,3 °C 35 % 70 % 1031,1 hPa 0,0 l/m² 0,0 km/h (0 Bft) O-NO 74 ° 0 min 0 W/m² -7,0 °C -2,3 °C 0,0 km/h (0 Bft)
18.02.2025 18:09 23,1 °C -2,3 °C 35 % 71 % 1031,0 hPa 0,0 l/m² 0,0 km/h (0 Bft) O-NO 74 ° 0 min 0 W/m² -6,8 °C -2,3 °C 0,0 km/h (0 Bft)
18.02.2025 18:10 23,2 °C -2,4 °C 35 % 71 % 1031,1 hPa 0,0 l/m² 0,0 km/h (0 Bft) O-NO 74 ° 0 min 0 W/m² -6,9 °C -2,4 °C 0,0 km/h (0 Bft)
18.02.2025 18:11 23,2 °C -2,4 °C 35 % 72 % 1031,0 hPa 0,0 l/m² 0,0 km/h (0 Bft) O-NO 74 ° 0 min 0 W/m² -6,7 °C -2,4 °C 0,0 km/h (0 Bft)
18.02.2025 18:12 23,1 °C -2,5 °C 36 % 72 % 1031,2 hPa 0,0 l/m² 0,0 km/h (0 Bft) O-NO 74 ° 0 min 0 W/m² -6,8 °C -2,5 °C 0,0 km/h (0 Bft)
18.02.2025 18:13 23,2 °C -2,5 °C 36 % 72 % 1031,1 hPa 0,0 l/m² 0,0 km/h (0 Bft) O-NO 74 ° 0 min 0 W/m² -6,8 °C -2,5 °C 0,0 km/h (0 Bft)
18.02.2025 18:14 23,1 °C -2,6 °C 36 % 72 % 1031,1 hPa 0,0 l/m² 0,0 km/h (0 Bft) O-NO 74 ° 0 min 0 W/m² -6,9 °C -2,6 °C 0,0 km/h (0 Bft)
18.02.2025 18:15 23,1 °C -2,6 °C 36 % 72 % 1031,2 hPa 0,0 l/m² 0,0 km/h (0 Bft) O-NO 74 ° 0 min 0 W/m² -6,9 °C -2,6 °C 0,0 km/h (0 Bft)
18.02.2025 18:16 23,1 °C -2,6 °C 36 % 73 % 1031,2 hPa 0,0 l/m² 0,0 km/h (0 Bft) O-NO 74 ° 0 min 0 W/m² -6,8 °C -2,6 °C 0,0 km/h (0 Bft)
18.02.2025 18:17 23,2 °C -2,6 °C 36 % 73 % 1031,1 hPa 0,0 l/m² 0,0 km/h (0 Bft) O-NO 74 ° 0 min 0 W/m² -6,8 °C -2,6 °C 0,0 km/h (0 Bft)
18.02.2025 18:18 23,1 °C -2,6 °C 36 % 73 % 1031,1 hPa 0,0 l/m² 0,0 km/h (0 Bft) O-NO 74 ° 0 min 0 W/m² -6,8 °C -2,6 °C 0,0 km/h (0 Bft)
18.02.2025 18:19 23,1 °C -2,6 °C 36 % 73 % 1031,2 hPa 0,0 l/m² 0,3 km/h (0 Bft) O-NO 74 ° 0 min 0 W/m² -6,8 °C -2,6 °C 1,6 km/h (1 Bft)
18.02.2025 18:20 23,1 °C -2,7 °C 36 % 73 % 1031,1 hPa 0,0 l/m² 0,4 km/h (0 Bft) O-NO 74 ° 0 min 0 W/m² -6,9 °C -2,7 °C 1,6 km/h (1 Bft)
18.02.2025 18:21 23,1 °C -2,7 °C 36 % 73 % 1031,2 hPa 0,0 l/m² 0,5 km/h (0 Bft) O-NO 74 ° 0 min 0 W/m² -6,9 °C -2,7 °C 1,6 km/h (1 Bft)
18.02.2025 18:22 23,1 °C -2,7 °C 36 % 72 % 1031,2 hPa 0,0 l/m² 0,8 km/h (0 Bft) O-NO 74 ° 0 min 0 W/m² -7,0 °C -2,7 °C 1,6 km/h (1 Bft)
18.02.2025 18:23 23,1 °C -2,7 °C 36 % 72 % 1031,1 hPa 0,0 l/m² 0,9 km/h (0 Bft) O-NO 74 ° 0 min 0 W/m² -7,0 °C -2,7 °C 1,6 km/h (1 Bft)
18.02.2025 18:24 23,1 °C -2,7 °C 36 % 72 % 1031,1 hPa 0,0 l/m² 0,8 km/h (0 Bft) O-NO 74 ° 0 min 0 W/m² -7,0 °C -2,7 °C 1,6 km/h (1 Bft)
18.02.2025 18:25 23,1 °C -2,8 °C 36 % 72 % 1031,1 hPa 0,0 l/m² 0,8 km/h (0 Bft) O-NO 74 ° 0 min 0 W/m² -7,1 °C -2,8 °C 1,6 km/h (1 Bft)
18.02.2025 18:26 23,1 °C -2,8 °C 36 % 72 % 1031,1 hPa 0,0 l/m² 1,6 km/h (1 Bft) O-NO 74 ° 0 min 0 W/m² -7,1 °C -2,8 °C 3,2 km/h (1 Bft)
18.02.2025 18:27 23,1 °C -2,9 °C 36 % 72 % 1031,1 hPa 0,0 l/m² 1,9 km/h (1 Bft) O-NO 74 ° 0 min 0 W/m² -7,2 °C -2,9 °C 3,2 km/h (1 Bft)
18.02.2025 18:28 23,1 °C -2,9 °C 36 % 72 % 1031,1 hPa 0,0 l/m² 2,3 km/h (1 Bft) O-NO 74 ° 0 min 0 W/m² -7,2 °C -2,9 °C 3,2 km/h (1 Bft)
18.02.2025 18:29 23,1 °C -2,9 °C 36 % 72 % 1031,1 hPa 0,0 l/m² 2,8 km/h (1 Bft) O-NO 74 ° 0 min 0 W/m² -7,2 °C -2,9 °C 4,8 km/h (1 Bft)
18.02.2025 18:30 23,1 °C -2,9 °C 36 % 72 % 1031,1 hPa 0,0 l/m² 1,9 km/h (1 Bft) O-NO 74 ° 0 min 0 W/m² -7,2 °C -2,9 °C 3,2 km/h (1 Bft)
18.02.2025 18:31 23,1 °C -2,9 °C 36 % 72 % 1031,1 hPa 0,0 l/m² 3,0 km/h (1 Bft) O-NO 61 ° 0 min 0 W/m² -7,2 °C -2,9 °C 4,8 km/h (1 Bft)
18.02.2025 18:32 23,1 °C -2,9 °C 36 % 72 % 1031,1 hPa 0,0 l/m² 2,3 km/h (1 Bft) O-NO 60 ° 0 min 0 W/m² -7,2 °C -2,9 °C 4,8 km/h (1 Bft)
18.02.2025 18:33 23,1 °C -2,8 °C 36 % 71 % 1031,1 hPa 0,0 l/m² 2,8 km/h (1 Bft) O-NO 59 ° 0 min 0 W/m² -7,3 °C -2,8 °C 4,8 km/h (1 Bft)
18.02.2025 18:34 23,1 °C -2,8 °C 36 % 71 % 1031,1 hPa 0,0 l/m² 2,2 km/h (1 Bft) O-NO 59 ° 0 min 0 W/m² -7,3 °C -2,8 °C 3,2 km/h (1 Bft)
18.02.2025 18:35 23,1 °C -2,8 °C 36 % 71 % 1031,1 hPa 0,0 l/m² 1,9 km/h (1 Bft) O-NO 59 ° 0 min 0 W/m² -7,3 °C -2,8 °C 3,2 km/h (1 Bft)
18.02.2025 18:36 23,1 °C -2,9 °C 36 % 71 % 1031,1 hPa 0,0 l/m² 1,9 km/h (1 Bft) O-NO 59 ° 0 min 0 W/m² -7,4 °C -2,9 °C 4,8 km/h (1 Bft)
18.02.2025 18:37 23,1 °C -2,9 °C 36 % 71 % 1031,2 hPa 0,0 l/m² 0,7 km/h (0 Bft) O-NO 59 ° 0 min 0 W/m² -7,4 °C -2,9 °C 1,6 km/h (1 Bft)
18.02.2025 18:38 23,1 °C -2,9 °C 37 % 71 % 1031,2 hPa 0,0 l/m² 1,4 km/h (1 Bft) O-NO 59 ° 0 min 0 W/m² -7,4 °C -2,9 °C 3,2 km/h (1 Bft)
18.02.2025 18:39 23,1 °C -3,0 °C 37 % 72 % 1031,2 hPa 0,0 l/m² 0,3 km/h (0 Bft) O-NO 59 ° 0 min 0 W/m² -7,3 °C -3,0 °C 1,6 km/h (1 Bft)
18.02.2025 18:40 23,1 °C -3,0 °C 37 % 72 % 1031,1 hPa 0,0 l/m² 0,0 km/h (0 Bft) O-NO 59 ° 0 min 0 W/m² -7,3 °C -3,0 °C 0,0 km/h (0 Bft)
18.02.2025 18:41 23,1 °C -3,1 °C 37 % 72 % 1031,2 hPa 0,0 l/m² 0,9 km/h (0 Bft) O-NO 59 ° 0 min 0 W/m² -7,4 °C -3,1 °C 3,2 km/h (1 Bft)
18.02.2025 18:42 23,1 °C -3,1 °C 37 % 72 % 1031,2 hPa 0,0 l/m² 2,4 km/h (1 Bft) O-NO 60 ° 0 min 0 W/m² -7,4 °C -3,1 °C 3,2 km/h (1 Bft)
18.02.2025 18:43 23,1 °C -3,1 °C 37 % 72 % 1031,2 hPa 0,0 l/m² 3,3 km/h (1 Bft) O-NO 60 ° 0 min 0 W/m² -7,4 °C -3,1 °C 4,8 km/h (1 Bft)
18.02.2025 18:45 23,1 °C -3,2 °C 37 % 73 % 1031,2 hPa 0,0 l/m² 3,5 km/h (1 Bft) O-NO 60 ° 0 min 0 W/m² -7,3 °C -3,2 °C 4,8 km/h (1 Bft)
18.02.2025 18:46 23,1 °C -3,2 °C 37 % 74 % 1031,2 hPa 0,0 l/m² 3,3 km/h (1 Bft) O-NO 60 ° 0 min 0 W/m² -7,2 °C -3,2 °C 4,8 km/h (1 Bft)
18.02.2025 18:47 23,1 °C -3,3 °C 37 % 74 % 1031,2 hPa 0,0 l/m² 3,3 km/h (1 Bft) O-NO 61 ° 0 min 0 W/m² -7,3 °C -3,3 °C 4,8 km/h (1 Bft)
18.02.2025 18:48 23,1 °C -3,3 °C 37 % 74 % 1031,2 hPa 0,0 l/m² 3,0 km/h (1 Bft) O-NO 61 ° 0 min 0 W/m² -7,3 °C -3,3 °C 3,2 km/h (1 Bft)
18.02.2025 18:49 23,1 °C -3,4 °C 37 % 75 % 1031,3 hPa 0,0 l/m² 3,8 km/h (1 Bft) O-NO 62 ° 0 min 0 W/m² -7,2 °C -3,4 °C 4,8 km/h (1 Bft)
18.02.2025 18:50 23,1 °C -3,4 °C 37 % 75 % 1031,3 hPa 0,0 l/m² 3,9 km/h (1 Bft) O-NO 66 ° 0 min 0 W/m² -7,2 °C -3,4 °C 4,8 km/h (1 Bft)
18.02.2025 18:51 23,1 °C -3,4 °C 37 % 75 % 1031,3 hPa 0,0 l/m² 3,9 km/h (1 Bft) O-NO 74 ° 0 min 0 W/m² -7,2 °C -3,4 °C 4,8 km/h (1 Bft)
18.02.2025 18:52 23,1 °C -3,5 °C 37 % 76 % 1031,3 hPa 0,0 l/m² 3,5 km/h (1 Bft) O-NO 74 ° 0 min 0 W/m² -7,1 °C -3,5 °C 4,8 km/h (1 Bft)
18.02.2025 18:53 23,1 °C -3,5 °C 37 % 76 % 1031,2 hPa 0,0 l/m² 3,3 km/h (1 Bft) O-NO 74 ° 0 min 0 W/m² -7,1 °C -3,5 °C 4,8 km/h (1 Bft)
18.02.2025 18:54 23,1 °C -3,6 °C 37 % 76 % 1031,2 hPa 0,0 l/m² 3,4 km/h (1 Bft) O-NO 74 ° 0 min 0 W/m² -7,2 °C -3,6 °C 4,8 km/h (1 Bft)
18.02.2025 18:55 23,1 °C -3,6 °C 37 % 76 % 1031,2 hPa 0,0 l/m² 3,2 km/h (1 Bft) O-NO 74 ° 0 min 0 W/m² -7,2 °C -3,6 °C 4,8 km/h (1 Bft)
18.02.2025 18:56 23,1 °C -3,6 °C 37 % 76 % 1031,2 hPa 0,0 l/m² 3,2 km/h (1 Bft) O-NO 74 ° 0 min 0 W/m² -7,2 °C -3,6 °C 3,2 km/h (1 Bft)
18.02.2025 18:57 23,0 °C -3,6 °C 37 % 76 % 1031,2 hPa 0,0 l/m² 4,1 km/h (1 Bft) O-NO 74 ° 0 min 0 W/m² -7,2 °C -3,6 °C 4,8 km/h (1 Bft)
18.02.2025 18:58 23,1 °C -3,7 °C 37 % 77 % 1031,2 hPa 0,0 l/m² 3,7 km/h (1 Bft) O-NO 74 ° 0 min 0 W/m² -7,1 °C -3,7 °C 4,8 km/h (1 Bft)
18.02.2025 18:59 23,1 °C -3,7 °C 38 % 77 % 1031,3 hPa 0,0 l/m² 4,0 km/h (1 Bft) O-NO 74 ° 0 min 0 W/m² -7,1 °C -3,7 °C 4,8 km/h (1 Bft)
18.02.2025 19:00 23,1 °C -3,7 °C 38 % 77 % 1031,2 hPa 0,0 l/m² 3,9 km/h (1 Bft) O-NO 74 ° 0 min 0 W/m² -7,1 °C -3,7 °C 4,8 km/h (1 Bft)
18.02.2025 19:01 23,1 °C -3,7 °C 38 % 77 % 1031,2 hPa 0,0 l/m² 3,4 km/h (1 Bft) O-NO 74 ° 0 min 0 W/m² -7,1 °C -3,7 °C 4,8 km/h (1 Bft)
18.02.2025 19:02 23,1 °C -3,7 °C 38 % 77 % 1031,2 hPa 0,0 l/m² 3,0 km/h (1 Bft) O-NO 74 ° 0 min 0 W/m² -7,1 °C -3,7 °C 3,2 km/h (1 Bft)
18.02.2025 19:03 23,1 °C -3,7 °C 38 % 77 % 1031,3 hPa 0,0 l/m² 2,9 km/h (1 Bft) O-NO 74 ° 0 min 0 W/m² -7,1 °C -3,7 °C 3,2 km/h (1 Bft)
18.02.2025 19:04 23,1 °C -3,7 °C 38 % 77 % 1031,2 hPa 0,0 l/m² 2,5 km/h (1 Bft) O-NO 74 ° 0 min 0 W/m² -7,1 °C -3,7 °C 3,2 km/h (1 Bft)
18.02.2025 19:05 23,1 °C -3,7 °C 38 % 77 % 1031,3 hPa 0,0 l/m² 2,6 km/h (1 Bft) O-NO 74 ° 0 min 0 W/m² -7,1 °C -3,7 °C 3,2 km/h (1 Bft)
18.02.2025 19:06 23,1 °C -3,7 °C 38 % 77 % 1031,4 hPa 0,0 l/m² 2,7 km/h (1 Bft) O-NO 74 ° 0 min 0 W/m² -7,1 °C -3,7 °C 3,2 km/h (1 Bft)
18.02.2025 19:07 23,1 °C -3,7 °C 38 % 77 % 1031,3 hPa 0,0 l/m² 3,1 km/h (1 Bft) O-NO 74 ° 0 min 0 W/m² -7,1 °C -3,7 °C 4,8 km/h (1 Bft)
18.02.2025 19:08 23,1 °C -3,7 °C 38 % 77 % 1031,3 hPa 0,0 l/m² 2,7 km/h (1 Bft) O-NO 74 ° 0 min 0 W/m² -7,1 °C -3,7 °C 4,8 km/h (1 Bft)
18.02.2025 19:09 23,0 °C -3,7 °C 38 % 77 % 1031,3 hPa 0,0 l/m² 3,0 km/h (1 Bft) O-NO 74 ° 0 min 0 W/m² -7,1 °C -3,7 °C 3,2 km/h (1 Bft)
18.02.2025 19:10 23,1 °C -3,7 °C 38 % 77 % 1031,3 hPa 0,0 l/m² 2,4 km/h (1 Bft) O-NO 74 ° 0 min 0 W/m² -7,1 °C -3,7 °C 3,2 km/h (1 Bft)
18.02.2025 19:11 23,1 °C -3,7 °C 38 % 77 % 1031,4 hPa 0,0 l/m² 1,5 km/h (1 Bft) O-NO 74 ° 0 min 0 W/m² -7,1 °C -3,7 °C 1,6 km/h (1 Bft)
18.02.2025 19:12 23,1 °C -3,7 °C 38 % 77 % 1031,3 hPa 0,0 l/m² 1,0 km/h (0 Bft) O-NO 74 ° 0 min 0 W/m² -7,1 °C -3,7 °C 1,6 km/h (1 Bft)
18.02.2025 19:13 23,1 °C -3,7 °C 38 % 77 % 1031,4 hPa 0,0 l/m² 0,2 km/h (0 Bft) O-NO 74 ° 0 min 0 W/m² -7,1 °C -3,7 °C 1,6 km/h (1 Bft)
18.02.2025 19:14 23,1 °C -3,7 °C 38 % 77 % 1031,3 hPa 0,0 l/m² 1,0 km/h (0 Bft) O-NO 73 ° 0 min 0 W/m² -7,1 °C -3,7 °C 1,6 km/h (1 Bft)
18.02.2025 19:15 23,1 °C -3,6 °C 38 % 77 % 1031,4 hPa 0,0 l/m² 0,6 km/h (0 Bft) O-NO 73 ° 0 min 0 W/m² -7,0 °C -3,6 °C 1,6 km/h (1 Bft)
18.02.2025 19:16 23,1 °C -3,6 °C 38 % 77 % 1031,4 hPa 0,0 l/m² 0,0 km/h (0 Bft) O-NO 73 ° 0 min 0 W/m² -7,0 °C -3,6 °C 0,0 km/h (0 Bft)
18.02.2025 19:17 23,1 °C -3,6 °C 38 % 77 % 1031,4 hPa 0,0 l/m² 0,0 km/h (0 Bft) O-NO 73 ° 0 min 0 W/m² -7,0 °C -3,6 °C 0,0 km/h (0 Bft)
18.02.2025 19:18 23,1 °C -3,6 °C 38 % 77 % 1031,3 hPa 0,0 l/m² 0,0 km/h (0 Bft) O-NO 73 ° 0 min 0 W/m² -7,0 °C -3,6 °C 0,0 km/h (0 Bft)
18.02.2025 19:19 23,1 °C -3,7 °C 38 % 76 % 1031,4 hPa 0,0 l/m² 0,0 km/h (0 Bft) O-NO 73 ° 0 min 0 W/m² -7,3 °C -3,7 °C 0,0 km/h (0 Bft)
18.02.2025 19:20 23,1 °C -3,7 °C 38 % 76 % 1031,4 hPa 0,0 l/m² 0,0 km/h (0 Bft) O-NO 73 ° 0 min 0 W/m² -7,3 °C -3,7 °C 0,0 km/h (0 Bft)
18.02.2025 19:21 23,1 °C -3,8 °C 38 % 76 % 1031,5 hPa 0,0 l/m² 0,0 km/h (0 Bft) O-NO 73 ° 0 min 0 W/m² -7,4 °C -3,8 °C 0,0 km/h (0 Bft)
18.02.2025 19:22 23,1 °C -3,8 °C 38 % 76 % 1031,5 hPa 0,0 l/m² 0,0 km/h (0 Bft) O-NO 73 ° 0 min 0 W/m² -7,4 °C -3,8 °C 0,0 km/h (0 Bft)
18.02.2025 19:23 23,1 °C -3,9 °C 38 % 76 % 1031,4 hPa 0,0 l/m² 0,0 km/h (0 Bft) O-NO 73 ° 0 min 0 W/m² -7,5 °C -3,9 °C 0,0 km/h (0 Bft)
18.02.2025 19:24 23,1 °C -3,9 °C 38 % 77 % 1031,4 hPa 0,0 l/m² 0,0 km/h (0 Bft) O-NO 73 ° 0 min 0 W/m² -7,3 °C -3,9 °C 0,0 km/h (0 Bft)
18.02.2025 19:25 23,1 °C -4,1 °C 38 % 77 % 1031,5 hPa 0,0 l/m² 0,0 km/h (0 Bft) O-NO 73 ° 0 min 0 W/m² -7,5 °C -4,1 °C 0,0 km/h (0 Bft)
18.02.2025 19:26 23,1 °C -4,1 °C 38 % 77 % 1031,4 hPa 0,0 l/m² 0,0 km/h (0 Bft) O-NO 73 ° 0 min 0 W/m² -7,5 °C -4,1 °C 0,0 km/h (0 Bft)
18.02.2025 19:27 23,1 °C -4,2 °C 38 % 77 % 1031,4 hPa 0,0 l/m² 0,0 km/h (0 Bft) O-NO 73 ° 0 min 0 W/m² -7,6 °C -4,2 °C 0,0 km/h (0 Bft)
18.02.2025 19:28 23,1 °C -4,3 °C 38 % 77 % 1031,5 hPa 0,0 l/m² 0,0 km/h (0 Bft) O-NO 73 ° 0 min 0 W/m² -7,7 °C -4,3 °C 0,0 km/h (0 Bft)
18.02.2025 19:29 23,1 °C -4,3 °C 39 % 77 % 1031,4 hPa 0,0 l/m² 0,0 km/h (0 Bft) O-NO 73 ° 0 min 0 W/m² -7,7 °C -4,3 °C 0,0 km/h (0 Bft)
18.02.2025 19:30 23,1 °C -4,4 °C 38 % 77 % 1031,4 hPa 0,0 l/m² 0,0 km/h (0 Bft) O-NO 73 ° 0 min 0 W/m² -7,8 °C -4,4 °C 0,0 km/h (0 Bft)
18.02.2025 19:31 23,1 °C -4,5 °C 38 % 78 % 1031,4 hPa 0,0 l/m² 0,0 km/h (0 Bft) O-NO 73 ° 0 min 0 W/m² -7,7 °C -4,5 °C 0,0 km/h (0 Bft)
18.02.2025 19:32 23,1 °C -4,6 °C 39 % 78 % 1031,4 hPa 0,0 l/m² 0,0 km/h (0 Bft) O-NO 73 ° 0 min 0 W/m² -7,8 °C -4,6 °C 0,0 km/h (0 Bft)
18.02.2025 19:33 23,1 °C -4,6 °C 39 % 78 % 1031,5 hPa 0,0 l/m² 0,0 km/h (0 Bft) O-NO 73 ° 0 min 0 W/m² -7,8 °C -4,6 °C 0,0 km/h (0 Bft)
18.02.2025 19:34 23,1 °C -4,6 °C 39 % 78 % 1031,5 hPa 0,0 l/m² 0,0 km/h (0 Bft) O-NO 73 ° 0 min 0 W/m² -7,8 °C -4,6 °C 0,0 km/h (0 Bft)
18.02.2025 19:35 23,1 °C -4,6 °C 39 % 79 % 1031,4 hPa 0,0 l/m² 0,0 km/h (0 Bft) O-NO 73 ° 0 min 0 W/m² -7,7 °C -4,6 °C 0,0 km/h (0 Bft)
18.02.2025 19:36 23,1 °C -4,6 °C 39 % 78 % 1031,3 hPa 0,0 l/m² 0,0 km/h (0 Bft) O-NO 73 ° 0 min 0 W/m² -7,8 °C -4,6 °C 0,0 km/h (0 Bft)
18.02.2025 19:37 23,1 °C -4,7 °C 39 % 78 % 1031,4 hPa 0,0 l/m² 0,0 km/h (0 Bft) O-NO 73 ° 0 min 0 W/m² -7,9 °C -4,7 °C 0,0 km/h (0 Bft)
18.02.2025 19:38 23,1 °C -4,7 °C 39 % 78 % 1031,4 hPa 0,0 l/m² 0,0 km/h (0 Bft) O-NO 73 ° 0 min 0 W/m² -7,9 °C -4,7 °C 0,0 km/h (0 Bft)
18.02.2025 19:39 23,1 °C -4,7 °C 39 % 79 % 1031,4 hPa 0,0 l/m² 0,0 km/h (0 Bft) O-NO 73 ° 0 min 0 W/m² -7,8 °C -4,7 °C 0,0 km/h (0 Bft)
18.02.2025 19:40 23,1 °C -4,8 °C 39 % 79 % 1031,5 hPa 0,0 l/m² 0,0 km/h (0 Bft) O-NO 73 ° 0 min 0 W/m² -7,9 °C -4,8 °C 0,0 km/h (0 Bft)
18.02.2025 19:41 23,1 °C -4,8 °C 39 % 79 % 1031,4 hPa 0,0 l/m² 0,0 km/h (0 Bft) O-NO 73 ° 0 min 0 W/m² -7,9 °C -4,8 °C 0,0 km/h (0 Bft)
18.02.2025 19:42 23,1 °C -4,8 °C 39 % 79 % 1031,5 hPa 0,0 l/m² 0,0 km/h (0 Bft) O-NO 73 ° 0 min 0 W/m² -7,9 °C -4,8 °C 0,0 km/h (0 Bft)
18.02.2025 19:43 23,1 °C -4,8 °C 39 % 79 % 1031,4 hPa 0,0 l/m² 0,0 km/h (0 Bft) O-NO 73 ° 0 min 0 W/m² -7,9 °C -4,8 °C 0,0 km/h (0 Bft)
18.02.2025 19:44 23,1 °C -4,8 °C 39 % 79 % 1031,4 hPa 0,0 l/m² 0,0 km/h (0 Bft) O-NO 73 ° 0 min 0 W/m² -7,9 °C -4,8 °C 0,0 km/h (0 Bft)
18.02.2025 19:45 23,1 °C -4,8 °C 39 % 80 % 1031,4 hPa 0,0 l/m² 0,0 km/h (0 Bft) O-NO 73 ° 0 min 0 W/m² -7,7 °C -4,8 °C 0,0 km/h (0 Bft)
18.02.2025 19:46 23,1 °C -4,8 °C 39 % 80 % 1031,4 hPa 0,0 l/m² 0,0 km/h (0 Bft) O-NO 73 ° 0 min 0 W/m² -7,7 °C -4,8 °C 0,0 km/h (0 Bft)
18.02.2025 19:47 23,1 °C -4,8 °C 39 % 80 % 1031,4 hPa 0,0 l/m² 0,0 km/h (0 Bft) O-NO 73 ° 0 min 0 W/m² -7,7 °C -4,8 °C 0,0 km/h (0 Bft)
18.02.2025 19:48 23,1 °C -4,8 °C 39 % 80 % 1031,5 hPa 0,0 l/m² 0,0 km/h (0 Bft) O-NO 73 ° 0 min 0 W/m² -7,7 °C -4,8 °C 0,0 km/h (0 Bft)
18.02.2025 19:49 23,1 °C -4,8 °C 39 % 80 % 1031,5 hPa 0,0 l/m² 0,0 km/h (0 Bft) O-NO 73 ° 0 min 0 W/m² -7,7 °C -4,8 °C 0,0 km/h (0 Bft)
18.02.2025 19:50 23,1 °C -4,9 °C 39 % 80 % 1031,4 hPa 0,0 l/m² 0,0 km/h (0 Bft) O-NO 73 ° 0 min 0 W/m² -7,8 °C -4,9 °C 0,0 km/h (0 Bft)
18.02.2025 19:51 23,1 °C -4,9 °C 39 % 80 % 1031,4 hPa 0,0 l/m² 0,0 km/h (0 Bft) O-NO 73 ° 0 min 0 W/m² -7,8 °C -4,9 °C 0,0 km/h (0 Bft)
18.02.2025 19:52 23,1 °C -4,9 °C 39 % 80 % 1031,5 hPa 0,0 l/m² 0,0 km/h (0 Bft) O-NO 73 ° 0 min 0 W/m² -7,8 °C -4,9 °C 0,0 km/h (0 Bft)
18.02.2025 19:53 23,1 °C -4,9 °C 39 % 80 % 1031,5 hPa 0,0 l/m² 0,0 km/h (0 Bft) O-NO 73 ° 0 min 0 W/m² -7,8 °C -4,9 °C 0,0 km/h (0 Bft)
18.02.2025 19:54 23,1 °C -4,9 °C 39 % 80 % 1031,5 hPa 0,0 l/m² 0,0 km/h (0 Bft) O-NO 73 ° 0 min 0 W/m² -7,8 °C -4,9 °C 0,0 km/h (0 Bft)
18.02.2025 19:55 23,1 °C -5,0 °C 39 % 80 % 1031,4 hPa 0,0 l/m² 0,0 km/h (0 Bft) O-NO 73 ° 0 min 0 W/m² -7,9 °C -5,0 °C 0,0 km/h (0 Bft)
18.02.2025 19:57 23,1 °C -5,0 °C 39 % 81 % 1031,5 hPa 0,0 l/m² 0,0 km/h (0 Bft) O-NO 73 ° 0 min 0 W/m² -7,7 °C -5,0 °C 0,0 km/h (0 Bft)
18.02.2025 19:58 23,1 °C -5,1 °C 39 % 81 % 1031,5 hPa 0,0 l/m² 0,0 km/h (0 Bft) O-NO 73 ° 0 min 0 W/m² -7,8 °C -5,1 °C 0,0 km/h (0 Bft)
18.02.2025 19:59 23,0 °C -5,1 °C 39 % 81 % 1031,5 hPa 0,0 l/m² 0,0 km/h (0 Bft) O-NO 73 ° 0 min 0 W/m² -7,8 °C -5,1 °C 0,0 km/h (0 Bft)
18.02.2025 20:00 23,1 °C -5,1 °C 39 % 81 % 1031,5 hPa 0,0 l/m² 0,0 km/h (0 Bft) O-NO 73 ° 0 min 0 W/m² -7,8 °C -5,1 °C 0,0 km/h (0 Bft)
18.02.2025 20:01 23,0 °C -5,0 °C 39 % 82 % 1031,4 hPa 0,0 l/m² 0,0 km/h (0 Bft) O-NO 73 ° 0 min 0 W/m² -7,6 °C -5,0 °C 0,0 km/h (0 Bft)
18.02.2025 20:02 23,1 °C -5,1 °C 39 % 82 % 1031,5 hPa 0,0 l/m² 0,0 km/h (0 Bft) O-NO 73 ° 0 min 0 W/m² -7,7 °C -5,1 °C 0,0 km/h (0 Bft)
18.02.2025 20:03 23,1 °C -5,1 °C 39 % 82 % 1031,5 hPa 0,0 l/m² 0,0 km/h (0 Bft) O-NO 73 ° 0 min 0 W/m² -7,7 °C -5,1 °C 0,0 km/h (0 Bft)
18.02.2025 20:04 23,1 °C -5,1 °C 39 % 82 % 1031,4 hPa 0,0 l/m² 0,0 km/h (0 Bft) O-NO 73 ° 0 min 0 W/m² -7,7 °C -5,1 °C 0,0 km/h (0 Bft)
18.02.2025 20:05 23,1 °C -5,1 °C 39 % 82 % 1031,4 hPa 0,0 l/m² 0,0 km/h (0 Bft) O-NO 73 ° 0 min 0 W/m² -7,7 °C -5,1 °C 0,0 km/h (0 Bft)
18.02.2025 20:07 23,1 °C -5,2 °C 39 % 82 % 1031,5 hPa 0,0 l/m² 0,0 km/h (0 Bft) O-NO 73 ° 0 min 0 W/m² -7,8 °C -5,2 °C 0,0 km/h (0 Bft)
18.02.2025 20:08 23,1 °C -5,2 °C 39 % 82 % 1031,5 hPa 0,0 l/m² 0,0 km/h (0 Bft) O-NO 73 ° 0 min 0 W/m² -7,8 °C -5,2 °C 0,0 km/h (0 Bft)
18.02.2025 20:09 23,1 °C -5,2 °C 39 % 82 % 1031,4 hPa 0,0 l/m² 0,0 km/h (0 Bft) O-NO 73 ° 0 min 0 W/m² -7,8 °C -5,2 °C 0,0 km/h (0 Bft)
18.02.2025 20:10 23,1 °C -5,2 °C 39 % 82 % 1031,4 hPa 0,0 l/m² 0,0 km/h (0 Bft) O-NO 73 ° 0 min 0 W/m² -7,8 °C -5,2 °C 0,0 km/h (0 Bft)
18.02.2025 20:11 23,0 °C -5,2 °C 39 % 82 % 1031,4 hPa 0,0 l/m² 0,0 km/h (0 Bft) O-NO 73 ° 0 min 0 W/m² -7,8 °C -5,2 °C 0,0 km/h (0 Bft)
18.02.2025 20:12 23,1 °C -5,2 °C 39 % 82 % 1031,5 hPa 0,0 l/m² 0,0 km/h (0 Bft) O-NO 73 ° 0 min 0 W/m² -7,8 °C -5,2 °C 0,0 km/h (0 Bft)
18.02.2025 20:13 23,1 °C -5,2 °C 39 % 83 % 1031,5 hPa 0,0 l/m² 0,0 km/h (0 Bft) O-NO 73 ° 0 min 0 W/m² -7,6 °C -5,2 °C 0,0 km/h (0 Bft)
18.02.2025 20:14 23,1 °C -5,2 °C 39 % 83 % 1031,5 hPa 0,0 l/m² 0,0 km/h (0 Bft) O-NO 73 ° 0 min 0 W/m² -7,6 °C -5,2 °C 0,0 km/h (0 Bft)
18.02.2025 20:15 23,1 °C -5,3 °C 39 % 83 % 1031,4 hPa 0,0 l/m² 0,0 km/h (0 Bft) O-NO 73 ° 0 min 0 W/m² -7,7 °C -5,3 °C 0,0 km/h (0 Bft)
18.02.2025 20:16 23,1 °C -5,3 °C 40 % 83 % 1031,5 hPa 0,0 l/m² 0,0 km/h (0 Bft) O-NO 73 ° 0 min 0 W/m² -7,7 °C -5,3 °C 0,0 km/h (0 Bft)
18.02.2025 20:17 23,1 °C -5,3 °C 40 % 83 % 1031,4 hPa 0,0 l/m² 0,0 km/h (0 Bft) O-NO 73 ° 0 min 0 W/m² -7,7 °C -5,3 °C 0,0 km/h (0 Bft)
18.02.2025 20:18 23,1 °C -5,3 °C 40 % 83 % 1031,4 hPa 0,0 l/m² 0,0 km/h (0 Bft) O-NO 73 ° 0 min 0 W/m² -7,7 °C -5,3 °C 0,0 km/h (0 Bft)
18.02.2025 20:19 23,1 °C -5,4 °C 40 % 83 % 1031,4 hPa 0,0 l/m² 0,0 km/h (0 Bft) O-NO 73 ° 0 min 0 W/m² -7,8 °C -5,4 °C 0,0 km/h (0 Bft)
18.02.2025 20:20 23,1 °C -5,4 °C 40 % 83 % 1031,5 hPa 0,0 l/m² 0,0 km/h (0 Bft) O-NO 73 ° 0 min 0 W/m² -7,8 °C -5,4 °C 0,0 km/h (0 Bft)
18.02.2025 20:21 23,1 °C -5,4 °C 40 % 83 % 1031,5 hPa 0,0 l/m² 0,0 km/h (0 Bft) O-NO 73 ° 0 min 0 W/m² -7,8 °C -5,4 °C 0,0 km/h (0 Bft)
18.02.2025 20:22 23,1 °C -5,4 °C 40 % 83 % 1031,5 hPa 0,0 l/m² 0,0 km/h (0 Bft) O-NO 73 ° 0 min 0 W/m² -7,8 °C -5,4 °C 0,0 km/h (0 Bft)
18.02.2025 20:23 23,1 °C -5,5 °C 40 % 83 % 1031,5 hPa 0,0 l/m² 0,0 km/h (0 Bft) O-NO 73 ° 0 min 0 W/m² -7,9 °C -5,5 °C 0,0 km/h (0 Bft)
18.02.2025 20:24 23,1 °C -5,5 °C 40 % 83 % 1031,4 hPa 0,0 l/m² 0,0 km/h (0 Bft) O-NO 73 ° 0 min 0 W/m² -7,9 °C -5,5 °C 0,0 km/h (0 Bft)
18.02.2025 20:25 23,1 °C -5,5 °C 40 % 83 % 1031,4 hPa 0,0 l/m² 0,0 km/h (0 Bft) O-NO 73 ° 0 min 0 W/m² -7,9 °C -5,5 °C 0,0 km/h (0 Bft)
18.02.2025 20:26 23,1 °C -5,5 °C 40 % 84 % 1031,5 hPa 0,0 l/m² 0,4 km/h (0 Bft) O-NO 73 ° 0 min 0 W/m² -7,8 °C -5,5 °C 1,6 km/h (1 Bft)
18.02.2025 20:27 23,1 °C -5,5 °C 40 % 84 % 1031,5 hPa 0,0 l/m² 1,6 km/h (1 Bft) O-NO 73 ° 0 min 0 W/m² -7,8 °C -5,5 °C 3,2 km/h (1 Bft)
18.02.2025 20:28 23,1 °C -5,5 °C 40 % 83 % 1031,5 hPa 0,0 l/m² 1,9 km/h (1 Bft) O-NO 73 ° 0 min 0 W/m² -7,9 °C -5,5 °C 3,2 km/h (1 Bft)
18.02.2025 20:29 23,1 °C -5,6 °C 40 % 83 % 1031,5 hPa 0,0 l/m² 1,9 km/h (1 Bft) O-NO 73 ° 0 min 0 W/m² -8,0 °C -5,6 °C 3,2 km/h (1 Bft)
18.02.2025 20:30 23,1 °C -5,6 °C 40 % 83 % 1031,5 hPa 0,0 l/m² 2,0 km/h (1 Bft) O-NO 73 ° 0 min 0 W/m² -8,0 °C -5,6 °C 3,2 km/h (1 Bft)
18.02.2025 20:31 23,1 °C -5,6 °C 40 % 84 % 1031,5 hPa 0,0 l/m² 2,0 km/h (1 Bft) O-NO 73 ° 0 min 0 W/m² -7,9 °C -5,6 °C 3,2 km/h (1 Bft)
18.02.2025 20:32 23,1 °C -5,6 °C 40 % 84 % 1031,4 hPa 0,0 l/m² 2,9 km/h (1 Bft) O-NO 73 ° 0 min 0 W/m² -7,9 °C -5,6 °C 3,2 km/h (1 Bft)
18.02.2025 20:33 23,1 °C -5,6 °C 40 % 84 % 1031,5 hPa 0,0 l/m² 3,4 km/h (1 Bft) O-NO 73 ° 0 min 0 W/m² -7,9 °C -5,6 °C 4,8 km/h (1 Bft)
18.02.2025 20:34 23,1 °C -5,6 °C 40 % 84 % 1031,4 hPa 0,0 l/m² 3,4 km/h (1 Bft) O-NO 73 ° 0 min 0 W/m² -7,9 °C -5,6 °C 4,8 km/h (1 Bft)
18.02.2025 20:35 23,2 °C -5,6 °C 40 % 84 % 1031,5 hPa 0,0 l/m² 3,0 km/h (1 Bft) O-NO 73 ° 0 min 0 W/m² -7,9 °C -5,6 °C 4,8 km/h (1 Bft)
18.02.2025 20:36 23,1 °C -5,6 °C 40 % 84 % 1031,5 hPa 0,0 l/m² 3,0 km/h (1 Bft) O-NO 73 ° 0 min 0 W/m² -7,9 °C -5,6 °C 4,8 km/h (1 Bft)
18.02.2025 20:37 23,1 °C -5,6 °C 40 % 84 % 1031,5 hPa 0,0 l/m² 2,3 km/h (1 Bft) O-NO 73 ° 0 min 0 W/m² -7,9 °C -5,6 °C 3,2 km/h (1 Bft)
18.02.2025 20:38 23,2 °C -5,6 °C 40 % 84 % 1031,5 hPa 0,0 l/m² 2,1 km/h (1 Bft) O-NO 73 ° 0 min 0 W/m² -7,9 °C -5,6 °C 3,2 km/h (1 Bft)
18.02.2025 20:39 23,2 °C -5,7 °C 40 % 84 % 1031,5 hPa 0,0 l/m² 0,9 km/h (0 Bft) O-NO 73 ° 0 min 0 W/m² -8,0 °C -5,7 °C 3,2 km/h (1 Bft)
18.02.2025 20:40 23,2 °C -5,7 °C 40 % 84 % 1031,4 hPa 0,0 l/m² 1,7 km/h (1 Bft) O-NO 73 ° 0 min 0 W/m² -8,0 °C -5,7 °C 3,2 km/h (1 Bft)
18.02.2025 20:41 23,2 °C -5,7 °C 40 % 84 % 1031,4 hPa 0,0 l/m² 1,4 km/h (1 Bft) O-NO 73 ° 0 min 0 W/m² -8,0 °C -5,7 °C 1,6 km/h (1 Bft)
18.02.2025 20:42 23,2 °C -5,7 °C 40 % 84 % 1031,5 hPa 0,0 l/m² 1,0 km/h (0 Bft) O-NO 73 ° 0 min 0 W/m² -8,0 °C -5,7 °C 1,6 km/h (1 Bft)
18.02.2025 20:43 23,2 °C -5,7 °C 40 % 84 % 1031,5 hPa 0,0 l/m² 0,2 km/h (0 Bft) O-NO 73 ° 0 min 0 W/m² -8,0 °C -5,7 °C 1,6 km/h (1 Bft)
18.02.2025 20:44 23,2 °C -5,7 °C 40 % 84 % 1031,5 hPa 0,0 l/m² 0,0 km/h (0 Bft) O-NO 73 ° 0 min 0 W/m² -8,0 °C -5,7 °C 0,0 km/h (0 Bft)
18.02.2025 20:45 23,2 °C -5,8 °C 40 % 84 % 1031,5 hPa 0,0 l/m² 0,0 km/h (0 Bft) O-NO 73 ° 0 min 0 W/m² -8,1 °C -5,8 °C 0,0 km/h (0 Bft)
18.02.2025 20:46 23,2 °C -5,9 °C 40 % 84 % 1031,6 hPa 0,0 l/m² 0,0 km/h (0 Bft) O-NO 73 ° 0 min 0 W/m² -8,2 °C -5,9 °C 0,0 km/h (0 Bft)
18.02.2025 20:47 23,2 °C -5,9 °C 40 % 84 % 1031,6 hPa 0,0 l/m² 0,0 km/h (0 Bft) O-NO 73 ° 0 min 0 W/m² -8,2 °C -5,9 °C 0,0 km/h (0 Bft)
18.02.2025 20:48 23,2 °C -5,9 °C 40 % 84 % 1031,5 hPa 0,0 l/m² 0,0 km/h (0 Bft) O-NO 73 ° 0 min 0 W/m² -8,2 °C -5,9 °C 0,0 km/h (0 Bft)
18.02.2025 20:49 23,2 °C -5,9 °C 40 % 85 % 1031,6 hPa 0,0 l/m² 0,0 km/h (0 Bft) O-NO 73 ° 0 min 0 W/m² -8,0 °C -5,9 °C 0,0 km/h (0 Bft)
18.02.2025 20:50 23,2 °C -5,9 °C 40 % 85 % 1031,6 hPa 0,0 l/m² 0,0 km/h (0 Bft) O-NO 73 ° 0 min 0 W/m² -8,0 °C -5,9 °C 0,0 km/h (0 Bft)
18.02.2025 20:52 23,2 °C -5,9 °C 40 % 85 % 1031,7 hPa 0,0 l/m² 0,0 km/h (0 Bft) O-NO 73 ° 0 min 0 W/m² -8,0 °C -5,9 °C 0,0 km/h (0 Bft)
18.02.2025 20:53 23,2 °C -5,9 °C 40 % 85 % 1031,7 hPa 0,0 l/m² 0,0 km/h (0 Bft) O-NO 73 ° 0 min 0 W/m² -8,0 °C -5,9 °C 0,0 km/h (0 Bft)
18.02.2025 20:54 23,2 °C -6,0 °C 40 % 85 % 1031,6 hPa 0,0 l/m² 0,3 km/h (0 Bft) O-NO 73 ° 0 min 0 W/m² -8,1 °C -6,0 °C 1,6 km/h (1 Bft)
18.02.2025 20:55 23,2 °C -6,1 °C 40 % 85 % 1031,7 hPa 0,0 l/m² 1,2 km/h (1 Bft) NW 314 ° 0 min 0 W/m² -8,2 °C -6,1 °C 3,2 km/h (1 Bft)
18.02.2025 20:56 23,2 °C -6,1 °C 40 % 85 % 1031,7 hPa 0,0 l/m² 1,5 km/h (1 Bft) NW 311 ° 0 min 0 W/m² -8,2 °C -6,1 °C 3,2 km/h (1 Bft)
18.02.2025 20:57 23,2 °C -6,1 °C 40 % 85 % 1031,7 hPa 0,0 l/m² 2,4 km/h (1 Bft) W-NW 302 ° 0 min 0 W/m² -8,2 °C -6,1 °C 3,2 km/h (1 Bft)
18.02.2025 20:58 23,2 °C -6,1 °C 41 % 85 % 1031,7 hPa 0,0 l/m² 1,9 km/h (1 Bft) W-NW 297 ° 0 min 0 W/m² -8,2 °C -6,1 °C 3,2 km/h (1 Bft)
18.02.2025 20:59 23,2 °C -6,2 °C 41 % 85 % 1031,8 hPa 0,0 l/m² 1,7 km/h (1 Bft) W-NW 297 ° 0 min 0 W/m² -8,3 °C -6,2 °C 3,2 km/h (1 Bft)
18.02.2025 21:00 23,2 °C -6,1 °C 41 % 85 % 1031,8 hPa 0,0 l/m² 1,5 km/h (1 Bft) W-NW 297 ° 0 min 0 W/m² -8,2 °C -6,1 °C 3,2 km/h (1 Bft)
18.02.2025 21:01 23,3 °C -6,1 °C 41 % 85 % 1031,8 hPa 0,0 l/m² 0,1 km/h (0 Bft) W-NW 297 ° 0 min 0 W/m² -8,2 °C -6,1 °C 1,6 km/h (1 Bft)
18.02.2025 21:02 23,2 °C -6,1 °C 41 % 85 % 1031,8 hPa 0,0 l/m² 0,0 km/h (0 Bft) W-NW 297 ° 0 min 0 W/m² -8,2 °C -6,1 °C 0,0 km/h (0 Bft)
18.02.2025 21:03 23,3 °C -6,1 °C 41 % 85 % 1031,7 hPa 0,0 l/m² 0,0 km/h (0 Bft) W-NW 297 ° 0 min 0 W/m² -8,2 °C -6,1 °C 0,0 km/h (0 Bft)
18.02.2025 21:04 23,3 °C -6,1 °C 40 % 85 % 1031,8 hPa 0,0 l/m² 0,0 km/h (0 Bft) W-NW 297 ° 0 min 0 W/m² -8,2 °C -6,1 °C 0,0 km/h (0 Bft)
18.02.2025 21:05 23,3 °C -6,1 °C 40 % 85 % 1031,7 hPa 0,0 l/m² 0,0 km/h (0 Bft) W-NW 297 ° 0 min 0 W/m² -8,2 °C -6,1 °C 0,0 km/h (0 Bft)
18.02.2025 21:06 23,3 °C -6,1 °C 40 % 85 % 1031,8 hPa 0,0 l/m² 0,0 km/h (0 Bft) W-NW 297 ° 0 min 0 W/m² -8,2 °C -6,1 °C 0,0 km/h (0 Bft)
18.02.2025 21:07 23,2 °C -6,1 °C 40 % 85 % 1031,8 hPa 0,0 l/m² 0,0 km/h (0 Bft) W-NW 297 ° 0 min 0 W/m² -8,2 °C -6,1 °C 0,0 km/h (0 Bft)
18.02.2025 21:08 23,3 °C -6,1 °C 40 % 85 % 1031,8 hPa 0,0 l/m² 0,0 km/h (0 Bft) W-NW 297 ° 0 min 0 W/m² -8,2 °C -6,1 °C 0,0 km/h (0 Bft)
18.02.2025 21:09 23,3 °C -6,1 °C 40 % 85 % 1031,8 hPa 0,0 l/m² 0,0 km/h (0 Bft) W-NW 297 ° 0 min 0 W/m² -8,2 °C -6,1 °C 0,0 km/h (0 Bft)
18.02.2025 21:10 23,2 °C -6,1 °C 40 % 85 % 1031,8 hPa 0,0 l/m² 0,0 km/h (0 Bft) W-NW 297 ° 0 min 0 W/m² -8,2 °C -6,1 °C 0,0 km/h (0 Bft)
18.02.2025 21:11 23,2 °C -6,2 °C 40 % 85 % 1031,7 hPa 0,0 l/m² 0,0 km/h (0 Bft) W-NW 297 ° 0 min 0 W/m² -8,3 °C -6,2 °C 0,0 km/h (0 Bft)
18.02.2025 21:12 23,3 °C -6,2 °C 40 % 85 % 1031,8 hPa 0,0 l/m² 0,0 km/h (0 Bft) W-NW 297 ° 0 min 0 W/m² -8,3 °C -6,2 °C 0,0 km/h (0 Bft)
18.02.2025 21:13 23,3 °C -6,3 °C 40 % 85 % 1031,8 hPa 0,0 l/m² 0,0 km/h (0 Bft) W-NW 297 ° 0 min 0 W/m² -8,4 °C -6,3 °C 0,0 km/h (0 Bft)
18.02.2025 21:14 23,2 °C -6,3 °C 40 % 85 % 1031,7 hPa 0,0 l/m² 0,0 km/h (0 Bft) W-NW 297 ° 0 min 0 W/m² -8,4 °C -6,3 °C 0,0 km/h (0 Bft)
18.02.2025 21:15 23,2 °C -6,4 °C 40 % 85 % 1031,8 hPa 0,0 l/m² 0,0 km/h (0 Bft) W-NW 297 ° 0 min 0 W/m² -8,5 °C -6,4 °C 0,0 km/h (0 Bft)
18.02.2025 21:16 23,2 °C -6,6 °C 40 % 85 % 1031,8 hPa 0,0 l/m² 0,0 km/h (0 Bft) W-NW 299 ° 0 min 0 W/m² -8,7 °C -6,6 °C 0,0 km/h (0 Bft)
18.02.2025 21:17 23,3 °C -6,6 °C 40 % 85 % 1031,7 hPa 0,0 l/m² 0,0 km/h (0 Bft) W-NW 299 ° 0 min 0 W/m² -8,7 °C -6,6 °C 0,0 km/h (0 Bft)
18.02.2025 21:18 23,3 °C -6,7 °C 40 % 85 % 1031,8 hPa 0,0 l/m² 0,0 km/h (0 Bft) W-NW 299 ° 0 min 0 W/m² -8,8 °C -6,7 °C 0,0 km/h (0 Bft)
18.02.2025 21:19 23,3 °C -6,6 °C 40 % 85 % 1031,8 hPa 0,0 l/m² 0,0 km/h (0 Bft) W-NW 299 ° 0 min 0 W/m² -8,7 °C -6,6 °C 0,0 km/h (0 Bft)
18.02.2025 21:20 23,2 °C -6,6 °C 40 % 85 % 1031,7 hPa 0,0 l/m² 0,0 km/h (0 Bft) W-NW 299 ° 0 min 0 W/m² -8,7 °C -6,6 °C 0,0 km/h (0 Bft)
18.02.2025 21:21 23,2 °C -6,6 °C 40 % 85 % 1031,7 hPa 0,0 l/m² 0,0 km/h (0 Bft) W-NW 299 ° 0 min 0 W/m² -8,7 °C -6,6 °C 0,0 km/h (0 Bft)
18.02.2025 21:22 23,2 °C -6,6 °C 40 % 85 % 1031,7 hPa 0,0 l/m² 0,0 km/h (0 Bft) W-NW 299 ° 0 min 0 W/m² -8,7 °C -6,6 °C 0,0 km/h (0 Bft)
18.02.2025 21:23 23,3 °C -6,6 °C 40 % 86 % 1031,7 hPa 0,0 l/m² 0,0 km/h (0 Bft) W-NW 299 ° 0 min 0 W/m² -8,5 °C -6,6 °C 0,0 km/h (0 Bft)
18.02.2025 21:24 23,3 °C -6,5 °C 40 % 86 % 1031,8 hPa 0,0 l/m² 0,0 km/h (0 Bft) W-NW 299 ° 0 min 0 W/m² -8,4 °C -6,5 °C 0,0 km/h (0 Bft)
18.02.2025 21:25 23,2 °C -6,5 °C 40 % 86 % 1031,7 hPa 0,0 l/m² 0,0 km/h (0 Bft) W-NW 299 ° 0 min 0 W/m² -8,4 °C -6,5 °C 0,0 km/h (0 Bft)
18.02.2025 21:26 23,2 °C -6,4 °C 40 % 86 % 1031,7 hPa 0,0 l/m² 0,0 km/h (0 Bft) W-NW 299 ° 0 min 0 W/m² -8,3 °C -6,4 °C 0,0 km/h (0 Bft)
18.02.2025 21:27 23,2 °C -6,5 °C 40 % 86 % 1031,8 hPa 0,0 l/m² 0,0 km/h (0 Bft) W-NW 299 ° 0 min 0 W/m² -8,4 °C -6,5 °C 0,0 km/h (0 Bft)
18.02.2025 21:28 23,2 °C -6,5 °C 39 % 86 % 1031,7 hPa 0,0 l/m² 0,0 km/h (0 Bft) W-NW 299 ° 0 min 0 W/m² -8,4 °C -6,5 °C 0,0 km/h (0 Bft)
18.02.2025 21:29 23,2 °C -6,5 °C 39 % 86 % 1031,7 hPa 0,0 l/m² 0,0 km/h (0 Bft) W-NW 299 ° 0 min 0 W/m² -8,4 °C -6,5 °C 0,0 km/h (0 Bft)
18.02.2025 21:30 23,2 °C -6,6 °C 39 % 86 % 1031,7 hPa 0,0 l/m² 0,0 km/h (0 Bft) W-NW 299 ° 0 min 0 W/m² -8,5 °C -6,6 °C 0,0 km/h (0 Bft)
18.02.2025 21:31 23,2 °C -6,5 °C 39 % 86 % 1031,7 hPa 0,0 l/m² 0,0 km/h (0 Bft) W-NW 299 ° 0 min 0 W/m² -8,4 °C -6,5 °C 0,0 km/h (0 Bft)
18.02.2025 21:32 23,2 °C -6,5 °C 39 % 86 % 1031,7 hPa 0,0 l/m² 1,2 km/h (1 Bft) NW 315 ° 0 min 0 W/m² -8,4 °C -6,5 °C 3,2 km/h (1 Bft)
18.02.2025 21:33 23,2 °C -6,5 °C 39 % 86 % 1031,8 hPa 0,0 l/m² 2,1 km/h (1 Bft) N-NW 329 ° 0 min 0 W/m² -8,4 °C -6,5 °C 3,2 km/h (1 Bft)
18.02.2025 21:34 23,2 °C -6,4 °C 39 % 86 % 1031,7 hPa 0,0 l/m² 0,1 km/h (0 Bft) N-NW 329 ° 0 min 0 W/m² -8,3 °C -6,4 °C 1,6 km/h (1 Bft)
18.02.2025 21:35 23,3 °C -6,4 °C 39 % 86 % 1031,7 hPa 0,0 l/m² 0,8 km/h (0 Bft) N-NW 329 ° 0 min 0 W/m² -8,3 °C -6,4 °C 1,6 km/h (1 Bft)
18.02.2025 21:36 23,2 °C -6,5 °C 39 % 86 % 1031,7 hPa 0,0 l/m² 1,8 km/h (1 Bft) N-NW 344 ° 0 min 0 W/m² -8,4 °C -6,5 °C 3,2 km/h (1 Bft)
18.02.2025 21:37 23,2 °C -6,5 °C 39 % 86 % 1031,7 hPa 0,0 l/m² 1,9 km/h (1 Bft) N 355 ° 0 min 0 W/m² -8,4 °C -6,5 °C 3,2 km/h (1 Bft)
18.02.2025 21:38 23,2 °C -6,6 °C 39 % 86 % 1031,7 hPa 0,0 l/m² 2,2 km/h (1 Bft) N 355 ° 0 min 0 W/m² -8,5 °C -6,6 °C 3,2 km/h (1 Bft)
18.02.2025 21:39 23,2 °C -6,6 °C 39 % 86 % 1031,7 hPa 0,0 l/m² 2,1 km/h (1 Bft) N 355 ° 0 min 0 W/m² -8,5 °C -6,6 °C 3,2 km/h (1 Bft)
18.02.2025 21:40 23,2 °C -6,6 °C 39 % 85 % 1031,6 hPa 0,0 l/m² 2,3 km/h (1 Bft) N 355 ° 0 min 0 W/m² -8,7 °C -6,6 °C 4,8 km/h (1 Bft)
18.02.2025 21:41 23,2 °C -6,6 °C 39 % 86 % 1031,6 hPa 0,0 l/m² 3,0 km/h (1 Bft) N 355 ° 0 min 0 W/m² -8,5 °C -6,6 °C 4,8 km/h (1 Bft)
18.02.2025 21:42 23,2 °C -6,6 °C 39 % 86 % 1031,7 hPa 0,0 l/m² 1,9 km/h (1 Bft) N 355 ° 0 min 0 W/m² -8,5 °C -6,6 °C 3,2 km/h (1 Bft)
18.02.2025 21:43 23,2 °C -6,6 °C 39 % 86 % 1031,7 hPa 0,0 l/m² 1,5 km/h (1 Bft) N 355 ° 0 min 0 W/m² -8,5 °C -6,6 °C 3,2 km/h (1 Bft)
18.02.2025 21:44 23,2 °C -6,5 °C 39 % 86 % 1031,7 hPa 0,0 l/m² 0,4 km/h (0 Bft) N 355 ° 0 min 0 W/m² -8,4 °C -6,5 °C 1,6 km/h (1 Bft)
18.02.2025 21:46 23,2 °C -6,4 °C 40 % 86 % 1031,7 hPa 0,0 l/m² 0,0 km/h (0 Bft) N 355 ° 0 min 0 W/m² -8,3 °C -6,4 °C 0,0 km/h (0 Bft)
18.02.2025 21:47 23,2 °C -6,4 °C 39 % 86 % 1031,8 hPa 0,0 l/m² 0,1 km/h (0 Bft) N 355 ° 0 min 0 W/m² -8,3 °C -6,4 °C 1,6 km/h (1 Bft)
18.02.2025 21:48 23,2 °C -6,4 °C 39 % 86 % 1031,7 hPa 0,0 l/m² 1,7 km/h (1 Bft) N 355 ° 0 min 0 W/m² -8,3 °C -6,4 °C 3,2 km/h (1 Bft)
18.02.2025 21:49 23,2 °C -6,4 °C 40 % 86 % 1031,8 hPa 0,0 l/m² 2,7 km/h (1 Bft) N 355 ° 0 min 0 W/m² -8,3 °C -6,4 °C 3,2 km/h (1 Bft)
18.02.2025 21:50 23,2 °C -6,3 °C 40 % 86 % 1031,7 hPa 0,0 l/m² 2,3 km/h (1 Bft) N 355 ° 0 min 0 W/m² -8,2 °C -6,3 °C 3,2 km/h (1 Bft)
18.02.2025 21:51 23,2 °C -6,4 °C 40 % 86 % 1031,8 hPa 0,0 l/m² 1,4 km/h (1 Bft) N 355 ° 0 min 0 W/m² -8,3 °C -6,4 °C 1,6 km/h (1 Bft)
18.02.2025 21:52 23,2 °C -6,4 °C 40 % 85 % 1031,8 hPa 0,0 l/m² 0,6 km/h (0 Bft) N 355 ° 0 min 0 W/m² -8,5 °C -6,4 °C 1,6 km/h (1 Bft)
18.02.2025 21:53 23,2 °C -6,5 °C 40 % 85 % 1031,7 hPa 0,0 l/m² 0,8 km/h (0 Bft) N 355 ° 0 min 0 W/m² -8,6 °C -6,5 °C 1,6 km/h (1 Bft)
18.02.2025 21:54 23,2 °C -6,6 °C 40 % 85 % 1031,7 hPa 0,0 l/m² 0,6 km/h (0 Bft) N 355 ° 0 min 0 W/m² -8,7 °C -6,6 °C 1,6 km/h (1 Bft)
18.02.2025 21:55 23,2 °C -6,6 °C 40 % 85 % 1031,7 hPa 0,0 l/m² 0,0 km/h (0 Bft) N 355 ° 0 min 0 W/m² -8,7 °C -6,6 °C 0,0 km/h (0 Bft)
18.02.2025 21:56 23,2 °C -6,7 °C 40 % 85 % 1031,6 hPa 0,0 l/m² 0,0 km/h (0 Bft) N 355 ° 0 min 0 W/m² -8,8 °C -6,7 °C 0,0 km/h (0 Bft)
18.02.2025 21:57 23,2 °C -6,7 °C 40 % 85 % 1031,6 hPa 0,0 l/m² 0,0 km/h (0 Bft) N 355 ° 0 min 0 W/m² -8,8 °C -6,7 °C 0,0 km/h (0 Bft)
18.02.2025 21:58 23,2 °C -6,7 °C 40 % 85 % 1031,7 hPa 0,0 l/m² 0,0 km/h (0 Bft) N 355 ° 0 min 0 W/m² -8,8 °C -6,7 °C 0,0 km/h (0 Bft)
18.02.2025 21:59 23,2 °C -6,8 °C 40 % 85 % 1031,7 hPa 0,0 l/m² 0,0 km/h (0 Bft) N 355 ° 0 min 0 W/m² -8,9 °C -6,8 °C 0,0 km/h (0 Bft)
18.02.2025 22:00 23,2 °C -6,8 °C 40 % 85 % 1031,7 hPa 0,0 l/m² 0,0 km/h (0 Bft) N 355 ° 0 min 0 W/m² -8,9 °C -6,8 °C 0,0 km/h (0 Bft)
18.02.2025 22:01 23,2 °C -6,8 °C 40 % 86 % 1031,7 hPa 0,0 l/m² 0,0 km/h (0 Bft) N 355 ° 0 min 0 W/m² -8,7 °C -6,8 °C 0,0 km/h (0 Bft)
18.02.2025 22:02 23,2 °C -6,8 °C 40 % 86 % 1031,7 hPa 0,0 l/m² 0,0 km/h (0 Bft) N 355 ° 0 min 0 W/m² -8,7 °C -6,8 °C 0,0 km/h (0 Bft)
18.02.2025 22:03 23,2 °C -6,8 °C 40 % 86 % 1031,7 hPa 0,0 l/m² 0,0 km/h (0 Bft) N 355 ° 0 min 0 W/m² -8,7 °C -6,8 °C 0,0 km/h (0 Bft)
18.02.2025 22:04 23,2 °C -6,8 °C 40 % 86 % 1031,7 hPa 0,0 l/m² 0,0 km/h (0 Bft) N 355 ° 0 min 0 W/m² -8,7 °C -6,8 °C 0,0 km/h (0 Bft)
18.02.2025 22:05 23,2 °C -6,8 °C 40 % 86 % 1031,6 hPa 0,0 l/m² 0,0 km/h (0 Bft) N 355 ° 0 min 0 W/m² -8,7 °C -6,8 °C 0,0 km/h (0 Bft)
18.02.2025 22:06 23,2 °C -6,9 °C 40 % 86 % 1031,7 hPa 0,0 l/m² 0,0 km/h (0 Bft) N 355 ° 0 min 0 W/m² -8,8 °C -6,9 °C 0,0 km/h (0 Bft)
18.02.2025 22:07 23,2 °C -6,8 °C 40 % 86 % 1031,7 hPa 0,0 l/m² 0,0 km/h (0 Bft) N 355 ° 0 min 0 W/m² -8,7 °C -6,8 °C 0,0 km/h (0 Bft)
18.02.2025 22:08 23,2 °C -6,8 °C 40 % 86 % 1031,6 hPa 0,0 l/m² 0,0 km/h (0 Bft) N 355 ° 0 min 0 W/m² -8,7 °C -6,8 °C 0,0 km/h (0 Bft)
18.02.2025 22:09 23,2 °C -6,8 °C 40 % 86 % 1031,8 hPa 0,0 l/m² 0,0 km/h (0 Bft) N 355 ° 0 min 0 W/m² -8,7 °C -6,8 °C 0,0 km/h (0 Bft)
18.02.2025 22:10 23,2 °C -6,9 °C 40 % 86 % 1031,7 hPa 0,0 l/m² 0,0 km/h (0 Bft) N 355 ° 0 min 0 W/m² -8,8 °C -6,9 °C 0,0 km/h (0 Bft)
18.02.2025 22:11 23,2 °C -6,9 °C 40 % 86 % 1031,6 hPa 0,0 l/m² 0,0 km/h (0 Bft) N 355 ° 0 min 0 W/m² -8,8 °C -6,9 °C 0,0 km/h (0 Bft)
18.02.2025 22:12 23,2 °C -7,0 °C 40 % 86 % 1031,7 hPa 0,0 l/m² 0,0 km/h (0 Bft) N 355 ° 0 min 0 W/m² -8,9 °C -7,0 °C 0,0 km/h (0 Bft)
18.02.2025 22:13 23,1 °C -7,0 °C 40 % 86 % 1031,7 hPa 0,0 l/m² 0,0 km/h (0 Bft) N 355 ° 0 min 0 W/m² -8,9 °C -7,0 °C 0,0 km/h (0 Bft)
18.02.2025 22:14 23,2 °C -7,1 °C 40 % 86 % 1031,7 hPa 0,0 l/m² 0,0 km/h (0 Bft) N 355 ° 0 min 0 W/m² -9,0 °C -7,1 °C 0,0 km/h (0 Bft)
18.02.2025 22:15 23,1 °C -7,1 °C 40 % 86 % 1031,6 hPa 0,0 l/m² 0,0 km/h (0 Bft) N 355 ° 0 min 0 W/m² -9,0 °C -7,1 °C 0,0 km/h (0 Bft)
18.02.2025 22:16 23,1 °C -7,1 °C 40 % 86 % 1031,7 hPa 0,0 l/m² 0,0 km/h (0 Bft) N 355 ° 0 min 0 W/m² -9,0 °C -7,1 °C 0,0 km/h (0 Bft)
18.02.2025 22:17 23,1 °C -7,2 °C 40 % 86 % 1031,7 hPa 0,0 l/m² 0,0 km/h (0 Bft) N 355 ° 0 min 0 W/m² -9,1 °C -7,2 °C 0,0 km/h (0 Bft)
18.02.2025 22:18 23,1 °C -7,1 °C 40 % 86 % 1031,7 hPa 0,0 l/m² 0,0 km/h (0 Bft) N 355 ° 0 min 0 W/m² -9,0 °C -7,1 °C 0,0 km/h (0 Bft)
18.02.2025 22:19 23,2 °C -7,1 °C 40 % 86 % 1031,7 hPa 0,0 l/m² 0,0 km/h (0 Bft) N 355 ° 0 min 0 W/m² -9,0 °C -7,1 °C 0,0 km/h (0 Bft)
18.02.2025 22:20 23,1 °C -7,1 °C 40 % 86 % 1031,6 hPa 0,0 l/m² 0,0 km/h (0 Bft) N 355 ° 0 min 0 W/m² -9,0 °C -7,1 °C 0,0 km/h (0 Bft)
18.02.2025 22:21 23,2 °C -7,1 °C 40 % 87 % 1031,6 hPa 0,0 l/m² 0,0 km/h (0 Bft) N 355 ° 0 min 0 W/m² -8,9 °C -7,1 °C 0,0 km/h (0 Bft)
18.02.2025 22:22 23,2 °C -7,1 °C 40 % 86 % 1031,6 hPa 0,0 l/m² 0,0 km/h (0 Bft) N 355 ° 0 min 0 W/m² -9,0 °C -7,1 °C 0,0 km/h (0 Bft)
18.02.2025 22:23 23,1 °C -7,2 °C 40 % 86 % 1031,6 hPa 0,0 l/m² 0,0 km/h (0 Bft) N 355 ° 0 min 0 W/m² -9,1 °C -7,2 °C 0,0 km/h (0 Bft)
18.02.2025 22:24 23,1 °C -7,2 °C 40 % 86 % 1031,6 hPa 0,0 l/m² 0,0 km/h (0 Bft) N 355 ° 0 min 0 W/m² -9,1 °C -7,2 °C 0,0 km/h (0 Bft)
18.02.2025 22:25 23,1 °C -7,2 °C 40 % 86 % 1031,6 hPa 0,0 l/m² 0,0 km/h (0 Bft) N 355 ° 0 min 0 W/m² -9,1 °C -7,2 °C 0,0 km/h (0 Bft)
18.02.2025 22:26 23,2 °C -7,3 °C 40 % 86 % 1031,5 hPa 0,0 l/m² 0,0 km/h (0 Bft) N 355 ° 0 min 0 W/m² -9,2 °C -7,3 °C 0,0 km/h (0 Bft)
18.02.2025 22:27 23,1 °C -7,3 °C 40 % 86 % 1031,6 hPa 0,0 l/m² 0,0 km/h (0 Bft) N 355 ° 0 min 0 W/m² -9,2 °C -7,3 °C 0,0 km/h (0 Bft)
18.02.2025 22:28 23,1 °C -7,3 °C 40 % 86 % 1031,5 hPa 0,0 l/m² 0,0 km/h (0 Bft) N 355 ° 0 min 0 W/m² -9,2 °C -7,3 °C 0,0 km/h (0 Bft)
18.02.2025 22:29 23,1 °C -7,3 °C 40 % 86 % 1031,5 hPa 0,0 l/m² 0,0 km/h (0 Bft) N 355 ° 0 min 0 W/m² -9,2 °C -7,3 °C 0,0 km/h (0 Bft)
18.02.2025 22:30 23,1 °C -7,3 °C 40 % 86 % 1031,6 hPa 0,0 l/m² 0,0 km/h (0 Bft) N 355 ° 0 min 0 W/m² -9,2 °C -7,3 °C 0,0 km/h (0 Bft)
18.02.2025 22:31 23,1 °C -7,3 °C 40 % 87 % 1031,6 hPa 0,0 l/m² 0,0 km/h (0 Bft) N 355 ° 0 min 0 W/m² -9,1 °C -7,3 °C 0,0 km/h (0 Bft)
18.02.2025 22:32 23,1 °C -7,3 °C 40 % 87 % 1031,5 hPa 0,0 l/m² 0,0 km/h (0 Bft) N 355 ° 0 min 0 W/m² -9,1 °C -7,3 °C 0,0 km/h (0 Bft)
18.02.2025 22:33 23,1 °C -7,3 °C 40 % 87 % 1031,5 hPa 0,0 l/m² 0,0 km/h (0 Bft) N 355 ° 0 min 0 W/m² -9,1 °C -7,3 °C 0,0 km/h (0 Bft)
18.02.2025 22:34 23,1 °C -7,3 °C 40 % 87 % 1031,5 hPa 0,0 l/m² 0,1 km/h (0 Bft) N 355 ° 0 min 0 W/m² -9,1 °C -7,3 °C 1,6 km/h (1 Bft)
18.02.2025 22:35 23,1 °C -7,3 °C 40 % 87 % 1031,4 hPa 0,0 l/m² 1,6 km/h (1 Bft) N 351 ° 0 min 0 W/m² -9,1 °C -7,3 °C 3,2 km/h (1 Bft)
18.02.2025 22:36 23,1 °C -7,2 °C 40 % 87 % 1031,4 hPa 0,0 l/m² 2,1 km/h (1 Bft) NO 52 ° 0 min 0 W/m² -9,0 °C -7,2 °C 3,2 km/h (1 Bft)
18.02.2025 22:37 23,1 °C -7,2 °C 40 % 87 % 1031,5 hPa 0,0 l/m² 2,2 km/h (1 Bft) NO 52 ° 0 min 0 W/m² -9,0 °C -7,2 °C 3,2 km/h (1 Bft)
18.02.2025 22:38 23,1 °C -7,2 °C 40 % 87 % 1031,4 hPa 0,0 l/m² 2,2 km/h (1 Bft) NO 52 ° 0 min 0 W/m² -9,0 °C -7,2 °C 3,2 km/h (1 Bft)
18.02.2025 22:39 23,1 °C -7,2 °C 40 % 87 % 1031,4 hPa 0,0 l/m² 2,2 km/h (1 Bft) NO 52 ° 0 min 0 W/m² -9,0 °C -7,2 °C 3,2 km/h (1 Bft)
18.02.2025 22:40 23,1 °C -7,2 °C 40 % 87 % 1031,5 hPa 0,0 l/m² 1,9 km/h (1 Bft) NO 52 ° 0 min 0 W/m² -9,0 °C -7,2 °C 3,2 km/h (1 Bft)
18.02.2025 22:42 23,1 °C -7,2 °C 40 % 87 % 1031,4 hPa 0,0 l/m² 1,7 km/h (1 Bft) NO 52 ° 0 min 0 W/m² -9,0 °C -7,2 °C 3,2 km/h (1 Bft)
18.02.2025 22:43 23,1 °C -7,2 °C 40 % 87 % 1031,4 hPa 0,0 l/m² 1,5 km/h (1 Bft) NO 52 ° 0 min 0 W/m² -9,0 °C -7,2 °C 1,6 km/h (1 Bft)
18.02.2025 22:44 23,1 °C -7,2 °C 40 % 87 % 1031,5 hPa 0,0 l/m² 2,3 km/h (1 Bft) NO 54 ° 0 min 0 W/m² -9,0 °C -7,2 °C 3,2 km/h (1 Bft)
18.02.2025 22:45 23,1 °C -7,2 °C 40 % 87 % 1031,4 hPa 0,0 l/m² 2,4 km/h (1 Bft) NO 55 ° 0 min 0 W/m² -9,0 °C -7,2 °C 3,2 km/h (1 Bft)
18.02.2025 22:46 23,1 °C -7,2 °C 40 % 87 % 1031,5 hPa 0,0 l/m² 2,7 km/h (1 Bft) O-NO 57 ° 0 min 0 W/m² -9,0 °C -7,2 °C 3,2 km/h (1 Bft)
18.02.2025 22:47 23,1 °C -7,2 °C 40 % 87 % 1031,4 hPa 0,0 l/m² 2,7 km/h (1 Bft) O-NO 59 ° 0 min 0 W/m² -9,0 °C -7,2 °C 3,2 km/h (1 Bft)
18.02.2025 22:48 23,1 °C -7,2 °C 40 % 87 % 1031,4 hPa 0,0 l/m² 2,3 km/h (1 Bft) O-NO 59 ° 0 min 0 W/m² -9,0 °C -7,2 °C 3,2 km/h (1 Bft)
18.02.2025 22:49 23,1 °C -7,2 °C 40 % 87 % 1031,5 hPa 0,0 l/m² 2,0 km/h (1 Bft) O-NO 59 ° 0 min 0 W/m² -9,0 °C -7,2 °C 3,2 km/h (1 Bft)
18.02.2025 22:50 23,1 °C -7,2 °C 40 % 87 % 1031,4 hPa 0,0 l/m² 1,5 km/h (1 Bft) O-NO 59 ° 0 min 0 W/m² -9,0 °C -7,2 °C 3,2 km/h (1 Bft)
18.02.2025 22:51 23,1 °C -7,2 °C 40 % 87 % 1031,5 hPa 0,0 l/m² 1,3 km/h (1 Bft) O-NO 59 ° 0 min 0 W/m² -9,0 °C -7,2 °C 1,6 km/h (1 Bft)
18.02.2025 22:52 23,1 °C -7,2 °C 40 % 87 % 1031,4 hPa 0,0 l/m² 0,1 km/h (0 Bft) O-NO 59 ° 0 min 0 W/m² -9,0 °C -7,2 °C 1,6 km/h (1 Bft)
18.02.2025 22:53 23,1 °C -7,2 °C 40 % 87 % 1031,4 hPa 0,0 l/m² 0,1 km/h (0 Bft) O-NO 59 ° 0 min 0 W/m² -9,0 °C -7,2 °C 1,6 km/h (1 Bft)
18.02.2025 22:54 23,1 °C -7,3 °C 40 % 86 % 1031,5 hPa 0,0 l/m² 1,1 km/h (1 Bft) O-NO 59 ° 0 min 0 W/m² -9,2 °C -7,3 °C 1,6 km/h (1 Bft)
18.02.2025 22:55 23,1 °C -7,3 °C 40 % 86 % 1031,5 hPa 0,0 l/m² 0,2 km/h (0 Bft) O-NO 59 ° 0 min 0 W/m² -9,2 °C -7,3 °C 1,6 km/h (1 Bft)
18.02.2025 22:57 23,1 °C -7,3 °C 40 % 87 % 1031,5 hPa 0,0 l/m² 0,0 km/h (0 Bft) O-NO 59 ° 0 min 0 W/m² -9,1 °C -7,3 °C 0,0 km/h (0 Bft)
18.02.2025 22:58 23,1 °C -7,4 °C 40 % 87 % 1031,5 hPa 0,0 l/m² 0,0 km/h (0 Bft) O-NO 59 ° 0 min 0 W/m² -9,2 °C -7,4 °C 0,0 km/h (0 Bft)
18.02.2025 22:59 23,1 °C -7,3 °C 40 % 87 % 1031,5 hPa 0,0 l/m² 0,0 km/h (0 Bft) O-NO 59 ° 0 min 0 W/m² -9,1 °C -7,3 °C 0,0 km/h (0 Bft)
18.02.2025 23:00 23,1 °C -7,4 °C 40 % 87 % 1031,5 hPa 0,0 l/m² 0,0 km/h (0 Bft) O-NO 59 ° 0 min 0 W/m² -9,2 °C -7,4 °C 0,0 km/h (0 Bft)
18.02.2025 23:01 23,1 °C -7,3 °C 40 % 87 % 1031,5 hPa 0,0 l/m² 0,0 km/h (0 Bft) O-NO 59 ° 0 min 0 W/m² -9,1 °C -7,3 °C 0,0 km/h (0 Bft)
18.02.2025 23:02 23,1 °C -7,4 °C 40 % 87 % 1031,5 hPa 0,0 l/m² 0,0 km/h (0 Bft) O-NO 59 ° 0 min 0 W/m² -9,2 °C -7,4 °C 0,0 km/h (0 Bft)
18.02.2025 23:03 23,1 °C -7,4 °C 40 % 87 % 1031,6 hPa 0,0 l/m² 0,0 km/h (0 Bft) O-NO 59 ° 0 min 0 W/m² -9,2 °C -7,4 °C 0,0 km/h (0 Bft)
18.02.2025 23:04 23,1 °C -7,4 °C 40 % 87 % 1031,5 hPa 0,0 l/m² 0,0 km/h (0 Bft) O-NO 59 ° 0 min 0 W/m² -9,2 °C -7,4 °C 0,0 km/h (0 Bft)
18.02.2025 23:05 23,1 °C -7,4 °C 40 % 87 % 1031,6 hPa 0,0 l/m² 0,0 km/h (0 Bft) O-NO 59 ° 0 min 0 W/m² -9,2 °C -7,4 °C 0,0 km/h (0 Bft)
18.02.2025 23:07 23,1 °C -7,6 °C 40 % 87 % 1031,6 hPa 0,0 l/m² 0,0 km/h (0 Bft) O-NO 59 ° 0 min 0 W/m² -9,4 °C -7,6 °C 0,0 km/h (0 Bft)
18.02.2025 23:08 23,1 °C -7,6 °C 40 % 87 % 1031,6 hPa 0,0 l/m² 0,0 km/h (0 Bft) O-NO 58 ° 0 min 0 W/m² -9,4 °C -7,6 °C 0,0 km/h (0 Bft)
18.02.2025 23:09 23,1 °C -7,6 °C 40 % 87 % 1031,5 hPa 0,0 l/m² 0,3 km/h (0 Bft) O-NO 58 ° 0 min 0 W/m² -9,4 °C -7,6 °C 1,6 km/h (1 Bft)
18.02.2025 23:10 23,1 °C -7,6 °C 40 % 87 % 1031,6 hPa 0,0 l/m² 1,9 km/h (1 Bft) NO 46 ° 0 min 0 W/m² -9,4 °C -7,6 °C 3,2 km/h (1 Bft)
18.02.2025 23:11 23,1 °C -7,6 °C 40 % 87 % 1031,6 hPa 0,0 l/m² 2,4 km/h (1 Bft) NO 35 ° 0 min 0 W/m² -9,4 °C -7,6 °C 3,2 km/h (1 Bft)
18.02.2025 23:12 23,1 °C -7,6 °C 40 % 87 % 1031,6 hPa 0,0 l/m² 2,1 km/h (1 Bft) N-NO 13 ° 0 min 0 W/m² -9,4 °C -7,6 °C 3,2 km/h (1 Bft)
18.02.2025 23:13 23,1 °C -7,5 °C 40 % 87 % 1031,6 hPa 0,0 l/m² 2,3 km/h (1 Bft) N 10 ° 0 min 0 W/m² -9,3 °C -7,5 °C 3,2 km/h (1 Bft)
18.02.2025 23:14 23,1 °C -7,4 °C 40 % 87 % 1031,6 hPa 0,0 l/m² 2,7 km/h (1 Bft) N 9 ° 0 min 0 W/m² -9,2 °C -7,4 °C 3,2 km/h (1 Bft)
18.02.2025 23:15 23,1 °C -7,4 °C 40 % 88 % 1031,6 hPa 0,0 l/m² 2,6 km/h (1 Bft) N 9 ° 0 min 0 W/m² -9,0 °C -7,4 °C 3,2 km/h (1 Bft)
18.02.2025 23:16 23,1 °C -7,4 °C 40 % 88 % 1031,7 hPa 0,0 l/m² 1,6 km/h (1 Bft) N 360 ° 0 min 0 W/m² -9,0 °C -7,4 °C 3,2 km/h (1 Bft)
18.02.2025 23:17 23,1 °C -7,3 °C 40 % 88 % 1031,7 hPa 0,0 l/m² 1,6 km/h (1 Bft) N 360 ° 0 min 0 W/m² -8,9 °C -7,3 °C 3,2 km/h (1 Bft)
18.02.2025 23:22 23,1 °C -7,4 °C 40 % 87 % 1031,7 hPa 0,0 l/m² 0,0 km/h (0 Bft) N 5 ° 0 min 0 W/m² -9,2 °C -7,4 °C 0,0 km/h (0 Bft)
18.02.2025 23:24 23,1 °C -7,4 °C 40 % 87 % 1031,8 hPa 0,0 l/m² 0,0 km/h (0 Bft) N 5 ° 0 min 0 W/m² -9,2 °C -7,4 °C 0,0 km/h (0 Bft)
18.02.2025 23:25 23,1 °C -7,4 °C 40 % 87 % 1031,8 hPa 0,0 l/m² 0,0 km/h (0 Bft) N 5 ° 0 min 0 W/m² -9,2 °C -7,4 °C 0,0 km/h (0 Bft)
18.02.2025 23:27 23,1 °C -7,6 °C 40 % 87 % 1031,8 hPa 0,0 l/m² 0,0 km/h (0 Bft) N 5 ° 0 min 0 W/m² -9,4 °C -7,6 °C 0,0 km/h (0 Bft)
18.02.2025 23:29 23,1 °C -7,6 °C 40 % 87 % 1031,8 hPa 0,0 l/m² 0,0 km/h (0 Bft) N 5 ° 0 min 0 W/m² -9,4 °C -7,6 °C 0,0 km/h (0 Bft)
18.02.2025 23:30 23,1 °C -7,7 °C 40 % 87 % 1031,8 hPa 0,0 l/m² 0,0 km/h (0 Bft) N 5 ° 0 min 0 W/m² -9,5 °C -7,7 °C 0,0 km/h (0 Bft)
18.02.2025 23:31 23,1 °C -7,8 °C 40 % 87 % 1031,9 hPa 0,0 l/m² 0,0 km/h (0 Bft) N 5 ° 0 min 0 W/m² -9,6 °C -7,8 °C 0,0 km/h (0 Bft)
18.02.2025 23:32 23,1 °C -7,8 °C 40 % 87 % 1031,9 hPa 0,0 l/m² 0,0 km/h (0 Bft) N 5 ° 0 min 0 W/m² -9,6 °C -7,8 °C 0,0 km/h (0 Bft)
18.02.2025 23:34 23,1 °C -7,9 °C 40 % 87 % 1031,9 hPa 0,0 l/m² 0,0 km/h (0 Bft) N 5 ° 0 min 0 W/m² -9,7 °C -7,9 °C 0,0 km/h (0 Bft)
18.02.2025 23:36 23,1 °C -7,9 °C 40 % 87 % 1031,8 hPa 0,0 l/m² 0,0 km/h (0 Bft) N 5 ° 0 min 0 W/m² -9,7 °C -7,9 °C 0,0 km/h (0 Bft)
18.02.2025 23:38 23,1 °C -7,9 °C 40 % 87 % 1031,9 hPa 0,0 l/m² 0,0 km/h (0 Bft) N 5 ° 0 min 0 W/m² -9,7 °C -7,9 °C 0,0 km/h (0 Bft)
18.02.2025 23:40 23,1 °C -8,0 °C 40 % 87 % 1031,9 hPa 0,0 l/m² 0,0 km/h (0 Bft) N 5 ° 0 min 0 W/m² -9,8 °C -8,0 °C 0,0 km/h (0 Bft)
18.02.2025 23:41 23,1 °C -8,0 °C 40 % 87 % 1032,0 hPa 0,0 l/m² 0,0 km/h (0 Bft) N 5 ° 0 min 0 W/m² -9,8 °C -8,0 °C 0,0 km/h (0 Bft)
18.02.2025 23:42 23,1 °C -8,1 °C 40 % 87 % 1032,0 hPa 0,0 l/m² 0,0 km/h (0 Bft) N 5 ° 0 min 0 W/m² -9,9 °C -8,1 °C 0,0 km/h (0 Bft)
18.02.2025 23:44 23,1 °C -8,1 °C 41 % 87 % 1032,0 hPa 0,0 l/m² 0,0 km/h (0 Bft) N 5 ° 0 min 0 W/m² -9,9 °C -8,1 °C 0,0 km/h (0 Bft)
18.02.2025 23:46 23,1 °C -8,1 °C 41 % 87 % 1031,9 hPa 0,0 l/m² 0,0 km/h (0 Bft) N 5 ° 0 min 0 W/m² -9,9 °C -8,1 °C 0,0 km/h (0 Bft)
18.02.2025 23:48 23,1 °C -8,1 °C 41 % 88 % 1032,0 hPa 0,0 l/m² 0,0 km/h (0 Bft) N 5 ° 0 min 0 W/m² -9,7 °C -8,1 °C 0,0 km/h (0 Bft)
18.02.2025 23:50 23,1 °C -8,1 °C 41 % 87 % 1031,9 hPa 0,0 l/m² 0,0 km/h (0 Bft) N 5 ° 0 min 0 W/m² -9,9 °C -8,1 °C 0,0 km/h (0 Bft)
18.02.2025 23:51 23,1 °C -8,1 °C 41 % 87 % 1031,9 hPa 0,0 l/m² 0,0 km/h (0 Bft) N 5 ° 0 min 0 W/m² -9,9 °C -8,1 °C 0,0 km/h (0 Bft)
18.02.2025 23:52 23,1 °C -8,1 °C 41 % 88 % 1031,9 hPa 0,0 l/m² 0,0 km/h (0 Bft) N 5 ° 0 min 0 W/m² -9,7 °C -8,1 °C 0,0 km/h (0 Bft)
18.02.2025 23:53 23,1 °C -8,1 °C 41 % 88 % 1032,0 hPa 0,0 l/m² 0,0 km/h (0 Bft) N 5 ° 0 min 0 W/m² -9,7 °C -8,1 °C 0,0 km/h (0 Bft)
18.02.2025 23:54 23,1 °C -8,2 °C 41 % 87 % 1032,0 hPa 0,0 l/m² 0,0 km/h (0 Bft) N 5 ° 0 min 0 W/m² -10,0 °C -8,2 °C 0,0 km/h (0 Bft)
18.02.2025 23:56 23,1 °C -8,2 °C 41 % 88 % 1032,0 hPa 0,0 l/m² 0,0 km/h (0 Bft) N 5 ° 0 min 0 W/m² -9,8 °C -8,2 °C 0,0 km/h (0 Bft)
18.02.2025 23:58 23,1 °C -8,1 °C 41 % 88 % 1032,1 hPa 0,0 l/m² 0,0 km/h (0 Bft) N 5 ° 0 min 0 W/m² -9,7 °C -8,1 °C 0,0 km/h (0 Bft)
_ Min-Zeit 07:42 07:54 18:05 16:15 00:03 - 23:58 - - - - 07:54 07:54 23:58
Minimum _ 22,2 °C -10,7 °C 34 % 51 % 1027,9 hPa - 0,0 km/h (0 Bft) - - - - -12,3 °C -10,7 °C 0,0 km/h (0 Bft)
_ Max-Zeit 14:37 15:07 05:11 09:45 23:58 23:58 16:27 - - 12:48 12:11 11:46 15:37 15:43
Maximum _ 24,7 °C 1,7 °C 45 % 89 % 1032,1 hPa 0,0 l/m² 15,0 km/h
O (3 Bft)
- - 3 min 496 W/m² -4,2 °C 1,6 °C 19,3 km/h
O (3 Bft)
Durchschnitt _ 23,3 °C -5,4 °C 41 % 79 % 1030,5 hPa #0,0 l/m² 2,5 km/h (1 Bft) O-NO - #8:27 h 122 W/m² -8,6 °C -5,9 °C 4,0 km/h (1 Bft)
© 2009 Mathias Hoßbach